[[{"header":{"parameterUnit":"m.s-1","parameterCategory":1,"la1":30.6,"la2":29.2853,"lo1":-89.7004,"lo2":-87.6739,"dy":0.0162,"dx":0.0183,"nx":112,"ny":82,"refTime":"2023-04-22T06:00:00:Z","depth":0,"parameterNumber":2,"parameterNumberName":"U-component_of_WINDS"},"data":[0.0,0.0,0.0,0.0,0.0,0.0,0.0,0.0,0.0,0.0,0.0,0.0,0.0,0.0,0.0,0.0,0.0,0.0,0.0,0.0,0.0,0.0,0.0,0.0,0.0,0.0,0.0,0.0,0.0,0.0,0.0,0.0,0.0,0.0,0.0,0.0,0.0,0.0,0.0,0.0,0.0,0.0,0.0,0.0,0.0,0.0,0.0,0.0,0.0,0.0,0.0,0.0,0.0,0.0,0.0,0.0,0.0,0.0,0.0,0.0,0.0,0.0,0.0,0.0,0.0,0.0,0.0,0.0,0.0,0.0,0.0,0.0,0.0,0.0,0.0,0.0,0.0,0.0,0.0,0.0,0.0,0.0,0.0,0.0,0.0,0.0,0.0,0.0,0.0,0.0,-2.2045,-2.2761,-2.3806,-2.4405,-2.4347,-2.4357,-2.4012,-2.3289,0.0,0.0,0.0,0.0,0.0,0.0,0.0,0.0,0.0,0.0,0.0,0.0,0.0,0.0,0.0,0.0,0.0,0.0,0.0,0.0,0.0,0.0,0.0,0.0,0.0,0.0,0.0,0.0,0.0,0.0,0.0,0.0,0.0,0.0,0.0,0.0,0.0,0.0,0.0,0.0,0.0,0.0,0.0,0.0,0.0,0.0,0.0,0.0,0.0,0.0,0.0,0.0,0.0,0.0,0.0,0.0,0.0,0.0,0.0,0.0,0.0,0.0,0.0,0.0,0.0,0.0,0.0,0.0,0.0,0.0,0.0,0.0,0.0,0.0,0.0,0.0,0.0,0.0,0.0,0.0,0.0,0.0,0.0,0.0,0.0,0.0,0.0,0.0,0.0,0.0,0.0,0.0,0.0,0.0,0.0,0.0,0.0,0.0,0.0,0.0,0.0,0.0,0.0,0.0,-2.1726,-2.2834,-2.3623,-2.3943,-2.3685,-2.3668,-2.3577,-2.3378,0.0,0.0,0.0,0.0,0.0,0.0,0.0,0.0,0.0,0.0,0.0,0.0,0.0,0.0,0.0,0.0,0.0,0.0,0.0,0.0,0.0,0.0,0.0,0.0,0.0,0.0,0.0,0.0,0.0,0.0,0.0,0.0,0.0,0.0,0.0,0.0,0.0,0.0,0.0,0.0,0.0,0.0,0.0,0.0,0.0,0.0,0.0,0.0,0.0,0.0,0.0,0.0,0.0,0.0,0.0,0.0,0.0,0.0,0.0,0.0,0.0,0.0,0.0,0.0,0.0,0.0,0.0,0.0,0.0,0.0,0.0,0.0,0.0,0.0,0.0,0.0,0.0,0.0,0.0,0.0,0.0,0.0,0.0,0.0,0.0,0.0,0.0,0.0,0.0,0.0,0.0,0.0,0.0,0.0,0.0,0.0,0.0,0.0,0.0,0.0,0.0,0.0,0.0,-2.0786,-2.1671,-2.2621,-2.3323,-2.3685,-2.3514,-2.3486,-2.3312,-2.2823,-2.2754,0.0,0.0,0.0,0.0,0.0,0.0,0.0,0.0,0.0,0.0,0.0,0.0,0.0,0.0,0.0,0.0,0.0,0.0,0.0,0.0,0.0,0.0,0.0,0.0,0.0,0.0,0.0,0.0,0.0,0.0,0.0,0.0,0.0,0.0,0.0,0.0,0.0,0.0,0.0,0.0,0.0,0.0,0.0,0.0,0.0,0.0,0.0,0.0,0.0,0.0,0.0,0.0,0.0,0.0,0.0,0.0,0.0,0.0,0.0,0.0,0.0,0.0,0.0,0.0,0.0,0.0,0.0,0.0,0.0,0.0,0.0,0.0,0.0,0.0,0.0,0.0,0.0,0.0,0.0,0.0,0.0,0.0,0.0,0.0,0.0,0.0,0.0,0.0,0.0,0.0,0.0,0.0,0.0,0.0,0.0,0.0,0.0,0.0,0.0,0.0,0.0,0.0,-2.0889,-2.186,-2.2325,-2.2966,-2.3334,-2.3294,-2.3211,-2.2898,-2.2395,-2.2264,0.0,0.0,0.0,0.0,0.0,0.0,0.0,0.0,0.0,0.0,0.0,0.0,0.0,0.0,0.0,0.0,0.0,0.0,0.0,0.0,0.0,0.0,0.0,0.0,0.0,0.0,0.0,0.0,0.0,0.0,0.0,0.0,0.0,0.0,0.0,0.0,0.0,0.0,0.0,0.0,0.0,0.0,0.0,0.0,0.0,0.0,0.0,0.0,0.0,0.0,0.0,0.0,0.0,0.0,0.0,0.0,0.0,0.0,0.0,0.0,0.0,0.0,0.0,0.0,0.0,0.0,0.0,0.0,0.0,0.0,0.0,0.0,0.0,0.0,0.0,0.0,0.0,0.0,0.0,0.0,0.0,0.0,0.0,0.0,0.0,0.0,0.0,0.0,0.0,0.0,0.0,0.0,0.0,0.0,0.0,0.0,0.0,0.0,0.0,0.0,0.0,0.0,-2.1525,-2.2334,-2.2057,-2.262,-2.2948,-2.2683,-2.2298,-2.2201,-2.2474,-2.2113,0.0,0.0,0.0,0.0,0.0,0.0,0.0,0.0,0.0,0.0,0.0,0.0,0.0,0.0,0.0,0.0,0.0,0.0,0.0,0.0,0.0,0.0,0.0,0.0,0.0,0.0,0.0,0.0,0.0,0.0,0.0,0.0,0.0,0.0,0.0,0.0,0.0,0.0,0.0,0.0,0.0,0.0,0.0,0.0,0.0,0.0,0.0,0.0,0.0,0.0,0.0,0.0,0.0,0.0,0.0,0.0,0.0,0.0,0.0,0.0,0.0,0.0,0.0,0.0,0.0,0.0,0.0,0.0,0.0,0.0,0.0,0.0,0.0,0.0,0.0,0.0,0.0,0.0,0.0,0.0,0.0,0.0,0.0,0.0,0.0,0.0,0.0,0.0,0.0,0.0,0.0,0.0,0.0,0.0,0.0,0.0,0.0,0.0,0.0,0.0,0.0,0.0,-2.1324,-2.1983,-2.2319,-2.2579,-2.2731,-2.2636,-2.2474,-2.2221,-2.1822,0.0,0.0,0.0,0.0,0.0,0.0,0.0,0.0,0.0,0.0,0.0,0.0,0.0,0.0,0.0,0.0,0.0,0.0,0.0,0.0,0.0,0.0,0.0,0.0,0.0,0.0,0.0,0.0,0.0,0.0,0.0,0.0,0.0,0.0,0.0,0.0,0.0,0.0,0.0,0.0,0.0,0.0,0.0,0.0,0.0,0.0,0.0,0.0,0.0,0.0,0.0,0.0,0.0,0.0,0.0,0.0,0.0,0.0,0.0,0.0,0.0,0.0,0.0,0.0,0.0,0.0,0.0,0.0,0.0,0.0,0.0,0.0,0.0,0.0,0.0,0.0,0.0,0.0,0.0,0.0,0.0,0.0,0.0,0.0,0.0,0.0,0.0,0.0,0.0,0.0,0.0,0.0,0.0,0.0,0.0,0.0,0.0,0.0,0.0,0.0,0.0,0.0,-2.1011,-2.1473,-2.197,-2.2542,-2.2594,-2.2594,-2.2594,-2.2491,-2.2148,-2.1448,0.0,0.0,0.0,0.0,0.0,0.0,0.0,0.0,0.0,0.0,0.0,0.0,0.0,0.0,0.0,0.0,0.0,0.0,0.0,0.0,0.0,0.0,0.0,0.0,0.0,0.0,0.0,0.0,0.0,0.0,0.0,0.0,0.0,0.0,0.0,0.0,0.0,0.0,0.0,0.0,0.0,0.0,0.0,0.0,0.0,0.0,0.0,0.0,0.0,0.0,0.0,0.0,0.0,0.0,0.0,0.0,0.0,0.0,0.0,0.0,0.0,0.0,0.0,0.0,0.0,0.0,0.0,0.0,0.0,0.0,0.0,0.0,0.0,0.0,0.0,0.0,0.0,0.0,0.0,0.0,0.0,0.0,0.0,0.0,0.0,0.0,0.0,0.0,0.0,0.0,0.0,0.0,0.0,0.0,0.0,0.0,0.0,0.0,0.0,0.0,0.0,0.0,-2.1413,-2.2073,-2.2594,-2.2594,-2.2594,-2.2594,-2.2594,-2.2259,-2.1833,0.0,0.0,0.0,0.0,0.0,0.0,0.0,0.0,0.0,0.0,0.0,0.0,0.0,0.0,0.0,0.0,0.0,0.0,0.0,0.0,0.0,0.0,0.0,0.0,0.0,0.0,0.0,0.0,0.0,0.0,0.0,0.0,0.0,0.0,0.0,0.0,0.0,0.0,0.0,0.0,0.0,0.0,0.0,0.0,0.0,0.0,0.0,0.0,0.0,0.0,0.0,0.0,0.0,0.0,0.0,0.0,0.0,0.0,0.0,0.0,0.0,0.0,0.0,0.0,0.0,0.0,0.0,0.0,0.0,0.0,0.0,0.0,0.0,0.0,0.0,0.0,0.0,0.0,0.0,0.0,0.0,0.0,0.0,0.0,0.0,0.0,0.0,0.0,0.0,0.0,0.0,0.0,0.0,0.0,0.0,0.0,0.0,0.0,0.0,0.0,0.0,0.0,0.0,-2.1413,-2.2073,-2.2594,-2.2594,-2.2594,-2.2594,-2.2594,-2.25,-2.2156,-2.1448,0.0,0.0,0.0,0.0,0.0,0.0,0.0,0.0,0.0,0.0,0.0,0.0,0.0,0.0,0.0,0.0,0.0,0.0,0.0,0.0,0.0,0.0,0.0,0.0,0.0,0.0,0.0,0.0,0.0,0.0,0.0,0.0,0.0,0.0,0.0,0.0,0.0,0.0,0.0,0.0,0.0,0.0,0.0,0.0,0.0,0.0,0.0,0.0,0.0,0.0,0.0,0.0,0.0,0.0,0.0,0.0,0.0,0.0,0.0,0.0,0.0,0.0,0.0,0.0,0.0,0.0,0.0,0.0,0.0,0.0,0.0,0.0,0.0,0.0,0.0,0.0,0.0,0.0,0.0,0.0,0.0,0.0,0.0,0.0,0.0,0.0,0.0,0.0,0.0,0.0,0.0,0.0,0.0,0.0,0.0,0.0,0.0,0.0,0.0,0.0,0.0,0.0,-2.1596,-2.2022,-2.2465,-2.2989,-2.3049,-2.3049,-2.3057,-2.3057,-2.2749,-2.2133,0.0,0.0,0.0,0.0,0.0,0.0,0.0,0.0,0.0,0.0,0.0,0.0,0.0,0.0,0.0,0.0,0.0,0.0,0.0,0.0,0.0,0.0,0.0,0.0,0.0,0.0,0.0,0.0,0.0,0.0,0.0,0.0,0.0,0.0,0.0,0.0,0.0,0.0,0.0,0.0,0.0,0.0,0.0,0.0,0.0,0.0,0.0,0.0,0.0,0.0,0.0,0.0,0.0,0.0,0.0,0.0,0.0,0.0,0.0,0.0,0.0,0.0,0.0,0.0,0.0,0.0,0.0,0.0,0.0,0.0,0.0,0.0,0.0,0.0,0.0,0.0,0.0,0.0,0.0,0.0,0.0,0.0,0.0,0.0,0.0,0.0,0.0,0.0,0.0,0.0,0.0,0.0,0.0,0.0,0.0,0.0,0.0,0.0,0.0,0.0,0.0,0.0,-2.1585,-2.1671,-2.2087,-2.3224,-2.3339,-2.3347,-2.3364,-2.3372,-2.3203,-2.2771,0.0,0.0,0.0,0.0,0.0,0.0,0.0,0.0,0.0,0.0,0.0,0.0,0.0,0.0,0.0,0.0,0.0,0.0,0.0,0.0,0.0,0.0,0.0,0.0,0.0,0.0,0.0,0.0,0.0,0.0,0.0,0.0,0.0,0.0,0.0,0.0,0.0,0.0,0.0,0.0,0.0,0.0,0.0,0.0,0.0,0.0,0.0,0.0,0.0,0.0,0.0,0.0,0.0,0.0,0.0,0.0,0.0,0.0,0.0,0.0,-1.8912,-1.9423,0.0,0.0,0.0,0.0,0.0,0.0,0.0,0.0,0.0,0.0,0.0,0.0,0.0,0.0,0.0,0.0,0.0,0.0,0.0,0.0,0.0,0.0,0.0,0.0,0.0,0.0,0.0,0.0,0.0,0.0,0.0,0.0,0.0,0.0,0.0,0.0,0.0,0.0,0.0,0.0,-1.9684,-2.0112,-2.0505,-2.0769,-2.0769,-2.0777,-2.0777,-2.0777,-2.0641,-2.0272,-2.0121,0.0,0.0,0.0,0.0,0.0,0.0,0.0,0.0,0.0,0.0,0.0,0.0,0.0,0.0,0.0,0.0,0.0,0.0,0.0,0.0,0.0,0.0,0.0,0.0,0.0,0.0,0.0,0.0,0.0,0.0,0.0,0.0,0.0,0.0,0.0,0.0,0.0,0.0,0.0,0.0,0.0,0.0,0.0,0.0,0.0,0.0,0.0,0.0,0.0,0.0,0.0,0.0,0.0,0.0,0.0,0.0,0.0,0.0,0.0,-1.782,-1.8125,0.0,0.0,0.0,0.0,0.0,0.0,0.0,0.0,0.0,0.0,0.0,0.0,0.0,0.0,0.0,0.0,0.0,0.0,0.0,0.0,0.0,0.0,0.0,0.0,0.0,0.0,0.0,0.0,0.0,0.0,0.0,0.0,0.0,0.0,0.0,0.0,0.0,0.0,0.0,0.0,-1.9447,-1.9587,-1.9913,-2.0465,-2.0521,-2.0521,-2.0521,-2.0521,-2.0448,-2.0296,-1.9943,0.0,0.0,0.0,0.0,0.0,0.0,0.0,0.0,0.0,0.0,0.0,0.0,0.0,0.0,0.0,0.0,0.0,0.0,0.0,0.0,0.0,0.0,0.0,0.0,0.0,0.0,0.0,0.0,0.0,0.0,0.0,0.0,0.0,0.0,0.0,0.0,0.0,0.0,0.0,0.0,0.0,0.0,0.0,0.0,0.0,0.0,0.0,0.0,0.0,0.0,0.0,0.0,0.0,-1.7399,-1.7286,-1.7286,-1.7037,-1.7037,-1.7316,-1.7008,-1.7026,-1.7213,-1.6996,0.0,0.0,0.0,0.0,0.0,0.0,0.0,0.0,0.0,0.0,0.0,0.0,0.0,0.0,0.0,0.0,0.0,0.0,0.0,0.0,0.0,0.0,-1.662,-1.6768,-1.6821,-1.6934,-1.744,0.0,0.0,0.0,0.0,0.0,0.0,0.0,0.0,0.0,0.0,0.0,-1.9353,-1.9205,-1.9377,-2.0386,-2.0444,-2.0444,-2.0444,-2.0444,-2.0444,-2.0444,-1.9913,-1.9569,0.0,0.0,0.0,0.0,0.0,0.0,0.0,0.0,0.0,0.0,0.0,0.0,0.0,0.0,0.0,0.0,0.0,0.0,0.0,0.0,0.0,0.0,0.0,0.0,0.0,0.0,0.0,0.0,0.0,0.0,0.0,0.0,-1.6703,-1.6738,0.0,0.0,0.0,0.0,0.0,0.0,0.0,0.0,0.0,0.0,0.0,0.0,0.0,-1.7009,-1.7043,-1.7355,-1.7593,-1.7745,-1.8002,-1.813,-1.813,-1.813,-1.813,-1.8112,-1.7853,0.0,-1.7768,-1.7732,0.0,0.0,0.0,0.0,0.0,0.0,0.0,0.0,0.0,0.0,0.0,0.0,0.0,0.0,0.0,0.0,0.0,0.0,0.0,0.0,0.0,0.0,-1.759,-1.7625,-1.7454,-1.7253,-1.7306,-1.6768,-1.6287,-1.616,-1.6371,-1.6453,0.0,0.0,0.0,0.0,0.0,0.0,-1.7483,-1.764,-1.783,-1.7941,-1.7994,-1.7994,-1.7994,-1.7994,-1.7994,-1.7994,-1.7873,-1.7836,-1.7836,-1.8527,0.0,0.0,0.0,0.0,0.0,0.0,0.0,0.0,0.0,0.0,0.0,0.0,0.0,0.0,0.0,0.0,0.0,0.0,0.0,0.0,0.0,0.0,0.0,0.0,0.0,0.0,0.0,0.0,0.0,-1.6605,-1.6796,-1.6608,-1.6597,-1.6553,0.0,0.0,0.0,0.0,0.0,0.0,0.0,0.0,0.0,-1.7634,-1.764,-1.7777,-1.7872,-1.806,-1.8056,-1.7897,-1.8293,-1.8035,-1.7328,-1.8287,-1.8345,-1.7633,-1.8283,-1.8547,-1.8529,-1.8227,-1.8106,-1.81,0.0,0.0,0.0,0.0,-1.7768,-1.7781,-1.7895,-1.8112,-1.8312,-1.8191,0.0,0.0,0.0,0.0,0.0,0.0,0.0,-1.7142,-1.6931,-1.6962,-1.712,-1.7447,-1.7426,-1.7302,-1.7302,-1.719,-1.7026,-1.6738,-1.6797,-1.6825,-1.6535,-1.6726,0.0,0.0,0.0,-1.7587,-1.775,-1.7871,-1.7937,-1.7937,-1.7937,-1.7937,-1.7937,-1.7937,-1.7937,-1.7937,-1.7937,-1.7937,-1.7937,-1.8295,-1.8211,0.0,0.0,0.0,0.0,0.0,0.0,0.0,0.0,0.0,0.0,0.0,0.0,0.0,0.0,0.0,0.0,0.0,0.0,0.0,0.0,0.0,0.0,0.0,0.0,0.0,0.0,0.0,0.0,-1.6726,-1.7028,-1.6841,-1.705,-1.703,0.0,0.0,0.0,0.0,0.0,0.0,-1.686,-1.6855,-1.6954,-1.718,-1.7191,-1.7315,-1.7518,-1.7518,-1.7453,-1.719,-1.7518,-1.713,-1.6148,-1.7448,-1.7442,-1.6527,-1.7571,-1.8033,-1.8069,-1.8399,-1.8493,-1.8505,-1.8638,-1.8565,-1.8396,-1.8396,-1.8396,-1.8402,-1.8469,-1.8625,-1.8719,-1.8398,-1.8013,-1.7615,-1.7163,0.0,0.0,0.0,0.0,-1.6641,-1.6396,-1.6611,-1.6881,-1.7264,-1.7304,-1.7241,-1.7309,-1.7564,-1.7626,-1.7302,-1.7297,-1.7318,-1.6961,-1.7183,0.0,-1.7535,-1.7817,-1.8058,-1.8269,-1.8294,-1.8294,-1.8294,-1.8294,-1.8294,-1.8294,-1.8294,-1.8294,-1.8294,-1.8294,-1.8294,-1.8294,-1.836,-1.8294,-1.8082,0.0,0.0,0.0,0.0,0.0,0.0,0.0,0.0,0.0,0.0,0.0,0.0,0.0,0.0,0.0,0.0,0.0,0.0,0.0,0.0,0.0,0.0,0.0,0.0,0.0,0.0,0.0,0.0,0.0,-1.713,-1.7826,0.0,0.0,0.0,0.0,-1.6813,-1.6498,-1.6134,-1.5629,-1.5584,-1.5211,-1.4409,-1.4414,-1.4465,-1.4623,-1.4619,-1.4763,-1.5038,-1.5108,-1.5038,-1.4973,-1.5038,-1.5038,-1.5038,-1.5103,-1.5103,-1.5298,-1.7941,-1.9036,-1.9012,-1.8776,-1.868,-1.8668,-1.8668,-1.8668,-1.8704,-1.8945,-1.9048,-1.8856,-1.7549,-1.6188,-1.492,-1.401,-1.3938,0.0,0.0,-1.4154,-1.6018,-1.5336,-1.652,-1.7859,-1.7555,-1.7232,-1.7098,-1.7431,-1.7562,-1.7628,-1.774,-1.7988,-1.8149,-1.7883,0.0,-1.8149,-1.7907,-1.81,-1.8275,-1.8294,-1.8294,-1.8294,-1.8294,-1.8294,-1.8294,-1.8294,-1.8294,-1.8294,-1.8294,-1.8294,-1.8294,-1.8294,-1.8529,-1.8656,-1.8644,-1.8632,0.0,0.0,0.0,0.0,0.0,0.0,0.0,0.0,0.0,0.0,0.0,0.0,0.0,0.0,0.0,0.0,0.0,0.0,0.0,0.0,0.0,0.0,0.0,0.0,0.0,0.0,0.0,0.0,-1.753,-1.7764,0.0,-1.6144,-1.6144,-1.5688,-1.4424,-1.4714,-1.4805,-1.4423,-1.4423,-1.439,-1.4327,-1.4327,-1.4365,-1.4376,-1.4371,-1.4381,-1.4263,-1.4455,-1.4124,-1.3272,-1.4385,-1.4385,-1.36,-1.4516,-1.4907,-1.4973,-1.5949,-1.6408,-1.6398,-1.6314,-1.6219,-1.6219,-1.6219,-1.6219,-1.6299,-1.6377,-1.6408,-1.6338,-1.5819,-1.5163,-1.4502,-1.4169,-1.4141,-1.4128,-1.3423,-1.4092,-1.4919,-1.4475,-1.531,-1.6283,-1.6159,-1.6748,-1.7335,-1.747,-1.7918,-1.8273,-1.8307,-1.8336,-1.825,-1.8125,-1.835,-1.8509,-1.8393,-1.8608,-1.8794,-1.8794,-1.8794,-1.8794,-1.8794,-1.8794,-1.8794,-1.8794,-1.8794,-1.8794,-1.8794,-1.8794,-1.8794,-1.8794,-1.8885,-1.8933,-1.8933,-1.8933,-1.8429,0.0,0.0,0.0,0.0,0.0,0.0,0.0,0.0,0.0,0.0,0.0,0.0,0.0,0.0,0.0,0.0,0.0,0.0,0.0,0.0,0.0,0.0,0.0,0.0,0.0,-1.7383,-1.7341,-1.7031,-1.6848,-1.6248,-1.5021,-1.5017,-1.4642,-1.3535,-1.3888,-1.3844,-1.3193,-1.3119,-1.3054,-1.2795,-1.2795,-1.2869,-1.3009,-1.3009,-1.2947,-1.2824,-1.3079,-1.2684,-1.1765,-1.2947,-1.2947,-1.2161,-1.3079,-1.3473,-1.3473,-1.3473,-1.3473,-1.36,-1.4516,-1.4907,-1.4907,-1.4907,-1.4907,-1.4907,-1.4907,-1.4581,-1.4189,-1.4189,-1.3731,-1.314,-1.3009,-1.3009,-1.2877,-1.2557,-1.3079,-1.36,-1.328,-1.4128,-1.5043,-1.4917,-1.5639,-1.6289,-1.6418,-1.7195,-1.7916,-1.8039,-1.8352,-1.8521,-1.8405,-1.8554,-1.8653,-1.8491,-1.8692,-1.8813,-1.8813,-1.8891,-1.8945,-1.8945,-1.9024,-1.9078,-1.9078,-1.8994,-1.8982,-1.9066,-1.8994,-1.8982,-1.9072,-1.9078,-1.9078,-1.895,-1.8816,-1.8348,-1.7609,0.0,0.0,0.0,0.0,0.0,0.0,0.0,0.0,0.0,0.0,0.0,0.0,0.0,0.0,0.0,0.0,0.0,0.0,0.0,0.0,0.0,0.0,0.0,-1.6898,-1.6569,-1.5943,-1.563,-1.5172,-1.4712,-1.4381,-1.4315,-1.4315,-1.425,-1.3932,-1.3149,-1.1828,-1.1762,-1.1111,-0.9734,-0.9734,-0.987,-1.0206,-1.0203,-1.0402,-1.0668,-1.0668,-1.0668,-1.0668,-1.0668,-1.0668,-1.0668,-1.0668,-1.0668,-1.0734,-1.0734,-1.0734,-1.0996,-1.3739,-1.4777,-1.4777,-1.4777,-1.4777,-1.4777,-1.4777,-1.3862,-1.275,-1.275,-1.1839,-1.0661,-1.0332,-1.0203,-1.0139,-0.9806,-1.0993,-1.2173,-1.1843,-1.3087,-1.4272,-1.3958,-1.3892,-1.4019,-1.4329,-1.5504,-1.6543,-1.6915,-1.8092,-1.8994,-1.874,-1.8698,-1.8607,-1.8354,-1.8318,0.0,-1.8318,-1.8541,-1.8692,-1.8686,-1.8921,-1.9072,-1.906,-1.8837,-1.8807,-1.906,-1.8837,-1.8813,-1.9066,-1.9078,-1.8956,-1.8647,-1.8232,-1.8277,-1.887,0.0,0.0,0.0,0.0,0.0,0.0,0.0,0.0,0.0,0.0,0.0,0.0,0.0,0.0,0.0,0.0,0.0,0.0,0.0,0.0,0.0,-1.4505,-1.4556,-1.5193,-1.5062,-1.4968,-1.5062,-1.474,-1.4124,-1.3009,-1.268,-1.2091,-1.1042,-1.0913,-1.0717,-1.0319,-1.0253,-1.0235,-1.02,-1.0203,-1.0457,-1.0903,-1.0906,-1.0838,-1.0633,-1.0633,-1.0493,-1.0219,-1.0219,-1.0356,-1.0633,-1.0633,-1.0766,-1.104,-1.104,-1.104,-1.1087,-1.1662,-1.1835,-1.1835,-1.1835,-1.1835,-1.1835,-1.1835,-1.1574,-1.131,-1.131,-1.1059,-1.082,-1.0752,-1.0823,-1.0903,-1.0838,-1.1108,-1.1514,-1.1377,-1.2259,-1.3142,-1.3074,-1.3811,-1.4576,-1.4569,-1.5059,-1.5802,-1.6818,-1.7308,-1.7876,-1.8848,-1.8969,-1.8945,-1.8873,-1.8861,-1.8861,-1.8861,-1.8921,-1.8897,-1.8704,-1.8921,-1.9,-1.8807,-1.8897,-1.9,-1.9072,-1.9006,-1.9,-1.9072,-1.9078,-1.9163,-1.9226,-1.8529,-1.8343,0.0,0.0,0.0,0.0,0.0,0.0,0.0,0.0,0.0,0.0,0.0,0.0,0.0,0.0,0.0,0.0,0.0,0.0,0.0,0.0,0.0,0.0,-1.3059,-1.2822,-1.2901,-1.3427,-1.386,-1.3979,-1.3337,-1.2553,-1.1703,-1.1439,-1.0979,-1.019,-1.0127,-1.0127,-1.0127,-1.0127,-1.0254,-1.0596,-1.054,-1.0745,-1.1231,-1.1104,-1.0967,-1.0816,-1.0816,-1.0747,-1.047,-1.047,-1.0609,-1.0816,-1.0816,-1.0954,-1.1231,-1.1231,-1.1231,-1.1214,0.0,0.0,0.0,0.0,-1.0907,-1.0907,-1.0907,-1.0907,-1.0907,-1.0907,-1.0965,-1.1036,-1.1036,-1.1097,-1.1231,-1.1231,-1.1231,-1.1231,-1.1231,-1.1645,-1.2058,-1.2058,-1.2666,-1.3247,-1.3214,-1.3794,-1.4764,-1.6105,-1.6876,0.0,-1.9149,-1.9223,-1.9078,-1.9078,-1.9078,-1.9078,-1.9078,-1.9169,-1.9181,-1.903,-1.9253,-1.9356,-1.9199,-1.9217,0.0,0.0,0.0,-1.9241,-1.9241,-1.9112,0.0,0.0,0.0,-1.8122,-1.8401,-1.7725,0.0,0.0,-1.7417,-1.7156,0.0,0.0,0.0,0.0,0.0,0.0,0.0,0.0,0.0,0.0,0.0,0.0,0.0,0.0,0.0,0.0,-1.1184,-1.0565,-1.07,-1.1769,-1.2557,-1.2557,-1.1442,-1.0721,-1.0721,-1.0721,-1.0721,-1.0721,-1.0721,-1.0721,-1.0721,-1.0721,0.0,0.0,0.0,-1.088,-1.1227,-1.1053,-1.0991,-1.1189,-1.1136,-1.1143,-1.1143,-1.1143,-1.1143,-1.1212,-1.1212,-1.1202,-1.1189,-1.1189,-1.1179,-1.1231,-1.1231,-1.1231,-1.1231,-1.1231,-1.1231,-1.1231,-1.1231,0.0,0.0,-1.1231,-1.1244,-1.1189,-1.1189,-1.1202,-1.1282,-1.1282,-1.1282,-1.1282,-1.1282,-1.1282,-1.1282,-1.1282,-1.1282,-1.1209,-1.1261,-1.2214,-1.3505,-1.4973,-1.6393,-1.7836,-1.9443,-1.9435,-1.9169,-1.9169,-1.9169,-1.9169,-1.9169,-1.9374,-1.9501,-1.947,-1.9718,0.0,-1.9839,-1.9639,-1.9621,-1.9869,-1.9652,-1.9578,-1.9578,-1.9256,-1.8977,-1.8761,-1.818,-1.7984,-1.8295,-1.792,-1.7844,-1.8043,-1.7233,-1.7113,0.0,0.0,0.0,0.0,0.0,0.0,0.0,0.0,0.0,0.0,0.0,0.0,0.0,0.0,0.0,-1.0826,-1.0706,-1.0687,-1.0717,-1.0916,-1.1111,-1.1111,-1.085,-1.0721,-1.0721,-1.0721,-1.0721,-1.0721,-1.0721,-1.0721,-1.0721,-1.0721,-1.0792,-1.0877,-1.0853,-1.0989,-1.1231,-1.1257,-1.1178,-1.0856,-1.0973,0.0,-1.0665,-1.0665,-1.0811,-1.1032,-1.1032,-1.1176,-1.1348,-1.1348,-1.1274,-1.1231,-1.1231,-1.1231,-1.1231,-1.1231,-1.1231,-1.1231,-1.1231,-1.1231,-1.1231,-1.1231,-1.1246,-1.1348,-1.1348,-1.1433,0.0,-1.1531,-1.1531,-1.1531,-1.1531,-1.1531,-1.1531,-1.1531,-1.1531,-1.1497,-1.1372,-1.1555,-1.2139,-1.3441,-1.4901,-1.6448,-1.8074,-1.9113,-1.973,-1.973,-1.973,-1.973,-1.973,-1.9772,-1.9718,-1.9495,-1.9718,-1.9796,-1.9633,-1.9706,-1.9827,-1.9881,-1.9833,-1.9802,-1.9802,-1.9742,-1.9555,-1.9171,-1.9039,-1.8907,-1.8648,-1.8582,-1.8604,-1.8639,-1.7748,-1.744,0.0,0.0,0.0,0.0,0.0,0.0,0.0,0.0,0.0,0.0,0.0,-1.1217,-1.1217,0.0,-1.049,-1.049,-1.0619,-1.0721,-1.0721,-1.0721,-1.0721,-1.0721,-1.0721,-1.0721,-1.0721,-1.0721,-1.0721,-1.0721,-1.0721,-1.0721,-1.0721,-1.0792,-1.09,-1.105,-1.1056,-1.1162,-1.1389,-1.1467,-1.1399,-1.1325,-1.1474,-1.1431,-1.1137,-1.1137,-1.1213,-1.1434,-1.1434,-1.1507,-1.1728,-1.1728,-1.1684,-1.1685,-1.1685,-1.15,-1.1231,-1.1231,-1.1231,-1.1231,-1.1231,-1.1231,-1.1231,-1.1231,-1.1282,-1.1277,-1.1277,-1.1385,-1.1504,-1.1504,-1.1558,-1.1619,-1.1619,-1.1619,-1.1619,-1.1619,-1.1619,-1.1599,-1.1521,-1.1504,-1.1903,-1.3356,-1.4788,-1.606,-1.6932,-1.8195,-1.9443,-2.0205,-2.0279,-2.0279,-2.0279,-2.0279,-2.0225,-2.008,-2.0195,-2.0219,-2.008,-2.0195,-2.0279,-2.0279,-2.0279,-2.0279,-2.0279,-2.0279,-2.0145,-1.9804,-1.9455,-1.9127,-1.8804,-1.8463,-1.8261,-1.8256,-1.7813,-1.7697,0.0,0.0,0.0,0.0,0.0,0.0,0.0,-1.3775,-1.2155,-1.1936,-1.1062,-1.0368,-1.0368,-1.046,-1.0534,-1.0534,-1.0639,-1.0731,-1.0761,-1.0765,-1.0775,-1.0802,-1.0755,-1.0721,-1.0721,-1.0748,-1.0765,-1.0765,-1.0792,-1.0806,-1.0806,-1.0924,-1.1043,-1.1158,-1.1231,-1.128,-1.1528,-1.1558,-1.1647,-1.1792,-1.1945,-1.1969,-1.1874,-1.1874,-1.1874,-1.1874,-1.1843,-1.1901,-1.2016,-1.1986,-1.1976,-1.1976,-1.1976,-1.1681,-1.1257,-1.1318,-1.1318,-1.1294,-1.1294,-1.1274,-1.1253,-1.1253,-1.1253,-1.1253,-1.1253,-1.1338,-1.1436,-1.1436,-1.1504,-1.1575,-1.1575,-1.1552,-1.1538,-1.1569,-1.1575,-1.1582,-1.1613,-1.1619,-1.1972,-1.3174,-1.4654,-1.5637,-1.5637,-1.7198,-1.8832,-2.0104,-2.0243,-2.0382,-2.0665,-2.0665,-2.0665,-2.0665,-2.0665,-2.0665,-2.0665,-2.0665,-2.0665,-2.0665,-2.0665,-2.0665,-2.0665,-2.0665,-2.0569,-2.0289,-1.9587,-1.9147,-1.8812,-1.8129,-1.7857,-1.7857,-1.7857,-1.7971,-1.6232,-1.5323,-1.4363,-1.4363,-1.4365,-1.4048,0.0,-1.2588,-1.212,-1.11,-1.0736,-1.067,-1.067,-1.0683,-1.0694,-1.0694,-1.0711,-1.0768,-1.0836,-1.0853,-1.0972,-1.1097,-1.088,-1.0721,-1.0721,-1.0843,-1.0853,-1.0853,-1.1043,-1.1114,-1.1114,-1.1128,-1.1148,-1.1231,-1.1231,-1.1179,-1.1212,-1.1348,-1.1494,-1.1643,-1.1789,-1.1921,-1.2037,-1.2037,-1.2037,-1.203,-1.1891,-1.184,-1.1847,-1.1721,-1.167,-1.167,-1.167,-1.163,-1.1599,-1.1864,-1.1874,-1.1755,-1.1755,-1.1674,-1.1569,-1.1569,-1.1569,-1.1569,-1.1569,-1.1582,-1.1592,-1.1592,-1.1508,-1.1416,-1.1416,-1.1314,-1.125,-1.1385,-1.1416,-1.1453,-1.1589,-1.1619,-1.1619,-1.1832,-1.3107,-1.416,-1.416,-1.6498,-1.8476,-1.8622,-1.8692,-1.9181,-2.0527,-2.0665,-2.0665,-2.0665,-2.0665,-2.0665,-2.0665,-2.0665,-2.0665,-2.0665,-2.0665,-2.0665,-2.0665,-2.0665,-2.0515,-2.0138,-1.9785,-1.935,-1.898,-1.8562,-1.8352,-1.8352,-1.8352,-1.8245,-1.5447,-1.4677,-1.4208,-1.4454,-1.3789,-1.3059,-1.2731,-1.1992,-1.1297,-1.0773,-1.0721,-1.0748,-1.0769,-1.0786,-1.088,-1.0965,-1.0975,-1.0999,-1.1063,-1.1073,-1.1128,-1.1277,-1.1185,-1.1077,-1.0985,-1.1036,-1.1073,-1.1073,-1.1128,-1.1231,-1.1231,-1.1246,-1.1297,-1.1297,-1.1382,-1.1426,-1.1426,-1.1575,-1.1725,-1.1881,-1.2026,-1.2132,-1.2196,-1.2196,-1.2196,-1.2196,-1.2213,-1.222,-1.2216,-1.2159,-1.2132,-1.2132,-1.2132,-1.2132,-1.2108,-1.1887,-1.1762,-1.1708,-1.1708,-1.167,-1.1619,-1.1619,-1.1619,-1.1619,-1.1619,-1.1677,-1.1742,-1.1742,-1.1762,-1.1782,-1.1782,-1.1735,-1.1773,-1.1765,-1.1782,-1.1799,-1.1864,-1.1877,-1.1877,-1.1877,-1.3106,-1.3828,-1.3032,-1.4625,-1.6355,-1.7298,-1.8796,-1.9959,-2.0596,-2.0665,-2.0665,-2.0665,-2.0665,-2.0665,-2.0665,-2.0665,-2.0665,-2.0665,-2.088,-2.0895,-2.0895,-2.1052,-2.1071,-2.0929,-2.0556,-2.0194,-1.9772,-1.9344,-1.9063,-1.8776,-1.8776,-1.8875,-1.3816,-1.3328,-1.3302,-1.357,-1.2812,-1.195,-1.22,-1.1442,-1.0721,-1.0721,-1.0755,-1.0749,-1.086,-1.0982,-1.1043,-1.1148,-1.1231,-1.1175,-1.1219,-1.1263,-1.1345,-1.1494,-1.1548,-1.1531,-1.1493,-1.1338,-1.127,-1.1229,-1.1263,-1.129,-1.129,-1.1396,-1.1453,-1.1453,-1.1562,-1.1619,-1.1619,-1.1721,-1.187,-1.2064,-1.2176,-1.2271,-1.2349,-1.2349,-1.2349,-1.2352,-1.2457,-1.2501,-1.2501,-1.2501,-1.2501,-1.2501,-1.2501,-1.2501,-1.245,-1.202,-1.1837,-1.1806,-1.1806,-1.1775,-1.1742,-1.1742,-1.1742,-1.1742,-1.1742,-1.1813,-1.1894,-1.1894,-1.1945,-1.1999,-1.1999,-1.1969,-1.1952,-1.1989,-1.1999,-1.201,-1.2054,-1.2135,-1.2135,-1.2135,-1.294,-1.3382,-1.2284,-1.3308,-1.4847,-1.6535,-1.8744,-2.0385,-2.0889,-2.0895,-2.0895,-2.0895,-2.0895,-2.0895,-2.0895,-2.0895,-2.0895,-2.0895,-2.107,-2.1172,-2.1172,-2.1372,-2.148,-2.148,-2.1102,-2.0735,-2.0445,-1.9944,-1.958,-1.9295,-1.9149,-1.9168,-1.0745,-1.041,-1.0441,-1.0589,-1.0671,-1.078,-1.0784,-1.0721,-1.0721,-1.0721,-1.0769,-1.0877,-1.088,-1.1063,-1.1158,-1.1231,-1.1231,-1.1216,-1.1362,-1.1511,-1.1657,-1.1799,-1.1948,-1.2115,-1.2037,-1.1775,-1.1545,-1.1396,-1.1521,-1.1606,-1.1606,-1.1609,-1.1613,-1.1613,-1.1616,-1.1619,-1.1619,-1.1623,-1.1772,-1.2135,-1.2067,-1.222,-1.2494,-1.2494,-1.2494,-1.2494,-1.2501,-1.2501,-1.2501,-1.2501,-1.2501,-1.2501,-1.2501,-1.2501,-1.2501,-1.2481,-1.2386,-1.2271,-1.2271,-1.2172,-1.2047,-1.2047,-1.2047,-1.2047,-1.2047,-1.2125,-1.2054,-1.2054,-1.1948,-1.1837,-1.1837,-1.1735,-1.1667,-1.1803,-1.1837,-1.1877,-1.203,-1.2135,-1.2135,-1.2135,-1.2135,-1.2135,-1.2138,-1.3308,-1.4847,-1.6535,-1.8071,-1.9614,-2.1306,-2.1456,-2.1456,-2.1456,-2.1456,-2.1456,-2.1456,-2.1456,-2.1456,-2.1456,-2.1462,-2.1468,-2.1468,-2.1474,-2.148,-2.148,-2.1102,-2.0873,-2.0879,-2.0083,-1.9726,-1.9653,-1.9295,-1.9082,-1.0507,-1.0422,-1.0456,-1.0605,-1.068,-1.0721,-1.0721,-1.0721,-1.0748,-1.0782,-1.0833,-1.0887,-1.1189,-1.1121,-1.1118,-1.1416,-1.1382,-1.1369,-1.1521,-1.1589,-1.1711,-1.1955,-1.203,-1.2101,-1.2203,-1.203,-1.185,-1.1694,-1.1731,-1.1718,-1.1623,-1.1619,-1.1619,-1.1619,-1.1619,-1.1619,-1.1619,-1.1619,-1.1769,-1.2064,-1.226,-1.2406,-1.2501,-1.2501,-1.2501,-1.2501,-1.2501,-1.2501,-1.2501,-1.2501,-1.2501,-1.2501,-1.2501,-1.2501,-1.2501,-1.2501,-1.2471,-1.243,-1.243,-1.2396,-1.2355,-1.2355,-1.2355,-1.2355,-1.2355,-1.2355,-1.2355,-1.2355,-1.2318,-1.2274,-1.2274,-1.224,-1.2216,-1.2264,-1.2274,-1.2291,-1.2342,-1.2355,-1.2355,-1.2355,-1.2355,-1.2355,-1.2355,-1.3634,-1.5664,-1.837,-1.9835,-2.0885,-2.1408,-2.148,-2.148,-2.148,-2.148,-2.148,-2.148,-2.148,-2.148,-2.148,-2.1643,-2.174,-2.174,-2.1909,-2.1999,-2.1999,-2.1919,-2.1692,-2.1402,-2.0883,-2.0511,-2.0203,-1.9836,-1.9612,-1.0439,-1.049,-1.0527,-1.068,-1.0721,-1.0734,-1.0789,-1.0802,-1.0829,-1.086,-1.0911,-1.0965,-1.1257,-1.1199,-1.1236,-1.1633,-1.1613,-1.1582,-1.1681,-1.1789,-1.1908,-1.2047,-1.2108,-1.2203,-1.2352,-1.223,-1.2057,-1.1847,-1.183,-1.1769,-1.1626,-1.1619,-1.1619,-1.1619,-1.1619,-1.1643,-1.1694,-1.1643,-1.1769,-1.2064,-1.2362,-1.2501,-1.2501,-1.2501,-1.2501,-1.2501,-1.2501,-1.2501,-1.2501,-1.2501,-1.2501,-1.2501,-1.2501,-1.2501,-1.2501,-1.2501,-1.2501,-1.2501,-1.2501,-1.2501,-1.2501,-1.2501,-1.2501,-1.2501,-1.2501,-1.2501,-1.2501,-1.2501,-1.2501,-1.2501,-1.2501,-1.2501,-1.2501,-1.2501,-1.2501,-1.2501,-1.2501,-1.2501,-1.2501,-1.2501,-1.2501,-1.2501,-1.2501,-1.4333,-1.6312,-1.783,-1.9633,-2.1088,-2.1685,-2.1758,-2.1758,-2.1758,-2.1758,-2.1758,-2.1758,-2.1758,-2.1758,-2.1758,-2.1915,-2.2011,-2.2011,-2.2174,-2.2334,-2.2334,-2.2334,-2.2184,-2.1891,-2.1516,-2.1141,-2.0678,-2.0296,-2.007,-1.0426,-1.0504,-1.0541,-1.0694,-1.0731,-1.0772,-1.0857,-1.0887,-1.0884,-1.089,-1.1056,-1.1214,-1.1227,-1.128,-1.1474,-1.1762,-1.1816,-1.182,-1.182,-1.2071,-1.2203,-1.2067,-1.2179,-1.2322,-1.2464,-1.2355,-1.2155,-1.1853,-1.1837,-1.1779,-1.163,-1.1619,-1.1619,-1.1619,-1.1619,-1.1684,-1.182,-1.1701,-1.1789,-1.2077,-1.2366,-1.2501,-1.2501,-1.2501,-1.2501,-1.2501,-1.2501,-1.2501,-1.2501,-1.2501,-1.2501,-1.2501,-1.2501,-1.2501,-1.2501,-1.2501,-1.2501,-1.2501,-1.2501,-1.2501,-1.2501,-1.2501,-1.2501,-1.2501,-1.2501,-1.2501,-1.2501,-1.2501,-1.2501,-1.2501,-1.2501,-1.2501,-1.2501,-1.2501,-1.2501,-1.2501,-1.2501,-1.2501,-1.2501,-1.2501,-1.2501,-1.2501,-1.2579,-1.5174,-1.677,-1.5246,-1.7683,-2.0274,-2.1954,-2.2184,-2.2184,-2.2259,-2.2334,-2.2334,-2.2334,-2.2334,-2.2334,-2.2334,-2.2334,-2.2334,-2.2334,-2.2334,-2.2334,-2.2334,-2.2334,-2.2334,-2.2334,-2.1885,-2.1516,-2.1141,-2.0678,-2.0296,-1.0612,-1.0663,-1.07,-1.0853,-1.0823,-1.0928,-1.1077,-1.1026,-1.0911,-1.1087,-1.0962,-1.09,-1.1121,-1.1265,-1.1284,-1.147,-1.1599,-1.1674,-1.1674,-1.1742,-1.1816,-1.1881,-1.1925,-1.2006,-1.2159,-1.2142,-1.204,-1.1843,-1.1938,-1.1891,-1.1633,-1.1619,-1.1619,-1.1619,-1.1619,-1.1636,-1.1674,-1.1857,-1.2043,-1.2233,-1.2416,-1.2501,-1.2501,-1.2501,-1.2501,-1.2501,-1.2501,-1.2501,-1.2501,-1.2501,-1.2501,-1.2501,-1.2501,-1.2501,-1.2501,-1.2501,-1.2501,-1.2501,-1.2501,-1.2501,-1.2501,-1.2501,-1.2501,-1.2501,-1.2501,-1.2501,-1.2501,-1.2501,-1.2501,-1.2501,-1.2501,-1.2501,-1.2501,-1.2501,-1.2501,-1.2501,-1.2501,-1.2501,-1.2501,-1.2501,-1.2501,-1.2881,-1.4103,-1.5016,-1.5854,-1.6617,-1.7455,-1.8598,-2.0199,-2.0425,-2.0881,-2.2184,-2.2334,-2.2334,-2.2334,-2.2334,-2.2334,-2.2334,-2.2334,-2.2334,-2.2334,-2.2334,-2.2334,-2.2334,-2.2334,-2.2334,-2.2334,-2.1885,-2.1666,-2.1516,-2.0823,-2.0447,-1.0677,-1.0768,-1.0843,-1.086,-1.0995,-1.1063,-1.1145,-1.1101,-1.1046,-1.1063,-1.0938,-1.089,-1.1121,-1.1231,-1.1257,-1.1538,-1.1657,-1.1711,-1.1711,-1.1772,-1.1816,-1.183,-1.183,-1.1891,-1.2047,-1.1999,-1.1925,-1.1837,-1.1911,-1.186,-1.1633,-1.1619,-1.1619,-1.1619,-1.1619,-1.165,-1.1711,-1.2013,-1.2206,-1.2291,-1.2433,-1.2501,-1.2501,-1.2501,-1.2501,-1.2501,-1.2501,-1.2501,-1.2501,-1.2501,-1.2501,-1.2501,-1.2501,-1.2501,-1.2501,-1.2501,-1.2501,-1.2501,-1.2501,-1.2501,-1.2501,-1.2501,-1.2501,-1.2501,-1.2501,-1.2501,-1.2501,-1.2501,-1.2501,-1.2501,-1.2501,-1.2501,-1.2501,-1.2501,-1.2501,-1.2501,-1.2501,-1.2501,-1.2501,-1.2501,-1.2501,-1.2807,-1.3722,-1.4406,-1.5016,-1.5246,-1.6465,-1.7759,-1.8598,-1.9359,-2.0425,-2.2103,-2.2334,-2.2334,-2.2334,-2.2334,-2.2334,-2.2334,-2.2334,-2.2334,-2.2334,-2.2334,-2.2334,-2.2334,-2.2334,-2.2334,-2.2334,-2.204,-2.1885,-2.1666,-2.121,-2.0904,-1.0711,-1.0779,-1.089,-1.0931,-1.1101,-1.1261,-1.1261,-1.1175,-1.1121,-1.0911,-1.0863,-1.0962,-1.1107,-1.1151,-1.1297,-1.1704,-1.1789,-1.1803,-1.1803,-1.1918,-1.1955,-1.182,-1.1803,-1.1857,-1.1989,-1.1881,-1.1803,-1.1803,-1.1803,-1.1748,-1.1626,-1.1619,-1.1619,-1.1619,-1.1636,-1.1704,-1.183,-1.2135,-1.2291,-1.2291,-1.2433,-1.2501,-1.2501,-1.2501,-1.2501,-1.2501,-1.2501,-1.2501,-1.2501,-1.2501,-1.2501,-1.2501,-1.2501,-1.2501,-1.2501,-1.2501,-1.2501,-1.2501,-1.2501,-1.2501,-1.2501,-1.2501,-1.2501,-1.2501,-1.2501,-1.2501,-1.2501,-1.2501,-1.2501,-1.2501,-1.2501,-1.2501,-1.2501,-1.2501,-1.2501,-1.2501,-1.2501,-1.2501,-1.2501,-1.2501,-1.2656,-1.273,-1.2579,-1.3799,-1.4406,-1.3035,-1.5246,-1.7227,-1.7683,-1.8976,-2.0425,-2.2103,-2.2334,-2.2334,-2.2334,-2.2334,-2.2334,-2.2334,-2.2334,-2.2334,-2.2334,-2.2334,-2.2334,-2.2334,-2.2334,-2.2334,-2.2334,-2.2334,-2.2109,-2.1816,-2.1741,-2.1516,-1.0799,-1.086,-1.0938,-1.1253,-1.1331,-1.1352,-1.1352,-1.1253,-1.1121,-1.0911,-1.0782,-1.0806,-1.0958,-1.1084,-1.1229,-1.1433,-1.1572,-1.1657,-1.1657,-1.1681,-1.1687,-1.166,-1.1657,-1.1667,-1.1694,-1.1674,-1.1657,-1.1657,-1.1657,-1.1647,-1.1619,-1.1619,-1.1619,-1.1619,-1.1735,-1.1806,-1.183,-1.2135,-1.2291,-1.2291,-1.2433,-1.2501,-1.2501,-1.2501,-1.2501,-1.2501,-1.2501,-1.2501,-1.2501,-1.2501,-1.2501,-1.2501,-1.2501,-1.2501,-1.2501,-1.2501,-1.2501,-1.2501,-1.2501,-1.2501,-1.2501,-1.2501,-1.2501,-1.2501,-1.2501,-1.2501,-1.2501,-1.2501,-1.2501,-1.2501,-1.2501,-1.2501,-1.2501,-1.2501,-1.2501,-1.2501,-1.2501,-1.2501,-1.2501,-1.2501,-1.3568,-1.4026,-1.273,-1.3799,-1.4786,-1.456,-1.4944,-1.6312,-1.9051,-1.9661,-2.0425,-2.2103,-2.2334,-2.2334,-2.2334,-2.2334,-2.2334,-2.2334,-2.2334,-2.2334,-2.2334,-2.2334,-2.2334,-2.2334,-2.2334,-2.2334,-2.2334,-2.2334,-2.2259,-2.219,-2.1816,-2.1666,-1.0714,-1.088,-1.1094,-1.1236,-1.1392,-1.1467,-1.1307,-1.1216,-1.1097,-1.0877,-1.0772,-1.0768,-1.0853,-1.1006,-1.1101,-1.125,-1.1467,-1.1592,-1.1511,-1.1633,-1.1701,-1.163,-1.1619,-1.1619,-1.1619,-1.1619,-1.1619,-1.1619,-1.1619,-1.1619,-1.1619,-1.1619,-1.1619,-1.1619,-1.1684,-1.1755,-1.183,-1.2057,-1.221,-1.2291,-1.2433,-1.2501,-1.2501,-1.2501,-1.2501,-1.2501,-1.2501,-1.2501,-1.2501,-1.2501,-1.2501,-1.2501,-1.2501,-1.2501,-1.2501,-1.2501,-1.2501,-1.2501,-1.2501,-1.2501,-1.2501,-1.2501,-1.2501,-1.2501,-1.2501,-1.2501,-1.2501,-1.2501,-1.2501,-1.2501,-1.2501,-1.2501,-1.2501,-1.2501,-1.2501,-1.2501,-1.2501,-1.2501,-1.2501,-1.2501,-1.3799,-1.4637,-1.3872,-1.5093,-1.6236,-1.6236,-1.6922,-1.7986,-1.9585,-2.0575,-2.1418,-2.2184,-2.2334,-2.2334,-2.2334,-2.2334,-2.2334,-2.2334,-2.2334,-2.2334,-2.2334,-2.2334,-2.2334,-2.2334,-2.2334,-2.2334,-2.2334,-2.2334,-2.2334,-2.2334,-2.2115,-2.204,-1.0668,-1.0846,-1.1124,-1.1155,-1.1369,-1.1491,-1.1185,-1.1141,-1.1077,-1.0782,-1.0721,-1.0768,-1.0853,-1.0853,-1.0958,-1.1134,-1.1338,-1.1457,-1.1399,-1.1589,-1.1708,-1.163,-1.1619,-1.1619,-1.1619,-1.1619,-1.1619,-1.1619,-1.1619,-1.1619,-1.1619,-1.1619,-1.1619,-1.1619,-1.165,-1.1704,-1.1786,-1.2003,-1.2155,-1.2244,-1.242,-1.2501,-1.2501,-1.2501,-1.2501,-1.2501,-1.2501,-1.2501,-1.2501,-1.2501,-1.2501,-1.2501,-1.2501,-1.2501,-1.2501,-1.2501,-1.2501,-1.2501,-1.2501,-1.2501,-1.2501,-1.2501,-1.2501,-1.2501,-1.2501,-1.2501,-1.2501,-1.2501,-1.2501,-1.2501,-1.2501,-1.2501,-1.2501,-1.2501,-1.2501,-1.2501,-1.2501,-1.2501,-1.2575,-1.2962,-1.4333,-1.5323,-1.494,-1.6617,-1.7834,-1.7455,-1.8749,-1.9967,-2.0269,-2.1499,-2.2334,-2.2334,-2.2334,-2.2334,-2.2334,-2.2334,-2.2334,-2.2334,-2.2334,-2.2334,-2.2334,-2.2334,-2.2334,-2.2334,-2.2334,-2.2334,-2.2334,-2.2334,-2.2334,-2.2334,-2.2334,-2.2334,-1.09,-1.087,-1.0999,-1.1131,-1.129,-1.1335,-1.0968,-1.107,-1.1077,-1.0782,-1.0721,-1.0768,-1.0853,-1.0766,-1.0833,-1.1118,-1.1077,-1.1097,-1.1355,-1.1413,-1.148,-1.1603,-1.1619,-1.1619,-1.1619,-1.1619,-1.1619,-1.1619,-1.1619,-1.1619,-1.1619,-1.1619,-1.1619,-1.1619,-1.1745,-1.1755,-1.164,-1.2057,-1.2206,-1.2088,-1.2369,-1.2501,-1.2501,-1.2501,-1.2501,-1.2501,-1.2501,-1.2501,-1.2501,-1.2501,-1.2501,-1.2501,-1.2501,-1.2501,-1.2501,-1.2501,-1.2501,-1.2501,-1.2501,-1.2501,-1.2501,-1.2501,-1.2501,-1.2501,-1.2501,-1.2501,-1.2501,-1.2501,-1.2501,-1.2501,-1.2501,-1.2501,-1.2501,-1.2501,-1.2501,-1.2501,-1.2501,-1.2501,-1.2958,-1.441,-1.6007,-1.6694,-1.5169,-1.7526,-1.9051,-1.7607,-1.8749,-2.0349,-2.1873,-2.2184,-2.2334,-2.2334,-2.2334,-2.2334,-2.2334,-2.2334,-2.2334,-2.2334,-2.2334,-2.2334,-2.2334,-2.2334,-2.2334,-2.2334,-2.2334,-2.2334,-2.2334,-2.2334,-2.2334,-2.2334,-2.2334,-2.2334,-1.0925,-1.0874,-1.0894,-1.1019,-1.1216,-1.1314,-1.0948,-1.106,-1.1077,-1.0782,-1.0721,-1.0741,-1.0799,-1.0761,-1.0758,-1.0877,-1.0999,-1.1151,-1.1362,-1.1545,-1.1677,-1.1738,-1.1745,-1.1711,-1.163,-1.1619,-1.1619,-1.1619,-1.1619,-1.1619,-1.1619,-1.1619,-1.1619,-1.1619,-1.1674,-1.1718,-1.1745,-1.2016,-1.2169,-1.2203,-1.2406,-1.2501,-1.2501,-1.2501,-1.2501,-1.2501,-1.2501,-1.2501,-1.2501,-1.2501,-1.2501,-1.2501,-1.2501,-1.2501,-1.2501,-1.2501,-1.2501,-1.2501,-1.2501,-1.2501,-1.2501,-1.2501,-1.2501,-1.2501,-1.2501,-1.2501,-1.2501,-1.2501,-1.2501,-1.2501,-1.2501,-1.2501,-1.2501,-1.2501,-1.2501,-1.2501,-1.2501,-1.2501,-1.2958,-1.456,-1.6236,-1.7531,-1.7834,-1.9736,-2.1112,-2.0425,-2.0881,-2.1568,-2.2184,-2.2334,-2.2334,-2.2334,-2.2334,-2.2334,-2.2334,-2.2334,-2.2334,-2.2334,-2.2334,-2.2334,-2.2334,-2.2334,-2.2334,-2.2334,-2.2334,-2.2334,-2.2334,-2.2334,-2.2334,-2.2334,-2.2334,-2.2334,-1.1111,-1.0964,-1.0956,-1.1004,-1.1139,-1.1192,-1.087,-1.0992,-1.1012,-1.0714,-1.0687,-1.0707,-1.066,-1.069,-1.0721,-1.0721,-1.0894,-1.1084,-1.124,-1.1514,-1.1701,-1.1701,-1.1779,-1.1775,-1.1633,-1.1619,-1.1619,-1.1619,-1.1619,-1.1619,-1.1619,-1.166,-1.1664,-1.1619,-1.166,-1.1731,-1.183,-1.203,-1.2182,-1.2291,-1.2433,-1.2501,-1.2501,-1.2501,-1.2501,-1.2501,-1.2501,-1.2501,-1.2501,-1.2501,-1.2501,-1.2501,-1.2501,-1.2501,-1.2501,-1.2501,-1.2501,-1.2501,-1.2501,-1.2501,-1.2501,-1.2501,-1.2501,-1.2501,-1.2501,-1.2501,-1.2501,-1.2501,-1.2501,-1.2501,-1.2501,-1.2501,-1.2501,-1.2501,-1.2501,-1.2501,-1.2501,-1.2884,-1.3722,-1.5323,-1.6998,-1.8441,-1.9585,-2.1187,-2.2109,-2.1648,-2.1954,-2.2334,-2.2334,-2.2334,-2.2334,-2.2334,-2.2334,-2.2334,-2.2334,-2.2334,-2.2334,-2.2334,-2.2334,-2.2334,-2.2334,-2.2334,-2.2334,-2.2334,-2.2334,-2.2334,-2.2334,-2.2334,-2.2334,-2.2334,-2.2334,-2.2334,-1.1502,-1.1268,-1.1052,-1.1146,-1.1041,-1.0847,-1.0758,-1.0843,-1.0796,-1.0558,-1.0616,-1.0673,-1.0521,-1.0619,-1.0721,-1.0721,-1.0721,-1.0778,-1.0863,-1.1209,-1.1396,-1.1396,-1.1653,-1.1775,-1.1633,-1.1619,-1.1619,-1.1619,-1.1619,-1.1619,-1.1619,-1.1752,-1.1765,-1.1623,-1.1755,-1.183,-1.183,-1.2135,-1.2288,-1.2291,-1.2433,-1.2501,-1.2501,-1.2501,-1.2501,-1.2501,-1.2501,-1.2501,-1.2501,-1.2501,-1.2501,-1.2501,-1.2501,-1.2501,-1.2501,-1.2501,-1.2501,-1.2501,-1.2501,-1.2501,-1.2501,-1.2501,-1.2501,-1.2501,-1.2501,-1.2501,-1.2501,-1.2501,-1.2501,-1.2501,-1.2501,-1.2501,-1.2501,-1.2501,-1.2501,-1.2501,-1.2501,-1.3722,-1.5399,-1.7074,-1.8673,-1.9811,-1.9811,-2.1187,-2.1723,-2.0118,-2.1262,-2.2334,-2.2334,-2.2334,-2.2334,-2.2334,-2.2334,-2.2334,-2.2334,-2.2334,-2.2334,-2.2334,-2.2334,-2.2334,-2.2334,-2.2334,-2.2334,-2.2334,-2.2334,-2.2334,-2.2334,-2.2334,-2.2334,-2.2334,-2.2334,-2.2334,-1.1478,-1.134,-1.1122,-1.0984,-1.0918,-1.0861,-1.0517,-1.0531,-1.0582,-1.0388,-1.0385,-1.0436,-1.0483,-1.0531,-1.0599,-1.0704,-1.0721,-1.0809,-1.106,-1.1355,-1.1548,-1.1548,-1.163,-1.167,-1.1623,-1.1619,-1.1619,-1.1619,-1.1619,-1.1619,-1.1619,-1.1752,-1.1809,-1.1765,-1.1911,-1.2037,-1.2145,-1.224,-1.2338,-1.2433,-1.2481,-1.2501,-1.2501,-1.2501,-1.2501,-1.2501,-1.2501,-1.2501,-1.2494,-1.2396,-1.2355,-1.2345,-1.224,-1.2199,-1.2199,-1.2199,-1.2199,-1.2199,-1.2199,-1.2199,-1.2199,-1.2199,-1.2199,-1.222,-1.2325,-1.2423,-1.2501,-1.2501,-1.2501,-1.2501,-1.2501,-1.2501,-1.2501,-1.2501,-1.2501,-1.2807,-1.3876,-1.456,-1.5701,-1.8517,-1.9434,-2.0193,-2.1343,-2.1954,-2.2103,-2.1574,-2.1954,-2.2334,-2.2334,-2.2334,-2.2334,-2.2334,-2.2334,-2.2334,-2.2334,-2.2334,-2.2334,-2.2334,-2.2334,-2.2334,-2.2334,-2.2334,-2.2334,-2.2334,-2.2334,-2.2334,-2.2334,-2.2334,-2.2334,-2.2334,-2.2334,-2.2334,-1.1642,-1.1491,-1.1273,-1.1024,-1.0984,-1.0838,-1.0428,-1.0348,-1.0371,-1.0222,-1.0239,-1.0307,-1.0395,-1.0456,-1.0541,-1.0697,-1.0721,-1.0785,-1.0968,-1.1257,-1.1491,-1.1606,-1.1619,-1.1619,-1.1619,-1.1619,-1.1619,-1.1619,-1.1619,-1.1643,-1.1697,-1.1782,-1.1857,-1.1915,-1.2067,-1.2193,-1.2288,-1.2342,-1.2413,-1.2501,-1.2447,-1.2423,-1.242,-1.2362,-1.2335,-1.2335,-1.2335,-1.2335,0.0,-1.224,-1.2203,-1.2196,-1.2098,-1.2135,-1.2135,-1.2135,-1.2135,-1.2135,-1.2135,-1.2135,-1.2135,-1.2135,-1.2135,-1.2155,-1.2176,-1.2342,-1.2501,-1.2501,-1.2501,-1.2501,-1.2501,-1.2501,-1.2652,-1.3263,-1.3417,-1.3876,-1.5476,-1.6312,-1.7379,-1.9434,-2.0274,-2.1037,-2.2103,-2.2334,-2.2334,-2.2334,-2.2334,-2.2334,-2.2334,-2.2334,-2.2334,-2.2334,-2.2334,-2.2334,-2.2334,-2.2334,-2.2334,-2.2334,-2.2334,-2.2334,-2.2334,-2.2334,-2.2334,-2.2334,-2.2334,-2.2334,-2.2334,-2.2334,-2.2334,-2.2334,-2.2334,-2.2334,0.0,-1.1765,-1.1495,-1.128,-1.1006,-1.0689,-1.0376,-1.0249,0.0,-1.0,-1.0148,-1.0253,-1.0276,-1.0388,-1.0531,-1.0694,-1.0721,-1.0721,-1.0721,-1.0975,-1.128,-1.1596,-1.1626,-1.1623,-1.1633,-1.1626,-1.1619,-1.1619,-1.1619,-1.1677,-1.1809,-1.1826,-1.1898,-1.204,-1.2193,-1.2274,-1.2274,-1.2406,-1.2471,-1.2467,-1.2335,-1.2274,-1.2271,-1.2128,-1.2135,-1.2135,-1.2135,-1.2135,-1.2135,-1.205,-1.2047,-1.2043,-1.2033,-1.203,-1.203,-1.203,-1.203,-1.203,-1.203,-1.203,-1.203,-1.203,-1.2037,-1.2118,-1.2192,-1.2319,-1.2471,-1.2471,-1.2478,-1.2484,-1.2484,-1.2572,-1.3035,-1.456,-1.5016,-1.5552,-1.7227,-1.8749,-1.9811,-1.9962,-2.1268,-2.2334,-2.2334,-2.2334,-2.2334,-2.2334,-2.2334,-2.2334,-2.2334,-2.2334,-2.2334,-2.2334,-2.2334,-2.2334,-2.2334,-2.2334,-2.2334,-2.2334,-2.2334,-2.2334,-2.2334,-2.2334,-2.2334,-2.2334,-2.2334,-2.2334,-2.2334,-2.2334,-2.2334,-2.2334,-2.2334,-2.2334,-1.1825,0.0,-1.1602,-1.1019,-1.0847,-1.0663,0.0,-0.9927,-0.9917,-0.9883,-0.9903,-1.0002,-1.0236,-1.0307,-1.0415,-1.0677,-1.0721,-1.0721,-1.0721,-1.0975,-1.1318,-1.1731,-1.1684,-1.166,-1.1772,-1.1684,-1.1619,-1.1619,-1.1619,-1.1633,-1.1667,-1.1772,-1.1847,-1.1884,-1.2033,-1.2118,-1.2118,-1.2149,-1.2166,-1.2166,-1.2132,-1.2118,-1.2115,-1.2077,-1.2135,-1.2135,-1.2135,-1.2135,-1.2054,-1.1935,-1.1884,-1.1874,-1.1765,-1.1725,-1.1725,-1.1725,-1.1725,-1.1725,-1.1725,-1.1725,-1.1725,-1.1725,-1.1796,-1.2105,-1.3271,-1.2974,-1.2166,-1.2166,-1.225,-1.2338,-1.2338,-1.333,-1.4406,-1.4786,-1.5854,-1.7227,-1.89,-1.951,-2.0193,-2.1493,-2.2029,-2.2334,-2.2334,-2.2334,-2.2334,-2.2334,-2.2334,-2.2334,-2.2334,-2.2334,-2.2334,-2.2334,-2.2334,-2.2334,-2.2334,-2.2334,-2.2334,-2.2334,-2.2334,-2.2334,-2.2334,-2.2334,-2.2334,-2.2334,-2.2334,-2.2334,-2.2334,-2.2334,-2.2334,-2.2334,-2.2334,-2.2334,-1.1776,-1.1776,-1.1651,-1.0974,-1.0789,-1.0607,-0.994,-0.9822,-0.9822,-0.9822,-0.9822,-0.9914,-1.0226,-1.028,-1.0378,-1.0673,-1.0778,-1.0578,-0.9894,-1.0763,-1.115,-1.0662,-1.124,-1.1721,-1.1731,-1.1664,-1.1619,-1.1619,-1.1619,-1.1647,-1.1711,-1.1728,-1.1765,-1.183,-1.185,-1.1925,-1.2135,-1.2135,-1.2135,-1.2135,-1.1989,-1.1955,-1.1952,-1.1887,-1.1857,-1.1857,-1.1857,-1.1857,-1.1853,-1.1769,-1.1735,-1.1728,-1.165,-1.1619,-1.1619,-1.1619,-1.1619,-1.1619,-1.1619,-1.1619,-1.1691,-1.2398,-1.2665,-1.302,-1.4593,-1.452,-1.3986,-1.415,-1.3674,-1.339,-1.4216,-1.5131,-1.605,-1.6975,-1.7834,-1.8976,-2.0575,-2.0956,-2.1187,-2.2103,-2.2334,-2.2334,-2.2334,-2.2334,-2.2334,-2.2334,-2.2334,-2.2334,-2.2334,-2.2334,-2.2334,-2.2334,-2.2334,-2.2334,-2.2334,-2.2334,-2.2334,-2.2334,-2.2334,-2.2334,-2.2334,-2.2334,-2.2334,-2.2334,-2.2334,-2.2334,-2.2334,-2.2334,-2.2334,-2.2334,-2.2334,-2.2334,-1.1776,-1.1776,-1.1651,-1.1035,-1.0849,-1.0668,-1.0004,-0.9819,-0.9822,-0.9822,-0.9822,-0.992,-1.0253,-1.0314,-1.0419,-1.0738,-1.0897,-1.0542,-0.9339,-1.0552,-1.1038,-0.9646,-1.0844,-1.1759,-1.166,-1.1633,-1.1619,-1.1619,-1.1619,-1.1674,-1.1792,-1.1684,-1.1674,-1.1796,-1.1684,-1.1738,-1.1993,-1.1996,-1.1996,-1.1993,-1.186,-1.1799,-1.1792,-1.1674,-1.1619,-1.1619,-1.1619,-1.1619,-1.1619,-1.1619,-1.1619,-1.1619,-1.1619,-1.1619,-1.1619,-1.1619,-1.1619,-1.1619,-1.1619,-1.176,-1.2187,-1.3456,-1.4022,-1.4516,-1.599,-1.6272,-1.6278,-1.7005,-1.5958,-1.499,-1.649,-1.708,-1.7753,-1.9329,-1.9913,-2.053,-2.1948,-2.2334,-2.2334,-2.2334,-2.2334,-2.2334,-2.2334,-2.2334,-2.2321,-2.2285,-2.2279,-2.2186,-2.2144,-2.2212,-2.2212,-2.2212,-2.2212,-2.2212,-2.2212,-2.2212,-2.2212,-2.2212,-2.2217,-2.2334,-2.2334,-2.2334,-2.2334,-2.2334,-2.2334,-2.2334,-2.2334,-2.2334,-2.2334,-2.2334,-2.2334,-2.2334,-1.1776,-1.1776,-1.1712,-1.1337,-1.1031,-1.0728,-1.0304,-1.0001,-0.9822,-0.9822,-0.9822,-0.9951,-1.0382,-1.046,-1.0599,-1.1026,-1.1114,-1.1069,-1.0879,-1.1174,-1.1393,-1.1211,-1.1479,-1.1691,-1.1789,-1.1691,-1.1619,-1.1619,-1.1619,-1.163,-1.165,-1.1633,-1.163,-1.165,-1.163,-1.164,-1.1687,-1.1687,-1.1687,-1.1687,-1.1664,-1.165,-1.165,-1.163,-1.1619,-1.1619,-1.1619,-1.1619,-1.1619,-1.1619,-1.1619,-1.1619,-1.1619,-1.1619,-1.1619,-1.1619,-1.1619,-1.1619,-1.1619,-1.247,-1.3599,-1.3808,-1.4725,-1.6065,-1.7554,-1.7127,-1.6639,-1.9341,-1.8157,-1.6143,-1.6398,-1.7559,-1.8785,-1.9313,-2.0569,-2.1692,-2.2211,-2.2334,-2.2334,-2.2334,-2.2334,-2.2334,-2.2334,-2.2334,-2.2186,-2.1963,-2.1927,-2.1848,-2.1631,-2.1601,-2.1601,-2.1601,-2.1601,-2.1601,-2.1601,-2.1601,-2.1601,-2.1601,-2.2017,-2.2334,-2.2334,-2.2334,-2.2334,-2.2334,-2.2334,-2.2334,-2.2334,-2.2334,-2.2334,-2.2334,-2.2334,-2.2334,-1.1776,-1.1776,-1.1797,-1.1699,-1.1343,-1.097,-1.0668,-1.0425,-1.0304,-1.0122,-1.0131,-1.0243,-1.0487,-1.049,-1.0639,-1.109,-1.1231,-1.0938,-1.0245,-1.1028,-1.1335,-1.0452,-1.1174,-1.1728,-1.1718,-1.1657,-1.1619,-1.1619,-1.1619,-1.1619,-1.1619,-1.1619,-1.1619,-1.1619,-1.1619,-1.1619,-1.1619,-1.1619,-1.1619,-1.1619,-1.1619,-1.1619,-1.1619,-1.1619,-1.1619,-1.1619,-1.1619,-1.1619,-1.1619,-1.1619,-1.1619,-1.1619,-1.1619,-1.1619,-1.1619,-1.1619,-1.1619,-1.1691,-1.2538,-1.3317,-1.4164,-1.5792,-1.6775,-1.7624,-1.9181,-1.9175,-1.889,-2.0312,-1.9125,-1.7739,-1.8724,-1.9558,-2.0224,-2.0482,-2.124,-2.1903,-2.2023,-2.2237,-2.2334,-2.2334,-2.2144,-2.2048,-2.2048,-2.1933,-2.18,-2.1679,-2.1655,-2.1619,-2.1498,-2.148,-2.148,-2.148,-2.148,-2.148,-2.148,-2.148,-2.148,-2.148,-2.1704,-2.1836,-2.1836,-2.1836,-2.1909,-2.2048,-2.2048,-2.2194,-2.2334,-2.2334,-2.2334,-2.2334,-2.2334,-2.2334,-1.1776,-1.1776,-1.1809,-1.1939,-1.165,-1.1282,-1.108,-1.0969,-1.0843,-1.0602,-1.0605,-1.0559,-1.0277,-1.0188,-1.0261,-1.0626,-1.0984,-1.0944,-0.9941,-1.0885,-1.1286,-0.9913,-1.096,-1.1725,-1.1582,-1.1599,-1.1619,-1.1619,-1.1619,-1.1619,-1.1619,-1.1619,-1.1619,-1.1619,-1.1619,-1.1619,-1.1619,-1.1619,-1.1619,-1.1619,-1.1619,-1.1619,-1.1619,-1.1619,-1.1619,-1.1619,-1.1619,-1.1619,-1.1619,-1.1619,-1.1619,-1.1619,-1.1619,-1.1619,-1.1619,-1.2043,-1.2115,-1.2327,-1.388,-1.4658,-1.5296,-1.763,-1.8622,-1.9181,-2.0312,-2.0665,-2.0665,-2.0665,-1.982,-1.9226,-2.0632,-2.1038,-2.1034,-2.1311,-2.1535,-2.1698,-2.1764,-2.1987,-2.2225,-2.209,-2.1963,-2.1848,-2.1788,-2.1613,-2.1456,-2.139,-2.1384,-2.136,-2.1299,-2.1287,-2.1287,-2.1287,-2.1287,-2.1287,-2.1287,-2.1287,-2.1287,-2.1287,-2.1408,-2.148,-2.148,-2.148,-2.1577,-2.1776,-2.1782,-2.1879,-2.2078,-2.2078,-2.2078,-2.2078,-2.2078,-2.2078,-1.1776,-1.1776,-1.178,-1.1792,-1.1658,-1.1557,-1.1662,-1.1511,-1.1258,-1.1258,-1.1062,-1.061,-0.949,-0.9253,-0.917,-0.9159,-1.0439,-1.1382,-1.1261,-1.1467,-1.1507,-1.1281,-1.147,-1.1575,-1.1423,-1.1538,-1.1619,-1.1619,-1.1619,-1.1619,-1.1619,-1.1619,-1.1619,-1.1619,-1.1619,-1.1619,-1.1619,-1.1619,-1.1619,-1.1619,-1.1619,-1.1619,-1.1619,-1.1619,-1.1619,-1.1619,-1.1619,-1.1619,-1.1619,-1.1619,-1.1619,-1.1619,-1.1619,-1.1619,-1.176,-1.3174,-1.3737,-1.3951,-1.5429,-1.6916,-1.8126,-1.8336,-1.9396,-2.0527,-2.0665,-2.0665,-2.0665,-2.0665,-2.0596,-2.0533,-2.069,-2.0696,-2.0832,-2.1098,-2.1177,-2.1262,-2.145,-2.1716,-2.183,-2.1583,-2.1716,-2.1794,-2.1553,-2.1492,-2.139,-2.1201,-2.1159,-2.1074,-2.0762,-2.0726,-2.0726,-2.0726,-2.0726,-2.0726,-2.0726,-2.0726,-2.0726,-2.0726,-2.1203,-2.148,-2.148,-2.148,-2.1486,-2.151,-2.151,-2.1516,-2.1535,-2.1535,-2.1535,-2.1535,-2.1535,-2.1535,-1.1776,-1.1853,-1.1775,-1.1258,-1.108,-1.1051,-1.0952,-1.0391,-0.9885,-0.9634,-1.0003,-0.9989,-0.8979,-0.9719,-1.0037,-0.9015,-1.0097,-1.1148,-1.1236,-1.1301,-1.1314,-1.1257,-1.1301,-1.1311,-1.1253,-1.1301,-1.1375,-1.147,-1.1477,-1.1518,-1.1613,-1.1619,-1.1619,-1.1619,-1.1619,-1.1619,-1.1619,-1.1619,-1.1619,-1.1619,-1.1619,-1.1619,-1.1619,-1.1619,-1.1619,-1.1619,-1.1619,-1.1619,-1.1619,-1.1619,-1.1619,-1.1691,-1.2681,-1.3035,-1.3174,-1.4725,-1.5287,-1.55,-1.6987,-1.791,-1.8552,-1.9535,-2.0243,-2.0665,-2.0665,-2.0665,-2.0665,-2.0665,-2.0665,-2.0665,-2.0665,-2.0665,-2.0765,-2.0862,-2.1013,-2.111,-2.0985,-2.1178,-2.1287,-2.1028,-2.1052,-2.1088,-2.0991,-2.0973,-2.0937,-2.0898,-2.0886,-2.078,-2.0684,-2.0665,-2.0665,-2.0665,-2.0665,-2.0665,-2.0665,-2.0665,-2.0665,-2.0665,-2.0859,-2.0973,-2.0973,-2.0973,-2.1052,-2.1215,-2.1215,-2.1305,-2.148,-2.148,-2.148,-2.148,-2.148,-2.148,-1.1776,-1.1902,-1.1809,-1.0855,-1.045,-1.024,-0.97,-0.9399,-0.9127,-0.8916,-0.8762,-0.8539,-0.805,-0.8919,-0.9532,-0.8834,-0.9952,-1.0982,-1.108,-1.1134,-1.1148,-1.1101,-1.1134,-1.1214,-1.1101,-1.1134,-1.1206,-1.1311,-1.1318,-1.1365,-1.147,-1.1474,-1.1497,-1.1545,-1.1548,-1.1569,-1.1619,-1.1619,-1.1619,-1.1619,-1.1619,-1.1619,-1.1619,-1.1619,-1.1619,-1.1619,-1.1619,-1.1903,-1.2327,-1.2327,-1.261,-1.3103,-1.416,-1.4583,-1.4796,-1.6277,-1.6841,-1.7052,-1.8616,-1.9117,-1.9326,-2.0382,-2.0665,-2.0665,-2.0665,-2.0665,-2.0665,-2.0665,-2.0665,-2.0665,-2.0665,-2.0665,-2.0665,-2.0665,-2.0814,-2.0832,-2.0581,-2.0753,-2.0801,-2.0472,-2.049,-2.0545,-2.0545,-2.0545,-2.0575,-2.0653,-2.0665,-2.0665,-2.0665,-2.0665,-2.0665,-2.0665,-2.0665,-2.0665,-2.0665,-2.0665,-2.0665,-2.0665,-2.0665,-2.0665,-2.0665,-2.0665,-2.0826,-2.1001,-2.0937,-2.1028,-2.1221,-2.1221,-2.1221,-2.1221,-2.1221,-2.1221,-1.178,-1.1902,-1.1723,-1.067,-0.9882,-0.9116,-0.8013,-0.8632,-0.9407,-0.9478,-0.7598,-0.6123,-0.6586,-0.6572,-0.6988,-0.8347,-0.9896,-1.0877,-1.088,-1.1067,-1.1104,-1.0894,-1.107,-1.1101,-1.089,-1.1077,-1.1227,-1.1231,-1.1231,-1.1231,-1.1231,-1.1231,-1.1233,-1.1385,-1.1389,-1.1463,-1.1616,-1.1616,-1.1616,-1.1619,-1.1619,-1.1619,-1.1619,-1.1619,-1.1619,-1.1619,-1.1619,-1.247,-1.3951,-1.3951,-1.4796,-1.6131,-1.6131,-1.6131,-1.6343,-1.784,-1.8406,-1.8622,-2.0173,-2.0665,-2.0665,-2.0665,-2.0665,-2.0665,-2.0665,-2.0665,-2.0665,-2.0665,-2.0665,-2.0665,-2.0735,-2.0735,-2.0735,-2.0735,-2.046,-2.0273,-2.0273,-2.0273,-2.0195,-1.9929,-2.0092,-2.0273,-2.0273,-2.0273,-2.0364,-2.0623,-2.0665,-2.0665,-2.0665,-2.0665,-2.0665,-2.0665,-2.0665,-2.0665,-2.0665,-2.0665,-2.0665,-2.0665,-2.0665,-2.0665,-2.0665,-2.0665,-2.0665,-2.0665,-2.0665,-2.0665,-2.0665,-2.0665,-2.0665,-2.0665,-2.0665,-2.0665,-1.1955,-1.2174,-1.1956,-1.0159,-0.9574,-0.8986,-0.7164,-0.701,-0.7235,-0.7257,-0.6831,-0.618,-0.5214,-0.5871,-0.6729,-0.7082,-0.8321,-0.964,-1.0652,-1.0826,-1.0836,-1.0792,-1.0826,-1.0836,-1.0792,-1.0826,-1.0897,-1.1002,-1.1012,-1.1056,-1.1158,-1.1231,-1.1255,-1.1229,-1.1229,-1.1304,-1.1457,-1.146,-1.1511,-1.1619,-1.1619,-1.1619,-1.1619,-1.1619,-1.2187,-1.3246,-1.3246,-1.4093,-1.5429,-1.5429,-1.5707,-1.6202,-1.7268,-1.7695,-1.7905,-1.9465,-2.0034,-2.0104,-2.0527,-2.0665,-2.0665,-2.0665,-2.0665,-2.0665,-2.0665,-2.0665,-2.0665,-2.0665,-2.0665,-2.0623,-2.0442,-2.0394,-2.0394,-2.0394,-2.0195,-1.9947,-1.9748,-1.9772,-1.9627,-1.9368,-1.9525,-1.9772,-1.9772,-2.0026,-2.0303,-2.0382,-2.0551,-2.0665,-2.0665,-2.0665,-2.0665,-2.0665,-2.0665,-2.0665,-2.0665,-2.0665,-2.0665,-2.0665,-2.0665,-2.0665,-2.0665,-2.0665,-2.0665,-2.0665,-2.0665,-2.0665,-2.0665,-2.0665,-2.0665,-2.0665,-2.0665,-2.0665,-1.2028,-1.1972,-1.1523,-0.9831,-0.9151,-0.8456,-0.6716,-0.6054,-0.5777,-0.5532,-0.5419,-0.5122,-0.4447,-0.5093,-0.6083,-0.713,-0.8017,-0.9108,-1.0518,-1.0721,-1.0721,-1.0721,-1.0721,-1.0721,-1.0721,-1.0721,-1.0758,-1.0782,-1.0789,-1.0897,-1.0982,-1.0989,-1.1016,-1.1077,-1.1077,-1.1148,-1.1301,-1.1362,-1.1436,-1.1531,-1.2226,-1.2538,-1.2538,-1.2538,-1.3035,-1.3951,-1.5155,-1.6211,-1.7052,-1.7689,-1.79,-1.804,-1.8966,-1.9326,-1.9396,-2.0382,-2.0665,-2.0665,-2.0665,-2.0665,-2.0665,-2.0665,-2.0665,-2.0665,-2.0665,-2.0665,-2.0665,-2.0665,-2.0593,-2.0478,-2.0321,-2.0116,-1.9983,-2.0098,-1.9917,-1.9676,-1.9501,-1.9451,-1.9265,-1.9102,-1.9205,-1.9344,-1.9512,-1.9736,-2.0026,-2.0243,-2.0496,-2.0665,-2.0665,-2.0665,-2.0665,-2.0665,-2.0665,-2.0665,-2.0665,-2.0665,-2.0665,-2.0665,-2.0665,-2.0665,-2.0665,-2.0665,-2.0665,-2.0665,-2.0665,-2.0665,-2.0665,-2.0665,-2.0665,-2.0665,-2.0665,-2.0665,-1.2052,-1.1542,-1.075,-0.9652,-0.8626,-0.7621,-0.6545,-0.5737,-0.5011,-0.4341,-0.3698,-0.3481,-0.3968,-0.4139,-0.5043,-0.7922,-0.8374,-0.8909,-1.0452,-1.0721,-1.0721,-1.0721,-1.0721,-1.0721,-1.0721,-1.0721,-1.0721,-1.0721,-1.0721,-1.0721,-1.0721,-1.0721,-1.0782,-1.0857,-1.086,-1.0995,-1.1141,-1.128,-1.1432,-1.16,-1.3145,-1.3935,-1.4093,-1.4093,-1.4164,-1.4445,-1.7343,-1.8622,-1.8692,-2.0104,-2.0665,-2.0665,-2.0665,-2.0665,-2.0665,-2.0665,-2.0665,-2.0665,-2.0665,-2.0665,-2.0665,-2.0665,-2.0665,-2.0665,-2.0665,-2.0665,-2.0659,-2.0641,-2.046,-2.0267,-2.0213,-1.9905,-1.959,-1.9754,-1.9615,-1.9428,-1.9428,-1.9247,-1.9078,-1.9078,-1.9078,-1.9151,-1.9386,-1.9452,-1.9652,-2.0195,-2.0478,-2.0641,-2.0735,-2.0665,-2.0665,-2.0665,-2.0665,-2.0665,-2.0665,-2.0665,-2.0665,-2.0665,-2.0665,-2.0665,-2.0665,-2.0665,-2.0665,-2.0665,-2.0665,-2.0665,-2.0665,-2.0665,-2.0665,-2.0665,-2.0665,-2.0665,-1.2207,-1.1633,-1.0777,-0.9773,-0.8163,-0.6782,-0.6496,-0.5889,-0.5124,-0.4295,-0.3644,-0.3095,-0.2654,-0.2612,-0.3575,-0.6437,-0.69,-0.7769,-1.0316,-1.0721,-1.0721,-1.0721,-1.0721,-1.0721,-1.0721,-1.0721,-1.0721,-1.0721,-1.0721,-1.0721,-1.0721,-1.0721,-1.0734,-1.0768,-1.0768,-1.0843,-1.0992,-1.0958,-1.1772,-1.3192,-1.3578,-1.4367,-1.5637,-1.5637,-1.6282,-1.7559,-1.9396,-2.0243,-2.0243,-2.0527,-2.0665,-2.0665,-2.0665,-2.0665,-2.0665,-2.0665,-2.0665,-2.0665,-2.0665,-2.0665,-2.0665,-2.0665,-2.0665,-2.0665,-2.0665,-2.0665,-2.0623,-2.0418,-2.0321,-2.0183,-1.9754,-1.9621,-1.9428,-1.9283,-1.9205,-1.9163,-1.9163,-1.9114,-1.9078,-1.9078,-1.9078,-1.909,-1.9151,-1.9332,-1.9652,-2.0195,-2.0327,-2.0436,-2.0641,-2.0665,-2.0665,-2.0665,-2.0665,-2.0665,-2.0665,-2.0665,-2.0665,-2.0665,-2.0665,-2.0665,-2.0665,-2.0665,-2.0665,-2.0665,-2.0665,-2.0665,-2.0665,-2.0665,-2.0665,-2.0665,-2.0665,-2.0665,-1.2255,-1.1663,-1.0654,-0.9212,-0.765,-0.652,-0.652,-0.5647,-0.4753,-0.4288,-0.3661,-0.2953,-0.2267,-0.2745,-0.3897,-0.6032,-0.6967,-0.8238,-1.0386,-1.0721,-1.0721,-1.0721,-1.0721,-1.0721,-1.0721,-1.0721,-1.0721,-1.0721,-1.0721,-1.0721,-1.0721,-1.0721,-1.0721,-1.0721,-1.0721,-1.1122,-1.2015,-1.2025,-1.3005,-1.4792,-1.5584,-1.6802,-1.8256,-1.7549,-1.8045,-1.9535,-2.0382,-2.0665,-2.0665,-2.0665,-2.0665,-2.0665,-2.0665,-2.0665,-2.0665,-2.0665,-2.0665,-2.0665,-2.0665,-2.0665,-2.0665,-2.0665,-2.0665,-2.0647,-2.0521,-2.0484,-2.0424,-2.0165,-1.9989,-1.982,-1.9543,-1.9374,-1.9247,-1.9108,-1.9078,-1.9078,-1.9078,-1.9078,-1.9078,-1.9078,-1.9078,-1.9078,-1.9078,-1.9295,-1.9561,-1.9845,-2.0008,-2.014,-2.0279,-2.0406,-2.0484,-2.0484,-2.0593,-2.0665,-2.0665,-2.0665,-2.0665,-2.0665,-2.0665,-2.0665,-2.0665,-2.0665,-2.0665,-2.0665,-2.0665,-2.0665,-2.0665,-2.0665,-2.0665,-2.0665,-2.0665,-2.1075,-1.2211,-1.1641,-1.0589,-0.8745,-0.7514,-0.6786,-0.6786,-0.5843,-0.4903,-0.4702,-0.3966,-0.3228,-0.2692,-0.3697,-0.5101,-0.6566,-0.7836,-0.9108,-1.0518,-1.0721,-1.0721,-1.0721,-1.0721,-1.0721,-1.0721,-1.0721,-1.0721,-1.0721,-1.0721,-1.0721,-1.0721,-1.0721,-1.0797,-1.1154,-1.1154,-1.1955,-1.3591,-1.3747,-1.4671,-1.6323,-1.8015,-1.9465,-2.0665,-1.9396,-1.9465,-2.0665,-2.0665,-2.0665,-2.0665,-2.0665,-2.0665,-2.0665,-2.0665,-2.0665,-2.0665,-2.0665,-2.0665,-2.0665,-2.0665,-2.0665,-2.0659,-2.0617,-2.0599,-2.0551,-2.0291,-2.0207,-2.0152,-1.9893,-1.9645,-1.9524,-1.941,-1.9241,-1.9078,-1.9078,-1.9078,-1.9078,-1.9078,-1.9078,-1.9078,-1.9078,-1.9078,-1.9078,-1.9078,-1.9253,-1.9481,-1.9458,-1.9664,-1.9833,-1.9881,-2.0074,-2.0207,-2.0207,-2.0406,-2.0533,-2.0533,-2.0533,-2.0533,-2.0533,-2.0575,-2.0599,-2.0599,-2.0647,-2.0665,-2.0665,-2.0665,-2.0665,-2.0665,-2.0665,-2.0665,-2.0741,-2.0937,-2.1678,-1.202,-1.1549,-1.0719,-0.9675,-0.8579,-0.7779,-0.7779,-0.7643,-0.7243,-0.6307,-0.5104,-0.41,-0.4033,-0.5166,-0.6566,-0.8038,-0.844,-0.9108,-1.0518,-1.0721,-1.0721,-1.0721,-1.0721,-1.0721,-1.0721,-1.0721,-1.0721,-1.0721,-1.0721,-1.0721,-1.0721,-1.0721,-1.1371,-1.2838,-1.2842,-1.3663,-1.5339,-1.5372,-1.624,-1.7914,-1.9554,-2.0527,-2.0665,-2.0457,-2.0527,-2.0665,-2.0665,-2.0665,-2.0665,-2.0665,-2.0665,-2.0665,-2.0665,-2.0665,-2.0665,-2.0665,-2.0665,-2.0665,-2.0665,-2.0665,-2.0629,-2.0406,-2.0327,-2.0279,-2.0014,-1.9941,-1.9881,-1.9603,-1.956,-1.9481,-1.9187,-1.9102,-1.9078,-1.9078,-1.9078,-1.9078,-1.9078,-1.9078,-1.9078,-1.9078,-1.9078,-1.9078,-1.9078,-1.9102,-1.9205,-1.9499,-1.9501,-1.9609,-1.9857,-1.9917,-1.9941,-1.9941,-1.9971,-1.9989,-1.9989,-1.9989,-1.9989,-1.9989,-2.0201,-2.0327,-2.0327,-2.0551,-2.0665,-2.0665,-2.0665,-2.0665,-2.0665,-2.0665,-2.0665,-2.0735,-2.1947,-2.262,-1.1983,-1.153,-1.0897,-1.0503,-0.9654,-0.8911,-0.8911,-0.8576,-0.8174,-0.7707,-0.7436,-0.69,-0.57,-0.6747,-0.791,-0.8518,-0.9306,-1.0073,-1.0598,-1.0721,-1.0721,-1.0721,-1.0721,-1.0721,-1.0721,-1.0721,-1.0721,-1.0721,-1.0799,-1.0782,-1.0782,-1.1569,-1.2377,-1.3294,-1.4003,-1.5231,-1.7061,-1.7066,-1.7939,-1.9577,-2.0328,-2.0665,-2.0665,-2.0665,-2.0665,-2.0665,-2.0665,-2.0665,-2.0665,-2.0665,-2.0665,-2.0665,-2.0665,-2.0665,-2.0653,-2.0503,-2.0448,-2.0424,-2.0279,-2.0231,-2.0213,-2.0092,-2.0062,-2.0008,-1.9736,-1.9652,-1.9597,-1.9326,-1.9247,-1.9223,-1.9102,-1.9078,-1.9078,-1.9078,-1.9078,-1.9078,-1.9078,-1.9078,-1.9078,-1.9078,-1.9078,-1.9078,-1.9078,-1.9078,-1.9114,-1.9229,-1.9247,-1.9295,-1.9416,-1.9561,-1.9652,-1.9652,-1.979,-1.9947,-2.0092,-2.0104,-2.0165,-2.0315,-2.0436,-2.0496,-2.0496,-2.0605,-2.0665,-2.0665,-2.0665,-2.0665,-2.0665,-2.0665,-2.1144,-2.1878,-2.2483,-2.3699,-1.1983,-1.1658,-1.1294,-1.1379,-1.0702,-0.9934,-0.9968,-0.964,-0.9238,-0.9172,-0.9769,-0.9766,-0.7966,-0.8577,-0.9367,-0.9236,-1.0126,-1.0853,-1.0843,-1.0802,-1.0778,-1.0778,-1.0778,-1.0761,-1.0724,-1.0789,-1.0819,-1.0782,-1.1251,-1.1543,-1.1543,-1.2875,-1.3963,-1.4572,-1.5518,-1.6975,-1.8832,-1.8837,-1.9485,-2.0665,-2.0665,-2.0665,-2.0665,-2.0665,-2.0665,-2.0665,-2.0665,-2.0665,-2.0665,-2.0665,-2.0665,-2.0665,-2.0665,-2.0665,-2.0647,-2.0448,-2.0376,-2.0352,-2.0152,-2.0044,-1.9977,-1.9911,-1.9839,-1.973,-1.9452,-1.9368,-1.939,-1.9132,-1.9078,-1.9078,-1.9078,-1.9078,-1.9078,-1.9078,-1.9078,-1.9078,-1.9078,-1.9078,-1.9078,-1.9078,-1.9078,-1.9078,-1.9078,-1.9078,-1.9078,-1.9078,-1.9078,-1.9078,-1.9078,-1.9247,-1.9392,-1.9458,-1.9652,-1.9887,-2.0158,-2.0183,-2.0261,-2.0454,-2.0533,-2.0569,-2.0569,-2.0629,-2.0665,-2.0665,-2.1075,-2.1207,-2.1207,-2.1207,-2.1947,-2.3365,-2.3767,-2.5128,-1.1983,-1.1982,-1.2013,-1.2415,-1.1728,-1.0928,-1.1066,-1.1097,-1.0965,-1.0634,-1.1439,-1.1909,-1.1111,-1.0989,-1.1042,-1.0779,-1.0873,-1.0992,-1.1121,-1.1023,-1.087,-1.087,-1.087,-1.0813,-1.0734,-1.0975,-1.1084,-1.088,-1.2361,-1.3267,-1.3267,-1.476,-1.6279,-1.7882,-1.8013,-1.8826,-2.0572,-2.0572,-2.0584,-2.0665,-2.0665,-2.0665,-2.0665,-2.0665,-2.0665,-2.0665,-2.0665,-2.0665,-2.0665,-2.0665,-2.0665,-2.0665,-2.0665,-2.0665,-2.0735,-2.0653,-2.0647,-2.0647,-2.0629,-2.0466,-2.0213,-1.9965,-1.9706,-1.944,-1.9175,-1.9096,-1.909,-1.9078,-1.9078,-1.9078,-1.9078,-1.9078,-1.9078,-1.9078,-1.9078,-1.9078,-1.9078,-1.9078,-1.9078,-1.9078,-1.9078,-1.9078,-1.9078,-1.9078,-1.9078,-1.9078,-1.9078,-1.9078,-1.9078,-1.909,-1.9187,-1.944,-1.9476,-1.9603,-1.9881,-1.9905,-1.9911,-1.9923,-2.0158,-2.0297,-2.0297,-2.0533,-2.0665,-2.0665,-2.2016,-2.2682,-2.2682,-2.2682,-2.3434,-2.494,-2.6352,-2.7028,-1.3101,-1.2546,-1.206,-1.219,-1.1992,-1.184,-1.1898,-1.1991,-1.2064,-1.1938,-1.2292,-1.2441,-1.1975,-1.1599,-1.1256,-1.0809,-1.0962,-1.107,-1.1029,-1.106,-1.1087,-1.1087,-1.1087,-1.1063,-1.1009,-1.1101,-1.1141,-1.109,-1.2662,-1.3584,-1.3584,-1.5848,-1.7538,-1.8272,-1.9107,-1.9914,-2.0665,-2.0665,-2.0665,-2.0665,-2.0665,-2.0665,-2.0665,-2.0665,-2.0665,-2.0665,-2.0665,-2.0665,-2.0665,-2.0665,-2.0665,-2.0665,-2.0665,-2.0665,-2.0647,-2.0478,-2.0418,-2.0394,-2.0225,-2.0104,-1.9983,-1.9706,-1.9549,-1.9481,-1.9151,-1.9078,-1.9078,-1.9078,-1.9078,-1.9078,-1.9078,-1.9078,-1.9078,-1.9078,-1.9078,-1.9078,-1.9078,-1.9078,-1.9078,-1.9078,-1.9078,-1.9078,-1.9078,-1.9078,-1.9078,-1.9078,-1.9078,-1.9078,-1.9078,-1.9223,-1.9362,-1.9524,-1.9627,-1.9845,-2.0116,-2.014,-2.014,-2.014,-2.0225,-2.0201,-2.0032,-2.098,-2.1494,-2.1494,-2.2791,-2.3236,-2.2819,-2.3774,-2.5061,-2.6737,-2.7278,-2.8155,-1.4321,-1.3467,-1.2559,-1.2623,-1.2428,-1.2231,-1.2292,-1.2438,-1.2628,-1.2628,-1.271,-1.2704,-1.2375,-1.2007,-1.1594,-1.1073,-1.1029,-1.1073,-1.1026,-1.1101,-1.1231,-1.1231,-1.1209,-1.1219,-1.1168,-1.1737,-1.212,-1.2066,-1.4014,-1.5305,-1.5305,-1.76,-1.9007,-1.9181,-2.0008,-2.049,-2.0735,-2.0804,-2.0804,-2.0665,-2.0943,-2.1012,-2.0873,-2.1012,-2.1081,-2.1081,-2.1081,-2.0943,-2.0665,-2.0665,-2.0665,-2.0665,-2.0665,-2.0665,-2.0647,-2.0472,-2.0406,-2.0388,-2.0207,-2.0092,-1.9971,-1.9694,-1.9543,-1.9481,-1.9151,-1.9078,-1.9078,-1.9078,-1.9078,-1.9078,-1.9078,-1.9078,-1.9078,-1.9078,-1.9078,-1.9078,-1.9078,-1.9078,-1.9078,-1.9078,-1.9078,-1.9078,-1.9078,-1.9078,-1.9078,-1.9078,-1.9078,-1.9108,-1.9193,-1.9804,-2.0207,-2.0307,-2.0872,-2.113,-2.0858,-2.1261,-2.1328,-2.0876,-2.1267,-2.1445,-2.1251,-2.2096,-2.2614,-2.2673,-2.4085,-2.4617,-2.4183,-2.5063,-2.6401,-2.8053,-2.811,-2.884,0.0,0.0,0.0,-1.3925,-1.2996,-1.2131,-1.2381,-1.2553,-1.2677,-1.2753,-1.2771,-1.2762,-1.2437,-1.2309,-1.2098,-1.1596,-1.1215,-1.0999,-1.1207,-1.1227,-1.1231,-1.1231,-1.1297,-1.1401,-1.1251,-1.2837,-1.3877,-1.3768,-1.6658,-1.8406,-1.8406,-1.9889,-2.0665,-2.0665,-2.0665,-2.0665,-2.0735,-2.1012,-2.1006,-2.0741,-2.149,-2.1628,-2.1214,-2.1628,-2.1766,-2.1766,-2.1766,-2.1421,-2.0735,-2.0735,-2.0735,-2.0735,-2.0735,-2.0735,-2.0735,-2.0735,-2.0735,-2.0735,-2.0665,-2.0503,-2.0243,-1.9983,-1.9712,-1.944,-1.9169,-1.909,-1.9084,-1.9078,-1.9078,-1.9078,-1.9078,-1.9078,-1.9078,-1.9078,-1.9142,-1.9142,-1.9142,-1.92,-1.92,-1.92,-1.9142,-1.9142,-1.9142,-1.92,-1.92,-1.9136,-1.92,-1.9291,-1.9553,-2.0812,-2.176,-2.1931,-2.3196,-2.3457,-2.2102,-2.3124,-2.3312,-2.2023,-2.3175,-2.3869,-2.3861,-2.3926,-2.4056,-2.4307,-2.5793,-2.6693,-2.7019,-2.6718,-2.7322,-2.8715,-2.9002,-2.9119,-1.6985,0.0,0.0,0.0,0.0,0.0,-1.4932,-1.4961,-1.503,-1.5471,-1.4766,-1.4027,-1.4166,-1.3153,-1.2258,-1.2109,-1.1885,-1.1707,-1.175,-1.1646,-1.1576,-1.1576,-1.1437,-1.179,-1.292,-1.3534,-1.4353,-1.5348,-1.7308,-1.8406,-1.8406,-1.9889,-2.0665,-2.0665,-2.0665,-2.0804,-2.1075,-2.1144,-2.1283,-2.149,-2.1697,-2.1766,-2.1628,-2.1766,-2.1766,-2.1766,-2.1766,-2.1697,-2.149,-2.149,-2.149,-2.149,-2.149,-2.149,-2.149,-2.1144,-2.1075,-2.1006,-2.0804,-2.0617,-2.0521,-2.0255,-2.0116,-1.9965,-1.9501,-1.9356,-1.932,-1.9126,-1.9078,-1.9078,-1.9078,-1.9078,-1.9078,-1.9078,-1.9826,-2.0576,-2.0576,-2.1328,-2.1706,-2.0703,-2.0576,-2.0576,-2.0576,-2.1328,-2.1636,-2.0703,-2.1391,-2.2041,-2.2069,-2.2582,-2.3014,-2.3036,-2.3566,-2.3768,-2.3377,-2.3703,-2.3666,-2.3064,-2.3428,-2.351,-2.3347,-2.4446,-2.5061,-2.5186,-2.6761,-2.7652,-2.7713,-2.8198,-2.8726,-2.944,-2.9751,-2.9884,0.0,0.0,0.0,-1.6397,0.0,0.0,-1.5801,-1.5844,-1.595,-1.645,-1.5783,-1.5228,-1.551,-1.4645,-1.3909,-1.4054,-1.397,-1.3616,-1.2833,-1.2191,-1.2027,-1.263,-1.2643,-1.2978,-1.3809,-1.5099,-1.6187,-1.6977,-1.8471,-1.9396,-1.9529,-2.0584,-2.1151,-2.1151,-2.1151,-2.122,-2.1421,-2.1622,-2.1691,-2.1766,-2.211,-2.2173,-2.2035,-2.2179,-2.2242,-2.2242,-2.2242,-2.2242,-2.2242,-2.2242,-2.211,-2.1766,-2.1766,-2.1766,-2.1766,-2.1352,-2.1214,-2.1144,-2.0804,-2.0665,-2.0623,-2.0364,-2.0279,-2.0201,-1.9772,-1.9561,-1.9565,-1.9975,-2.0412,-2.0639,-2.0081,-2.0329,-2.0766,-2.0766,-2.1391,-2.195,-2.195,-2.2577,-2.2889,-2.2076,-2.195,-2.195,-2.195,-2.2577,-2.2827,-2.2076,-2.2577,-2.312,-2.3252,-2.3933,-2.4369,-2.4313,-2.4988,-2.5176,-2.4467,-2.4903,-2.4952,-2.4179,-2.4789,-2.5068,-2.4933,-2.5965,-2.6581,-2.6762,-2.7711,-2.8268,-2.8439,-2.8724,-2.907,-2.9437,-2.9629,-2.969,0.0,0.0,0.0,-1.7689,-1.6868,0.0,-1.6081,-1.6166,-1.631,-1.6641,-1.6495,-1.6369,-1.6664,-1.6352,-1.6152,-1.6423,-1.6476,-1.5936,-1.4409,-1.322,-1.2929,-1.4183,-1.441,-1.4528,-1.4639,-1.7016,-1.8586,-1.8701,-2.0011,-2.0943,-2.1283,-2.1628,-2.1766,-2.1766,-2.1766,-2.1835,-2.1835,-2.2173,-2.2173,-2.1904,-2.2585,-2.2722,-2.2379,-2.2722,-2.2928,-2.2928,-2.2928,-2.2928,-2.2928,-2.2928,-2.2516,-2.1904,-2.1904,-2.1904,-2.1904,-2.149,-2.1352,-2.1283,-2.0873,-2.0735,-2.0698,-2.0462,-2.0321,-2.0341,-2.0203,-2.0013,-2.012,-2.1401,-2.2398,-2.287,-2.165,-2.2201,-2.3076,-2.3076,-2.3193,-2.3325,-2.3325,-2.345,-2.3512,-2.3512,-2.345,-2.3325,-2.3325,-2.345,-2.3512,-2.3325,-2.345,-2.3616,-2.3844,-2.5007,-2.5766,-2.5657,-2.6794,-2.6915,-2.5472,-2.638,-2.6571,-2.5439,-2.6719,-2.7521,-2.7581,-2.7891,-2.8208,-2.8517,-2.8526,-2.8696,-2.8984,-2.8696,-2.8696,-2.8984,-2.8984,-2.8984,-2.0838,-1.9982,-1.901,-1.901,-1.8829,0.0,-1.8938,-1.8854,-1.8814,-1.9322,-1.8325,-1.7465,-1.7784,-1.6926,-1.6099,-1.6147,-1.6375,-1.6451,-1.6361,-1.5904,-1.5668,-1.5924,-1.5857,-1.6205,-1.7453,-1.8173,-1.9211,-2.0644,-2.1289,-2.1628,-2.1697,-2.1766,-2.1766,-2.1766,-2.1766,-2.1904,-2.2173,-2.2242,-2.2448,-2.266,-2.2866,-2.2859,-2.2791,-2.2859,-2.2928,-2.2928,-2.2928,-2.2928,-2.2928,-2.2928,-2.2797,-2.266,-2.266,-2.266,-2.2654,-2.2242,-2.2104,-2.1966,-2.1352,-2.1075,-2.1069,-2.0743,-2.0593,-2.0814,-2.1665,-2.1864,-2.1985,-2.2928,-2.3325,-2.3406,-2.2829,-2.2889,-2.3076,-2.3076,-2.3946,-2.4695,-2.4695,-2.557,-2.6319,-2.6319,-2.5448,-2.4695,-2.4695,-2.557,-2.5945,-2.4879,-2.5631,-2.6352,-2.6419,-2.661,-2.6802,-2.6802,-2.7054,-2.7089,-2.677,-2.6952,-2.7064,-2.703,-2.7332,-2.7642,-2.7891,-2.8208,-2.8457,-2.8526,-2.8746,-2.8925,-2.8984,-2.8925,-2.8925,-2.8984,-2.8984,-2.8984,-2.2078,-2.1687,-2.1174,-2.1174,-2.1174,0.0,0.0,-2.0838,-2.0403,-2.0799,-1.9641,-1.8648,-1.8927,-1.8317,-1.7781,-1.7913,-1.8045,-1.8219,-1.8545,-1.7526,-1.6969,-1.7608,-1.759,-1.7842,-1.8567,-1.9358,-2.0158,-2.105,-2.1398,-2.1681,-2.1823,-2.2034,-2.2167,-2.231,-2.2385,-2.2448,-2.2585,-2.2585,-2.2722,-2.2928,-2.2928,-2.2928,-2.2928,-2.2928,-2.2928,-2.2928,-2.2928,-2.2928,-2.2928,-2.2928,-2.2928,-2.2928,-2.2928,-2.2928,-2.2866,-2.2448,-2.231,-2.2242,-2.1697,-2.1352,-2.1276,-2.1891,-2.1885,-2.199,-2.333,-2.4042,-2.4401,-2.399,-2.4695,-2.5454,-2.4826,-2.4891,-2.5111,-2.5278,-2.5753,-2.6075,-2.6075,-2.664,-2.7073,-2.7073,-2.6571,-2.6075,-2.6075,-2.664,-2.6882,-2.6197,-2.67,-2.7073,-2.7073,-2.7073,-2.7073,-2.7073,-2.7246,-2.7297,-2.7297,-2.7427,-2.7608,-2.7711,-2.79,-2.808,-2.8268,-2.8567,-2.8755,-2.8755,-2.8925,-2.8984,-2.8984,-2.8984,-2.8984,-2.8984,-2.8984,-2.8984,-2.3376,-2.3207,-2.2974,-2.2974,-2.2974,-2.2974,0.0,0.0,0.0,-2.1844,-2.0895,-2.0181,-2.0365,-2.0271,-2.0051,-2.0003,-2.0074,-2.0091,-2.004,-1.8615,-1.7995,-1.9075,-1.9208,-1.9249,-1.9265,-2.0372,-2.1065,-2.1029,-2.1358,-2.162,-2.1923,-2.2251,-2.2532,-2.2772,-2.2901,-2.2928,-2.2928,-2.2928,-2.2928,-2.2928,-2.2928,-2.2928,-2.2928,-2.2928,-2.2928,-2.2928,-2.2928,-2.2928,-2.2928,-2.2928,-2.3065,-2.3263,-2.2996,-2.2928,-2.2859,-2.2516,-2.2578,-2.2784,-2.2441,-2.2297,-2.2421,-2.3434,-2.3706,-2.3835,-2.5068,-2.6218,-2.6848,-2.5455,-2.6391,-2.7628,-2.6829,-2.6969,-2.7364,-2.7646,-2.7441,-2.7176,-2.7176,-2.7124,-2.7073,-2.7073,-2.7073,-2.7073,-2.7073,-2.7073,-2.7073,-2.7073,-2.7073,-2.7073,-2.7073,-2.7133,-2.7185,-2.7185,-2.7409,-2.7581,-2.7581,-2.7831,-2.802,-2.808,-2.8337,-2.8517,-2.8576,-2.8874,-2.8984,-2.8984,-2.8984,-2.8984,-2.8984,-2.8984,-2.8984,-2.8984,-2.8984,-2.8984,-2.4612,-2.3824,-2.2974,-2.2974,-2.2974,-2.2974,-2.2974,0.0,-2.2821,-2.2804,0.0,-2.2595,-2.2634,0.0,0.0,-2.0837,-2.1046,-2.0927,-1.9668,-1.9661,-1.9894,-2.0023,-2.0084,-2.0196,-2.0493,-2.1115,-2.1505,-2.1532,-2.1778,-2.1932,-2.1965,-2.2278,-2.2432,-2.2465,-2.2726,-2.2928,-2.2928,-2.2928,-2.2928,-2.2928,-2.2928,-2.2928,-2.2928,-2.2928,-2.2928,-2.2928,-2.2928,-2.2928,-2.2928,-2.2928,-2.3665,-2.4609,-2.34,-2.2928,-2.2859,-2.2866,-2.3597,-2.467,-2.4331,-2.4986,-2.5905,-2.5442,-2.5927,-2.6753,-2.6894,-2.7941,-2.8901,-2.8415,-2.8481,-2.858,-2.8073,-2.8,-2.8075,-2.8117,-2.7826,-2.7544,-2.7544,-2.7295,-2.7073,-2.7073,-2.7073,-2.7073,-2.7073,-2.7073,-2.7073,-2.7073,-2.7073,-2.7073,-2.7073,-2.7297,-2.7461,-2.7461,-2.7771,-2.7951,-2.7951,-2.796,-2.8148,-2.8397,-2.8466,-2.8636,-2.8925,-2.8984,-2.8984,-2.8984,-2.8984,-2.8984,-2.8984,-2.8984,-2.8984,-2.8984,-2.8984,-2.8984,-2.6129,-2.584,-2.544,-2.544,-2.544,-2.5388,-2.5116,-2.4556,-2.4047,-2.4047,0.0,0.0,0.0,0.0,0.0,0.0,-2.2271,-2.2181,-2.1588,-2.1061,-2.067,-2.0248,-2.0173,-2.0347,-2.0648,-2.0742,-2.0855,-2.1029,-2.1156,-2.1296,-2.147,-2.1757,-2.1991,-2.2164,-2.2285,-2.2432,-2.2605,-2.2605,-2.2692,-2.2928,-2.2928,-2.2928,-2.2928,-2.2928,-2.3331,-2.4074,-2.3263,-2.3863,-2.5256,-2.4467,-2.4933,-2.6188,-2.5592,-2.5323,-2.5256,-2.4399,-2.5001,-2.6195,-2.6054,-2.6247,-2.6639,-2.6988,-2.7808,-2.8683,-2.8683,-2.8962,-2.9282,-2.9128,-2.8939,-2.8794,-2.8828,-2.8639,-2.8553,-2.8786,-2.8487,-2.8158,-2.8158,-2.787,-2.7608,-2.7608,-2.7608,-2.7608,-2.7608,-2.7478,-2.7358,-2.7358,-2.7478,-2.7608,-2.7608,-2.7719,-2.7771,-2.7771,-2.808,-2.8268,-2.8268,-2.8448,-2.8627,-2.8746,-2.8815,-2.8865,-2.8984,-2.8984,-2.8984,-2.8984,-2.8984,-2.8984,-2.8984,-2.8984,-2.8984,-2.8984,-2.8984,-2.8984,-2.726,-2.726,-2.7205,-2.7372,-2.7178,-2.6967,-2.6793,-2.5988,-2.5284,-2.5284,-2.4612,0.0,0.0,0.0,-2.3847,-2.3406,0.0,-2.3343,-2.2903,-2.2186,-2.14,-2.0582,-2.024,-2.0201,-2.0414,-2.0314,-2.0321,-2.0541,-2.0555,-2.0681,-2.0975,-2.1269,-2.1563,-2.1857,-2.1944,-2.2084,-2.2298,-2.2298,-2.2405,-2.2619,-2.2619,-2.293,-2.3344,-2.3344,-2.3989,-2.494,-2.4331,-2.4993,-2.6455,-2.586,-2.6396,-2.7652,-2.7246,-2.7577,-2.8048,-2.6262,-2.6463,-2.7718,-2.7718,-2.7718,-2.7916,-2.8674,-2.9413,-2.9952,-2.9952,-2.9765,-2.9578,-2.9438,-2.9249,-2.9112,-2.9248,-2.9155,-2.9064,-2.9351,-2.916,-2.888,-2.8773,-2.8454,-2.8144,-2.8037,-2.802,-2.802,-2.802,-2.7771,-2.7642,-2.7642,-2.7831,-2.802,-2.802,-2.808,-2.8148,-2.8148,-2.8457,-2.8636,-2.8636,-2.8865,-2.8984,-2.8984,-2.8984,-2.8984,-2.8984,-2.8984,-2.8984,-2.8984,-2.8984,-2.8984,-2.8984,-2.8984,-2.8984,-2.8984,-2.8984,-2.8984,-2.7803,-2.7528,-2.727,-2.7711,-2.7169,-2.671,-2.7077,-2.6866,-2.6537,-2.6537,-2.6527,-2.6473,-2.6473,-2.6473,0.0,0.0,-2.4538,0.0,0.0,-2.276,-2.2474,-2.1318,-2.0389,-1.982,-1.9826,-2.0074,-2.0173,-2.0247,-2.0247,-2.0374,-2.0675,-2.0962,-2.1263,-2.1621,-2.1837,-2.1991,-2.1997,-2.1997,-2.2004,-2.2017,-2.2017,-2.288,-2.4554,-2.4554,-2.4715,-2.5068,-2.6388,-2.6254,-2.5135,-2.6522,-2.7924,-2.9068,-2.7652,-2.878,-3.0908,-2.8114,-2.799,-2.9208,-2.9208,-2.987,-3.0741,-3.0806,-3.062,-3.0378,-3.0378,-3.0369,-3.0304,-2.9887,-2.9805,-2.9674,-2.9364,-2.9543,-2.9778,-2.9796,-2.9757,-2.9625,-2.9261,-2.8853,-2.8463,-2.8091,-2.802,-2.802,-2.802,-2.802,-2.796,-2.796,-2.802,-2.802,-2.802,-2.8268,-2.8466,-2.8466,-2.8746,-2.8984,-2.8984,-2.8984,-2.8984,-2.8984,-2.8984,-2.8984,-2.8984,-2.8984,-2.8984,-2.8984,-2.8984,-2.8984,-2.8984,-2.8984,-2.8984,-2.8984,-2.8984,-2.8984,-2.8104,-2.8086,-2.8012,-2.815,-2.7774,-2.7334,-2.7205,-2.6875,-2.6591,-2.6591,-2.6591,-2.6591,-2.6591,-2.6591,0.0,0.0,0.0,-2.5808,0.0,-2.4646,-2.3768,-2.2531,-2.0701,-1.9593,-1.978,-1.9713,-1.974,-1.9933,-1.9947,-2.0074,-2.0368,-2.0661,-2.0955,-2.1249,-2.1356,-2.1503,-2.1762,-2.1769,-2.2247,-2.3355,-2.3355,-2.405,-2.5439,-2.5439,-2.621,-2.7393,-2.6919,-2.7703,-2.9182,-2.8723,-2.9387,-3.0649,-3.0113,-3.0511,-3.1175,-2.9256,-2.9452,-3.0714,-3.0714,-3.0917,-3.1249,-3.1249,-3.1,-3.075,-3.075,-3.0564,-3.0369,-3.023,-3.023,-3.0165,-3.0044,-3.0296,-3.0546,-3.0546,-3.05,-3.0365,-2.9975,-2.9558,-2.9149,-2.8759,-2.8677,-2.8677,-2.8677,-2.8677,-2.8567,-2.8328,-2.8507,-2.8677,-2.8677,-2.8746,-2.8806,-2.8806,-2.8925,-2.8984,-2.8984,-2.8984,-2.8984,-2.8984,-2.8984,-2.8984,-2.8984,-2.8984,-2.8984,-2.8984,-2.8984,-2.8984,-2.8984,-2.8984,-2.8984,-2.8984,-2.8984,-2.8984,-2.8526,-2.8498,-2.8425,-2.8572,-2.8177,-2.7794,-2.7636,-2.7297,-2.7004,-2.7004,-2.6894,-2.6793,-2.6793,-2.6683,-2.6591,0.0,0.0,0.0,0.0,-2.5569,-2.4501,-2.3712,-2.1907,-2.0744,-2.0944,-2.0787,-2.0578,-2.0323,-2.0279,-2.0281,-2.0207,-2.0414,-2.0702,-2.1096,-2.1109,-2.1203,-2.1396,-2.1895,-2.2624,-2.3713,-2.416,-2.5105,-2.6476,-2.6476,-2.725,-2.8447,-2.7983,-2.8836,-3.0388,-2.9992,-3.0459,-3.1377,-3.1377,-3.1377,-3.1313,-3.039,-3.0649,-3.1377,-3.1377,-3.1377,-3.1377,-3.1377,-3.1249,-3.1064,-3.1064,-3.0935,-3.075,-3.0629,-3.0564,-3.0564,-3.0434,-3.0629,-3.0879,-3.0879,-3.0829,-3.0681,-3.0286,-2.9865,-2.9452,-2.9058,-2.8984,-2.8984,-2.8984,-2.8984,-2.8925,-2.8696,-2.8865,-2.8984,-2.8984,-2.8984,-2.8984,-2.8984,-2.8984,-2.8984,-2.8984,-2.8984,-2.8984,-2.8984,-2.8984,-2.8984,-2.8984,-2.8984,-2.9048,-2.9195,-2.9048,-2.9048,-2.9195,-2.9048,-2.8984,-2.8984,-2.8984,-2.8984]},{"header":{"parameterUnit":"m.s-1","parameterCategory":1,"la1":30.6,"la2":29.2853,"lo1":-89.7004,"lo2":-87.6739,"dy":0.0162,"dx":0.0183,"nx":112,"ny":82,"refTime":"2023-04-22T06:00:00:Z","depth":0,"parameterNumber":3,"parameterNumberName":"V-component_of_WINDS"},"data":[0.0,0.0,0.0,0.0,0.0,0.0,0.0,0.0,0.0,0.0,0.0,0.0,0.0,0.0,0.0,0.0,0.0,0.0,0.0,0.0,0.0,0.0,0.0,0.0,0.0,0.0,0.0,0.0,0.0,0.0,0.0,0.0,0.0,0.0,0.0,0.0,0.0,0.0,0.0,0.0,0.0,0.0,0.0,0.0,0.0,0.0,0.0,0.0,0.0,0.0,0.0,0.0,0.0,0.0,0.0,0.0,0.0,0.0,0.0,0.0,0.0,0.0,0.0,0.0,0.0,0.0,0.0,0.0,0.0,0.0,0.0,0.0,0.0,0.0,0.0,0.0,0.0,0.0,0.0,0.0,0.0,0.0,0.0,0.0,0.0,0.0,0.0,0.0,0.0,0.0,3.9163,3.9226,3.9425,3.9631,3.9827,3.9844,3.9185,3.7635,0.0,0.0,0.0,0.0,0.0,0.0,0.0,0.0,0.0,0.0,0.0,0.0,0.0,0.0,0.0,0.0,0.0,0.0,0.0,0.0,0.0,0.0,0.0,0.0,0.0,0.0,0.0,0.0,0.0,0.0,0.0,0.0,0.0,0.0,0.0,0.0,0.0,0.0,0.0,0.0,0.0,0.0,0.0,0.0,0.0,0.0,0.0,0.0,0.0,0.0,0.0,0.0,0.0,0.0,0.0,0.0,0.0,0.0,0.0,0.0,0.0,0.0,0.0,0.0,0.0,0.0,0.0,0.0,0.0,0.0,0.0,0.0,0.0,0.0,0.0,0.0,0.0,0.0,0.0,0.0,0.0,0.0,0.0,0.0,0.0,0.0,0.0,0.0,0.0,0.0,0.0,0.0,0.0,0.0,0.0,0.0,0.0,0.0,0.0,0.0,0.0,0.0,0.0,0.0,3.9095,4.0982,4.0916,4.1159,4.2184,4.2261,4.146,3.9589,0.0,0.0,0.0,0.0,0.0,0.0,0.0,0.0,0.0,0.0,0.0,0.0,0.0,0.0,0.0,0.0,0.0,0.0,0.0,0.0,0.0,0.0,0.0,0.0,0.0,0.0,0.0,0.0,0.0,0.0,0.0,0.0,0.0,0.0,0.0,0.0,0.0,0.0,0.0,0.0,0.0,0.0,0.0,0.0,0.0,0.0,0.0,0.0,0.0,0.0,0.0,0.0,0.0,0.0,0.0,0.0,0.0,0.0,0.0,0.0,0.0,0.0,0.0,0.0,0.0,0.0,0.0,0.0,0.0,0.0,0.0,0.0,0.0,0.0,0.0,0.0,0.0,0.0,0.0,0.0,0.0,0.0,0.0,0.0,0.0,0.0,0.0,0.0,0.0,0.0,0.0,0.0,0.0,0.0,0.0,0.0,0.0,0.0,0.0,0.0,0.0,0.0,0.0,3.9404,4.0438,4.2322,4.2185,4.2184,4.2749,4.2809,4.2057,4.0339,3.9411,0.0,0.0,0.0,0.0,0.0,0.0,0.0,0.0,0.0,0.0,0.0,0.0,0.0,0.0,0.0,0.0,0.0,0.0,0.0,0.0,0.0,0.0,0.0,0.0,0.0,0.0,0.0,0.0,0.0,0.0,0.0,0.0,0.0,0.0,0.0,0.0,0.0,0.0,0.0,0.0,0.0,0.0,0.0,0.0,0.0,0.0,0.0,0.0,0.0,0.0,0.0,0.0,0.0,0.0,0.0,0.0,0.0,0.0,0.0,0.0,0.0,0.0,0.0,0.0,0.0,0.0,0.0,0.0,0.0,0.0,0.0,0.0,0.0,0.0,0.0,0.0,0.0,0.0,0.0,0.0,0.0,0.0,0.0,0.0,0.0,0.0,0.0,0.0,0.0,0.0,0.0,0.0,0.0,0.0,0.0,0.0,0.0,0.0,0.0,0.0,0.0,0.0,4.122,4.2105,4.3579,4.3421,4.3314,4.3579,4.3424,4.2727,4.1246,4.1006,0.0,0.0,0.0,0.0,0.0,0.0,0.0,0.0,0.0,0.0,0.0,0.0,0.0,0.0,0.0,0.0,0.0,0.0,0.0,0.0,0.0,0.0,0.0,0.0,0.0,0.0,0.0,0.0,0.0,0.0,0.0,0.0,0.0,0.0,0.0,0.0,0.0,0.0,0.0,0.0,0.0,0.0,0.0,0.0,0.0,0.0,0.0,0.0,0.0,0.0,0.0,0.0,0.0,0.0,0.0,0.0,0.0,0.0,0.0,0.0,0.0,0.0,0.0,0.0,0.0,0.0,0.0,0.0,0.0,0.0,0.0,0.0,0.0,0.0,0.0,0.0,0.0,0.0,0.0,0.0,0.0,0.0,0.0,0.0,0.0,0.0,0.0,0.0,0.0,0.0,0.0,0.0,0.0,0.0,0.0,0.0,0.0,0.0,0.0,0.0,0.0,0.0,4.2474,4.3597,4.485,4.4634,4.4796,4.587,4.5341,4.4408,4.3172,4.2479,0.0,0.0,0.0,0.0,0.0,0.0,0.0,0.0,0.0,0.0,0.0,0.0,0.0,0.0,0.0,0.0,0.0,0.0,0.0,0.0,0.0,0.0,0.0,0.0,0.0,0.0,0.0,0.0,0.0,0.0,0.0,0.0,0.0,0.0,0.0,0.0,0.0,0.0,0.0,0.0,0.0,0.0,0.0,0.0,0.0,0.0,0.0,0.0,0.0,0.0,0.0,0.0,0.0,0.0,0.0,0.0,0.0,0.0,0.0,0.0,0.0,0.0,0.0,0.0,0.0,0.0,0.0,0.0,0.0,0.0,0.0,0.0,0.0,0.0,0.0,0.0,0.0,0.0,0.0,0.0,0.0,0.0,0.0,0.0,0.0,0.0,0.0,0.0,0.0,0.0,0.0,0.0,0.0,0.0,0.0,0.0,0.0,0.0,0.0,0.0,0.0,0.0,4.3121,4.4211,4.5635,4.566,4.5715,4.6154,4.5951,4.5183,4.3768,0.0,0.0,0.0,0.0,0.0,0.0,0.0,0.0,0.0,0.0,0.0,0.0,0.0,0.0,0.0,0.0,0.0,0.0,0.0,0.0,0.0,0.0,0.0,0.0,0.0,0.0,0.0,0.0,0.0,0.0,0.0,0.0,0.0,0.0,0.0,0.0,0.0,0.0,0.0,0.0,0.0,0.0,0.0,0.0,0.0,0.0,0.0,0.0,0.0,0.0,0.0,0.0,0.0,0.0,0.0,0.0,0.0,0.0,0.0,0.0,0.0,0.0,0.0,0.0,0.0,0.0,0.0,0.0,0.0,0.0,0.0,0.0,0.0,0.0,0.0,0.0,0.0,0.0,0.0,0.0,0.0,0.0,0.0,0.0,0.0,0.0,0.0,0.0,0.0,0.0,0.0,0.0,0.0,0.0,0.0,0.0,0.0,0.0,0.0,0.0,0.0,0.0,4.3079,4.4027,4.5045,4.6091,4.6196,4.6196,4.6196,4.5986,4.5284,4.3974,0.0,0.0,0.0,0.0,0.0,0.0,0.0,0.0,0.0,0.0,0.0,0.0,0.0,0.0,0.0,0.0,0.0,0.0,0.0,0.0,0.0,0.0,0.0,0.0,0.0,0.0,0.0,0.0,0.0,0.0,0.0,0.0,0.0,0.0,0.0,0.0,0.0,0.0,0.0,0.0,0.0,0.0,0.0,0.0,0.0,0.0,0.0,0.0,0.0,0.0,0.0,0.0,0.0,0.0,0.0,0.0,0.0,0.0,0.0,0.0,0.0,0.0,0.0,0.0,0.0,0.0,0.0,0.0,0.0,0.0,0.0,0.0,0.0,0.0,0.0,0.0,0.0,0.0,0.0,0.0,0.0,0.0,0.0,0.0,0.0,0.0,0.0,0.0,0.0,0.0,0.0,0.0,0.0,0.0,0.0,0.0,0.0,0.0,0.0,0.0,0.0,0.0,4.3904,4.5256,4.6196,4.6196,4.6196,4.6196,4.6196,4.5512,4.4764,0.0,0.0,0.0,0.0,0.0,0.0,0.0,0.0,0.0,0.0,0.0,0.0,0.0,0.0,0.0,0.0,0.0,0.0,0.0,0.0,0.0,0.0,0.0,0.0,0.0,0.0,0.0,0.0,0.0,0.0,0.0,0.0,0.0,0.0,0.0,0.0,0.0,0.0,0.0,0.0,0.0,0.0,0.0,0.0,0.0,0.0,0.0,0.0,0.0,0.0,0.0,0.0,0.0,0.0,0.0,0.0,0.0,0.0,0.0,0.0,0.0,0.0,0.0,0.0,0.0,0.0,0.0,0.0,0.0,0.0,0.0,0.0,0.0,0.0,0.0,0.0,0.0,0.0,0.0,0.0,0.0,0.0,0.0,0.0,0.0,0.0,0.0,0.0,0.0,0.0,0.0,0.0,0.0,0.0,0.0,0.0,0.0,0.0,0.0,0.0,0.0,0.0,0.0,4.3904,4.5256,4.6196,4.6196,4.6196,4.6196,4.6196,4.6003,4.5302,4.3974,0.0,0.0,0.0,0.0,0.0,0.0,0.0,0.0,0.0,0.0,0.0,0.0,0.0,0.0,0.0,0.0,0.0,0.0,0.0,0.0,0.0,0.0,0.0,0.0,0.0,0.0,0.0,0.0,0.0,0.0,0.0,0.0,0.0,0.0,0.0,0.0,0.0,0.0,0.0,0.0,0.0,0.0,0.0,0.0,0.0,0.0,0.0,0.0,0.0,0.0,0.0,0.0,0.0,0.0,0.0,0.0,0.0,0.0,0.0,0.0,0.0,0.0,0.0,0.0,0.0,0.0,0.0,0.0,0.0,0.0,0.0,0.0,0.0,0.0,0.0,0.0,0.0,0.0,0.0,0.0,0.0,0.0,0.0,0.0,0.0,0.0,0.0,0.0,0.0,0.0,0.0,0.0,0.0,0.0,0.0,0.0,0.0,0.0,0.0,0.0,0.0,0.0,4.4401,4.6169,4.7364,4.7134,4.7126,4.7126,4.7144,4.7144,4.6642,4.5378,0.0,0.0,0.0,0.0,0.0,0.0,0.0,0.0,0.0,0.0,0.0,0.0,0.0,0.0,0.0,0.0,0.0,0.0,0.0,0.0,0.0,0.0,0.0,0.0,0.0,0.0,0.0,0.0,0.0,0.0,0.0,0.0,0.0,0.0,0.0,0.0,0.0,0.0,0.0,0.0,0.0,0.0,0.0,0.0,0.0,0.0,0.0,0.0,0.0,0.0,0.0,0.0,0.0,0.0,0.0,0.0,0.0,0.0,0.0,0.0,0.0,0.0,0.0,0.0,0.0,0.0,0.0,0.0,0.0,0.0,0.0,0.0,0.0,0.0,0.0,0.0,0.0,0.0,0.0,0.0,0.0,0.0,0.0,0.0,0.0,0.0,0.0,0.0,0.0,0.0,0.0,0.0,0.0,0.0,0.0,0.0,0.0,0.0,0.0,0.0,0.0,0.0,4.5382,4.769,4.9174,4.869,4.8657,4.8675,4.871,4.8727,4.8375,4.7608,0.0,0.0,0.0,0.0,0.0,0.0,0.0,0.0,0.0,0.0,0.0,0.0,0.0,0.0,0.0,0.0,0.0,0.0,0.0,0.0,0.0,0.0,0.0,0.0,0.0,0.0,0.0,0.0,0.0,0.0,0.0,0.0,0.0,0.0,0.0,0.0,0.0,0.0,0.0,0.0,0.0,0.0,0.0,0.0,0.0,0.0,0.0,0.0,0.0,0.0,0.0,0.0,0.0,0.0,0.0,0.0,0.0,0.0,0.0,0.0,5.0083,4.8838,0.0,0.0,0.0,0.0,0.0,0.0,0.0,0.0,0.0,0.0,0.0,0.0,0.0,0.0,0.0,0.0,0.0,0.0,0.0,0.0,0.0,0.0,0.0,0.0,0.0,0.0,0.0,0.0,0.0,0.0,0.0,0.0,0.0,0.0,0.0,0.0,0.0,0.0,0.0,0.0,4.7086,4.8706,4.9812,4.9681,4.9681,4.9699,4.9699,4.9699,4.9375,4.864,4.8279,0.0,0.0,0.0,0.0,0.0,0.0,0.0,0.0,0.0,0.0,0.0,0.0,0.0,0.0,0.0,0.0,0.0,0.0,0.0,0.0,0.0,0.0,0.0,0.0,0.0,0.0,0.0,0.0,0.0,0.0,0.0,0.0,0.0,0.0,0.0,0.0,0.0,0.0,0.0,0.0,0.0,0.0,0.0,0.0,0.0,0.0,0.0,0.0,0.0,0.0,0.0,0.0,0.0,0.0,0.0,0.0,0.0,0.0,0.0,5.1207,5.0311,0.0,0.0,0.0,0.0,0.0,0.0,0.0,0.0,0.0,0.0,0.0,0.0,0.0,0.0,0.0,0.0,0.0,0.0,0.0,0.0,0.0,0.0,0.0,0.0,0.0,0.0,0.0,0.0,0.0,0.0,0.0,0.0,0.0,0.0,0.0,0.0,0.0,0.0,0.0,0.0,4.8744,5.0368,5.1373,5.1135,5.1112,5.1112,5.1112,5.1112,5.0931,5.055,4.9829,0.0,0.0,0.0,0.0,0.0,0.0,0.0,0.0,0.0,0.0,0.0,0.0,0.0,0.0,0.0,0.0,0.0,0.0,0.0,0.0,0.0,0.0,0.0,0.0,0.0,0.0,0.0,0.0,0.0,0.0,0.0,0.0,0.0,0.0,0.0,0.0,0.0,0.0,0.0,0.0,0.0,0.0,0.0,0.0,0.0,0.0,0.0,0.0,0.0,0.0,0.0,0.0,0.0,5.4353,5.441,5.441,5.4447,5.4447,5.4298,5.2735,5.2401,5.2977,5.2308,0.0,0.0,0.0,0.0,0.0,0.0,0.0,0.0,0.0,0.0,0.0,0.0,0.0,0.0,0.0,0.0,0.0,0.0,0.0,0.0,0.0,0.0,5.2511,5.3181,5.3348,5.2902,5.1193,0.0,0.0,0.0,0.0,0.0,0.0,0.0,0.0,0.0,0.0,0.0,5.0417,5.2059,5.3057,5.2593,5.2571,5.2571,5.2571,5.2571,5.2571,5.2571,5.1373,5.0648,0.0,0.0,0.0,0.0,0.0,0.0,0.0,0.0,0.0,0.0,0.0,0.0,0.0,0.0,0.0,0.0,0.0,0.0,0.0,0.0,0.0,0.0,0.0,0.0,0.0,0.0,0.0,0.0,0.0,0.0,0.0,0.0,5.2976,5.3906,0.0,0.0,0.0,0.0,0.0,0.0,0.0,0.0,0.0,0.0,0.0,0.0,0.0,5.4988,5.51,5.5043,5.5378,5.6067,5.6027,5.6006,5.6006,5.6006,5.6006,5.595,5.4946,0.0,5.4686,5.4574,0.0,0.0,0.0,0.0,0.0,0.0,0.0,0.0,0.0,0.0,0.0,0.0,0.0,0.0,0.0,0.0,0.0,0.0,0.0,0.0,0.0,0.0,5.5789,5.59,5.5995,5.5996,5.5734,5.3385,5.1264,5.1058,5.095,5.0636,0.0,0.0,0.0,0.0,0.0,0.0,5.225,5.3104,5.3678,5.3621,5.3583,5.3583,5.3583,5.3583,5.3583,5.3583,5.3417,5.3306,5.3306,5.2138,0.0,0.0,0.0,0.0,0.0,0.0,0.0,0.0,0.0,0.0,0.0,0.0,0.0,0.0,0.0,0.0,0.0,0.0,0.0,0.0,0.0,0.0,0.0,0.0,0.0,0.0,0.0,0.0,0.0,5.5172,5.5808,5.6292,5.6255,5.5881,0.0,0.0,0.0,0.0,0.0,0.0,0.0,0.0,0.0,5.6573,5.6592,5.6815,5.7338,5.7279,5.7485,5.7862,5.7799,5.786,5.8034,5.778,5.7742,5.7902,5.7331,5.7082,5.7026,5.6097,5.5726,5.5707,0.0,0.0,0.0,0.0,5.4686,5.4723,5.5076,5.5744,5.6357,5.5986,0.0,0.0,0.0,0.0,0.0,0.0,0.0,5.4783,5.538,5.5697,5.5996,5.6406,5.6556,5.6594,5.6594,5.5361,5.4,5.3088,5.2475,5.1973,5.1656,5.1862,0.0,0.0,0.0,5.4128,5.463,5.5001,5.5206,5.5206,5.5206,5.5206,5.5206,5.5206,5.5206,5.5206,5.5206,5.5206,5.5206,5.4677,5.4231,0.0,0.0,0.0,0.0,0.0,0.0,0.0,0.0,0.0,0.0,0.0,0.0,0.0,0.0,0.0,0.0,0.0,0.0,0.0,0.0,0.0,0.0,0.0,0.0,0.0,0.0,0.0,0.0,5.7153,5.7716,5.8015,5.7791,5.7492,0.0,0.0,0.0,0.0,0.0,0.0,5.7379,5.736,5.7697,5.8466,5.8503,5.869,5.914,5.914,5.9159,5.9215,5.914,5.9253,5.9488,5.914,5.9121,5.9343,5.9083,5.8984,5.8871,5.7478,5.6915,5.6952,5.736,5.7138,5.6617,5.6617,5.6617,5.6636,5.684,5.7323,5.7827,5.7909,5.801,5.807,5.7941,0.0,0.0,0.0,0.0,5.6181,5.6944,5.676,5.6537,5.7136,5.7267,5.7286,5.7286,5.7004,5.633,5.4876,5.4037,5.3497,5.3386,5.3479,0.0,5.4986,5.5245,5.5577,5.6227,5.6302,5.6302,5.6302,5.6302,5.6302,5.6302,5.6302,5.6302,5.6302,5.6302,5.6302,5.6302,5.6506,5.6302,5.5652,0.0,0.0,0.0,0.0,0.0,0.0,0.0,0.0,0.0,0.0,0.0,0.0,0.0,0.0,0.0,0.0,0.0,0.0,0.0,0.0,0.0,0.0,0.0,0.0,0.0,0.0,0.0,0.0,0.0,5.7829,5.9231,0.0,0.0,0.0,0.0,5.6761,5.6833,5.7689,5.9364,5.9456,5.9895,6.0896,6.0915,6.0542,5.976,5.9741,5.9766,5.9758,5.976,5.9758,5.9774,5.9758,5.9758,5.9758,5.9741,5.9741,5.9692,5.8911,5.8586,5.8512,5.7788,5.749,5.7453,5.7453,5.7453,5.7565,5.8308,5.8624,5.8686,5.9008,5.9376,5.9566,5.8924,5.8619,0.0,0.0,5.7844,5.8005,5.8249,5.8574,5.8874,5.9027,5.9122,5.914,5.9084,5.8352,5.7434,5.6479,5.6195,5.5856,5.5039,0.0,5.5856,5.5113,5.5707,5.6246,5.6302,5.6302,5.6302,5.6302,5.6302,5.6302,5.6302,5.6302,5.6302,5.6302,5.6302,5.6302,5.6302,5.7026,5.7416,5.7379,5.7342,0.0,0.0,0.0,0.0,0.0,0.0,0.0,0.0,0.0,0.0,0.0,0.0,0.0,0.0,0.0,0.0,0.0,0.0,0.0,0.0,0.0,0.0,0.0,0.0,0.0,0.0,0.0,0.0,5.779,5.8331,0.0,5.8213,5.8962,5.9065,5.812,5.9014,5.9655,5.9789,5.9789,5.9937,6.0254,6.0254,6.0124,5.988,5.9861,5.9899,5.9988,5.9922,5.9981,6.0175,5.9918,5.9918,6.0102,5.9887,5.9791,5.9774,5.9521,5.9417,5.9379,5.9078,5.8982,5.8982,5.8982,5.8982,5.9021,5.9304,5.9417,5.9416,5.9556,5.9706,5.983,5.9589,5.9475,5.9418,5.932,5.9266,5.9284,5.9435,5.9467,5.9471,5.9525,5.9383,5.9234,5.9215,5.8836,5.8399,5.8061,5.7068,5.6377,5.6623,5.6899,5.7176,5.746,5.7698,5.7843,5.7843,5.7843,5.7843,5.7843,5.7843,5.7843,5.7843,5.7843,5.7843,5.7843,5.7843,5.7843,5.7843,5.8122,5.8271,5.8271,5.8271,5.7571,0.0,0.0,0.0,0.0,0.0,0.0,0.0,0.0,0.0,0.0,0.0,0.0,0.0,0.0,0.0,0.0,0.0,0.0,0.0,0.0,0.0,0.0,0.0,0.0,0.0,5.7304,5.7847,5.796,5.8277,5.8589,5.8876,5.9401,5.9555,5.9215,6.0156,6.0567,6.0132,6.0108,6.0122,6.0198,6.0198,6.0222,6.0232,6.0232,6.0265,6.0332,6.0237,6.0321,6.0527,6.0265,6.0265,6.0449,6.0237,6.015,6.015,6.015,6.015,6.0102,5.9887,5.9791,5.9791,5.9791,5.9791,5.9791,5.9791,5.9871,5.9965,5.9965,6.0072,6.0204,6.0232,6.0232,6.026,6.0368,6.0237,6.0102,6.0213,6.0,5.9777,5.9828,5.9664,5.949,5.9454,5.9234,5.9061,5.9003,5.7985,5.7214,5.7497,5.7531,5.7622,5.7982,5.7959,5.7899,5.7899,5.8141,5.8308,5.8308,5.8549,5.8716,5.8716,5.8456,5.8419,5.8679,5.8456,5.8419,5.8698,5.8716,5.8716,5.8758,5.8781,5.8191,5.6929,0.0,0.0,0.0,0.0,0.0,0.0,0.0,0.0,0.0,0.0,0.0,0.0,0.0,0.0,0.0,0.0,0.0,0.0,0.0,0.0,0.0,0.0,0.0,5.6593,5.7545,5.8228,5.8333,5.92,5.9839,5.9899,5.9915,5.9915,5.9931,6.0045,6.0242,6.0495,6.0508,6.069,6.1025,6.1025,6.1023,6.0988,6.0968,6.0935,6.0889,6.0889,6.0889,6.0889,6.0889,6.0889,6.0889,6.0889,6.0889,6.0877,6.0877,6.0877,6.081,6.011,5.9823,5.9823,5.9823,5.9823,5.9823,5.9823,6.0042,6.0307,6.0307,6.0553,6.085,6.0927,6.0968,6.0999,6.1053,6.0791,6.0506,6.0572,6.0275,6.0026,6.016,6.0175,6.0125,5.9972,5.9679,5.9399,5.9234,5.8946,5.8456,5.7676,5.7546,5.7268,5.6487,5.6376,0.0,5.6376,5.7063,5.7528,5.7509,5.8234,5.8698,5.8661,5.7973,5.7881,5.8661,5.7973,5.7899,5.8679,5.8716,5.8777,5.8916,5.8944,5.9318,6.0075,0.0,0.0,0.0,0.0,0.0,0.0,0.0,0.0,0.0,0.0,0.0,0.0,0.0,0.0,0.0,0.0,0.0,0.0,0.0,0.0,0.0,5.7375,5.7845,5.7964,5.824,5.8667,5.9308,5.9671,5.9981,6.0232,6.0302,6.0443,6.0683,6.0726,6.0781,6.085,6.0861,6.1161,6.1781,6.18,6.2074,6.2632,6.2651,6.2663,6.2698,6.2698,6.2702,6.2747,6.2747,6.2725,6.2698,6.2698,6.2656,6.2608,6.2608,6.2608,6.2481,6.1064,6.0533,6.0533,6.0533,6.0533,6.0533,6.0533,6.0604,6.0654,6.0654,6.1156,6.1755,6.1766,6.217,6.2632,6.2663,6.2596,6.2503,6.2528,6.2341,6.2161,6.2175,6.1976,6.16,6.0979,6.0679,6.0288,5.9383,5.914,5.893,5.8442,5.8382,5.8308,5.8085,5.8048,5.8048,5.8048,5.8234,5.8159,5.7565,5.8234,5.8475,5.7881,5.8159,5.8475,5.8698,5.8494,5.8475,5.8698,5.8716,5.8977,5.9613,5.8544,5.8398,0.0,0.0,0.0,0.0,0.0,0.0,0.0,0.0,0.0,0.0,0.0,0.0,0.0,0.0,0.0,0.0,0.0,0.0,0.0,0.0,0.0,0.0,5.8301,5.9054,5.9416,5.934,5.9441,5.9954,6.016,6.0349,6.0559,6.061,6.0714,6.0891,6.0922,6.0922,6.0922,6.0922,6.1277,6.2071,6.1743,6.2124,6.3288,6.2974,6.2998,6.3361,6.3361,6.3372,6.3419,6.3419,6.3396,6.3361,6.3361,6.3337,6.3288,6.3288,6.3288,6.3192,0.0,0.0,0.0,0.0,6.1858,6.1858,6.1858,6.1858,6.1858,6.1858,6.2185,6.2589,6.2589,6.2935,6.3288,6.3288,6.3288,6.3288,6.3288,6.3214,6.3136,6.3136,6.2957,6.2658,6.2166,6.19,6.1495,6.0632,6.0341,0.0,5.9822,5.9162,5.8716,5.8716,5.8716,5.8716,5.8716,5.8995,5.9032,5.8568,5.9255,5.9571,5.9088,5.9144,0.0,0.0,0.0,5.9218,5.9218,5.926,0.0,0.0,0.0,5.7915,5.8359,5.7526,0.0,0.0,5.7641,5.723,0.0,0.0,0.0,0.0,0.0,0.0,0.0,0.0,0.0,0.0,0.0,0.0,0.0,0.0,0.0,0.0,5.8909,5.9915,6.0685,6.0546,6.0368,6.0368,6.0629,6.08,6.08,6.08,6.08,6.08,6.08,6.08,6.08,6.08,0.0,0.0,0.0,6.1704,6.3269,6.2685,6.2736,6.3455,6.3563,6.3601,6.3601,6.3601,6.3601,6.3589,6.3589,6.3531,6.3455,6.3455,6.3397,6.3288,6.3288,6.3288,6.3288,6.3288,6.3288,6.3288,6.3288,0.0,0.0,6.3288,6.3365,6.3455,6.3455,6.3531,6.3577,6.3577,6.3577,6.3577,6.3577,6.3577,6.3577,6.3577,6.3577,6.357,6.3462,6.3205,6.2862,6.2368,6.199,6.1692,6.143,6.0038,5.8995,5.8995,5.8995,5.8995,5.8995,5.9627,6.0017,5.9924,6.0685,0.0,6.1057,6.0444,6.0388,6.115,6.0481,6.0033,6.0033,6.0157,5.9508,5.7957,5.8101,5.8141,5.8024,5.8161,5.8593,5.9247,5.7716,5.7773,0.0,0.0,0.0,0.0,0.0,0.0,0.0,0.0,0.0,0.0,0.0,0.0,0.0,0.0,0.0,5.9134,5.995,6.0608,6.0781,6.0746,6.069,6.069,6.0757,6.08,6.08,6.08,6.08,6.08,6.08,6.08,6.08,6.08,6.1204,6.2082,6.1947,6.232,6.3288,6.3839,6.421,6.4443,6.5137,0.0,6.5485,6.5485,6.5481,6.5483,6.5483,6.5043,6.4359,6.4359,6.3935,6.3288,6.3288,6.3288,6.3288,6.3288,6.3288,6.3288,6.3288,6.3288,6.3288,6.3288,6.3782,6.4359,6.4359,6.4839,0.0,6.5397,6.5397,6.5397,6.5397,6.5397,6.5397,6.5397,6.5397,6.5205,6.4493,6.4302,6.3936,6.2896,6.2366,6.2198,6.2518,6.1554,6.0723,6.0723,6.0723,6.0723,6.0723,6.0853,6.0685,5.9998,6.0685,6.0927,6.02,6.0648,6.102,6.1187,6.1038,6.0945,6.0945,6.0986,6.0861,6.0574,6.0615,6.0657,6.0757,6.0778,6.0852,6.0964,5.9438,5.8877,0.0,0.0,0.0,0.0,0.0,0.0,0.0,0.0,0.0,0.0,0.0,5.8047,5.8047,0.0,5.9492,5.9492,6.0223,6.08,6.08,6.08,6.08,6.08,6.08,6.08,6.08,6.08,6.08,6.08,6.08,6.08,6.08,6.1204,6.182,6.2666,6.2704,6.3301,6.4589,6.5032,6.548,6.5909,6.6775,6.6961,6.6555,6.6555,6.6562,6.6544,6.6544,6.6532,6.6513,6.6513,6.6263,6.5846,6.5846,6.4808,6.3288,6.3288,6.3288,6.3288,6.3288,6.3288,6.3288,6.3288,6.3577,6.3955,6.3955,6.457,6.5243,6.5243,6.5551,6.5897,6.5897,6.5897,6.5897,6.5897,6.5897,6.5782,6.534,6.5243,6.5013,6.4211,6.3736,6.3529,6.3747,6.3194,6.2617,6.2416,6.2413,6.2413,6.2413,6.2413,6.2246,6.18,6.2153,6.2227,6.18,6.2153,6.2413,6.2413,6.2413,6.2413,6.2413,6.2413,6.2231,6.1868,6.1938,6.1836,6.1506,6.1589,6.1649,6.163,6.0865,6.0471,0.0,0.0,0.0,0.0,0.0,0.0,0.0,5.7654,5.8117,5.8342,5.8614,5.88,5.88,5.9319,5.9742,5.9742,6.0339,6.0858,6.1031,6.105,6.1108,6.1262,6.0993,6.08,6.08,6.0954,6.105,6.105,6.1204,6.1281,6.1281,6.1954,6.2627,6.3281,6.3288,6.3974,6.5378,6.5551,6.6051,6.6878,6.7744,6.7878,6.734,6.734,6.734,6.734,6.7167,6.7494,6.8148,6.7975,6.7917,6.7917,6.7917,6.6244,6.3839,6.4185,6.4185,6.4051,6.4051,6.3935,6.382,6.382,6.382,6.382,6.382,6.4301,6.4859,6.4859,6.5243,6.5647,6.5647,6.5513,6.5436,6.5609,6.5647,6.5686,6.5859,6.5897,6.5795,6.5485,6.5089,6.482,6.482,6.4464,6.4087,6.3761,6.3717,6.3673,6.3602,6.3602,6.3602,6.3602,6.3602,6.3602,6.3602,6.3602,6.3602,6.3602,6.3602,6.3602,6.3602,6.3602,6.3305,6.2677,6.2838,6.2627,6.2014,6.2197,6.2275,6.2275,6.2275,6.2161,5.569,5.5724,5.604,5.604,5.6564,5.7408,0.0,5.8904,5.9241,6.0256,6.05,6.0512,6.0512,6.0589,6.0646,6.0646,6.0742,6.1069,6.1851,6.1947,6.2224,6.2935,6.1704,6.08,6.08,6.1493,6.1947,6.1947,6.2627,6.3031,6.3031,6.3108,6.3224,6.3288,6.3288,6.3397,6.3589,6.4359,6.5186,6.6032,6.6859,6.7609,6.8263,6.8263,6.8263,6.8225,6.7436,6.7148,6.7186,6.6474,6.6186,6.6186,6.6186,6.5955,6.5782,6.7282,6.734,6.6667,6.6667,6.6205,6.5609,6.5609,6.5609,6.5609,6.5609,6.5686,6.5743,6.5743,6.5263,6.4743,6.4743,6.4166,6.3801,6.457,6.4743,6.4955,6.5724,6.5897,6.5897,6.584,6.5518,6.5219,6.5219,6.4667,6.417,6.4149,6.4128,6.3984,6.3647,6.3602,6.3602,6.3602,6.3602,6.3602,6.3602,6.3602,6.3602,6.3602,6.3602,6.3602,6.3602,6.3602,6.361,6.3627,6.3718,6.379,6.3819,6.3942,6.4003,6.4003,6.4003,6.3627,5.7148,5.7008,5.6986,5.7971,5.8274,5.8602,5.9573,5.9945,6.0219,6.0712,6.08,6.0954,6.1466,6.1562,6.1704,6.2185,6.2243,6.2377,6.2743,6.2801,6.3108,6.3955,6.3435,6.282,6.23,6.2589,6.2801,6.2801,6.3108,6.3288,6.3288,6.3782,6.407,6.407,6.4551,6.4801,6.4801,6.5647,6.6494,6.7378,6.8205,6.8802,6.9167,6.9167,6.9167,6.9167,6.9263,6.9302,6.9283,6.8956,6.8802,6.8802,6.8802,6.8802,6.8667,6.7417,6.6705,6.6397,6.6397,6.6186,6.5897,6.5897,6.5897,6.5897,6.5897,6.6224,6.659,6.659,6.6705,6.6821,6.6821,6.6551,6.6346,6.6724,6.6821,6.6917,6.7282,6.7359,6.7359,6.7359,6.7031,6.6846,6.7046,6.6656,6.6213,6.5993,6.4749,6.3786,6.3624,6.3602,6.3602,6.3602,6.3602,6.3602,6.3602,6.3602,6.3602,6.3602,6.4025,6.4308,6.4308,6.4791,6.5092,6.5138,6.5195,6.5288,6.5437,6.5565,6.5668,6.575,6.575,6.5824,5.8106,5.802,5.7906,5.9367,5.9635,5.9734,6.0302,6.0629,6.08,6.08,6.0993,6.1351,6.1985,6.2281,6.2627,6.3224,6.3288,6.3378,6.3628,6.3878,6.4339,6.5186,6.5493,6.5397,6.4769,6.4301,6.3916,6.3685,6.3878,6.4032,6.4032,6.4628,6.4955,6.4955,6.557,6.5897,6.5897,6.6474,6.7321,6.8417,6.9052,6.959,7.0033,7.0033,7.0033,7.0052,7.0648,7.0898,7.0898,7.0898,7.0898,7.0898,7.0898,7.0898,7.061,6.8167,6.7128,6.6955,6.6955,6.6782,6.659,6.659,6.659,6.659,6.659,6.6994,6.7455,6.7455,6.7744,6.8052,6.8052,6.7878,6.7782,6.7994,6.8052,6.8109,6.8359,6.8385,6.8385,6.8385,6.8157,6.8052,6.8358,6.8067,6.7668,6.7255,6.5638,6.4409,6.4289,6.4308,6.4308,6.4308,6.4308,6.4308,6.4308,6.4308,6.4308,6.4308,6.4846,6.5162,6.5162,6.5775,6.6109,6.6109,6.617,6.6265,6.6355,6.6528,6.6636,6.6739,6.6781,6.7121,5.7977,5.8296,5.8469,5.9296,6.0135,6.075,6.0769,6.08,6.08,6.08,6.1466,6.2082,6.2101,6.2743,6.3281,6.3288,6.3288,6.3608,6.4436,6.5282,6.6109,6.6917,6.7763,6.8269,6.8263,6.6782,6.5474,6.4628,6.534,6.582,6.582,6.584,6.5859,6.5859,6.5878,6.5897,6.5897,6.5917,6.6763,6.8385,6.8436,6.9302,7.086,7.086,7.086,7.086,7.0898,7.0898,7.0898,7.0898,7.0898,7.0898,7.0898,7.0898,7.0898,7.0783,7.0244,6.959,6.959,6.9033,6.8321,6.8321,6.8321,6.8321,6.8321,6.8327,6.8359,6.8359,6.7763,6.7128,6.7128,6.6551,6.6167,6.6936,6.7128,6.7359,6.8225,6.8385,6.8385,6.8385,6.8385,6.8385,6.8404,6.8067,6.7668,6.7255,6.6858,6.6483,6.6063,6.6035,6.6035,6.6035,6.6035,6.6035,6.6035,6.6035,6.6035,6.6035,6.6054,6.6072,6.6072,6.6091,6.6109,6.6109,6.617,6.6201,6.622,6.6466,6.6593,6.6614,6.6739,6.6821,5.8835,5.9108,5.93,6.0146,6.0569,6.08,6.08,6.08,6.0954,6.1543,6.1435,6.1743,6.3455,6.307,6.3051,6.4743,6.4551,6.4474,6.534,6.5724,6.6417,6.7802,6.8225,6.8629,6.9206,6.8225,6.7205,6.632,6.6532,6.6455,6.5917,6.5897,6.5897,6.5897,6.5897,6.5897,6.5897,6.5897,6.6744,6.8417,6.9533,7.036,7.0898,7.0898,7.0898,7.0898,7.0898,7.0898,7.0898,7.0898,7.0898,7.0898,7.0898,7.0898,7.0898,7.0898,7.0725,7.0494,7.0494,7.0302,7.0071,7.0071,7.0071,7.0071,7.0071,7.0071,7.0071,7.0071,6.986,6.961,6.961,6.9417,6.9283,6.9552,6.961,6.9706,6.9994,7.0071,7.0071,7.0071,7.0071,7.0071,7.0071,6.9734,6.9226,6.8558,6.7233,6.6238,6.6133,6.6109,6.6109,6.6109,6.6109,6.6109,6.6109,6.6109,6.6109,6.6109,6.6611,6.6908,6.6908,6.7428,6.7707,6.7707,6.7712,6.7765,6.7878,6.8039,6.8152,6.8203,6.8331,6.8396,5.9204,5.9492,5.9704,6.0569,6.08,6.0877,6.1185,6.1262,6.1416,6.1985,6.1877,6.2185,6.3839,6.3512,6.3724,6.5974,6.5859,6.5686,6.6244,6.6859,6.7532,6.8321,6.8667,6.9206,7.0052,6.936,6.8379,6.7186,6.709,6.6744,6.5936,6.5897,6.5897,6.5897,6.5897,6.6032,6.632,6.6032,6.6744,6.8417,7.011,7.0898,7.0898,7.0898,7.0898,7.0898,7.0898,7.0898,7.0898,7.0898,7.0898,7.0898,7.0898,7.0898,7.0898,7.0898,7.0898,7.0898,7.0898,7.0898,7.0898,7.0898,7.0898,7.0898,7.0898,7.0898,7.0898,7.0898,7.0898,7.0898,7.0898,7.0898,7.0898,7.0898,7.0898,7.0898,7.0898,7.0898,7.0898,7.0898,7.0898,7.0898,7.0898,7.0451,6.9959,6.9568,6.8187,6.7137,6.6988,6.6964,6.6964,6.6964,6.6964,6.6964,6.6964,6.6964,6.6964,6.6964,6.7447,6.7744,6.7744,6.8246,6.8481,6.8481,6.8481,6.853,6.8645,6.8763,6.8879,6.8979,6.9072,6.9138,5.9127,5.9569,5.9781,6.0646,6.0858,6.1089,6.1966,6.2139,6.212,6.2159,6.2704,6.3192,6.3269,6.3974,6.507,6.6705,6.7013,6.7032,6.7032,6.8456,6.9206,6.8436,6.9071,6.9879,7.0687,7.0071,6.8936,6.7225,6.7128,6.6801,6.5955,6.5897,6.5897,6.5897,6.5897,6.6263,6.7032,6.6359,6.6859,6.8494,7.0129,7.0898,7.0898,7.0898,7.0898,7.0898,7.0898,7.0898,7.0898,7.0898,7.0898,7.0898,7.0898,7.0898,7.0898,7.0898,7.0898,7.0898,7.0898,7.0898,7.0898,7.0898,7.0898,7.0898,7.0898,7.0898,7.0898,7.0898,7.0898,7.0898,7.0898,7.0898,7.0898,7.0898,7.0898,7.0898,7.0898,7.0898,7.0898,7.0898,7.0898,7.0898,7.0885,7.0255,6.9851,7.0219,6.9625,6.8997,6.8583,6.853,6.853,6.8506,6.8481,6.8481,6.8481,6.8481,6.8481,6.8481,6.8481,6.8481,6.8481,6.8481,6.8481,6.8481,6.8481,6.8481,6.8481,6.8626,6.8763,6.8879,6.8979,6.9072,6.0185,6.0473,6.0685,6.155,6.1774,6.1973,6.282,6.2531,6.2274,6.2878,6.2166,6.182,6.307,6.3481,6.3993,6.5051,6.5782,6.6205,6.6205,6.659,6.7013,6.7378,6.7628,6.809,6.8956,6.8859,6.8282,6.7167,6.7705,6.7436,6.5974,6.5897,6.5897,6.5897,6.5897,6.5994,6.6205,6.7244,6.8302,6.9379,7.0417,7.0898,7.0898,7.0898,7.0898,7.0898,7.0898,7.0898,7.0898,7.0898,7.0898,7.0898,7.0898,7.0898,7.0898,7.0898,7.0898,7.0898,7.0898,7.0898,7.0898,7.0898,7.0898,7.0898,7.0898,7.0898,7.0898,7.0898,7.0898,7.0898,7.0898,7.0898,7.0898,7.0898,7.0898,7.0898,7.0898,7.0898,7.0898,7.0898,7.0898,7.0791,7.0498,7.0269,7.0064,6.9887,6.9683,6.9407,6.9019,6.8952,6.8836,6.853,6.8481,6.8481,6.8481,6.8481,6.8481,6.8481,6.8481,6.8481,6.8481,6.8481,6.8481,6.8481,6.8481,6.8481,6.8481,6.8626,6.8716,6.8763,6.8915,6.9027,6.055,6.1069,6.1493,6.1985,6.2358,6.2743,6.3205,6.2954,6.2647,6.2743,6.2031,6.1762,6.307,6.3288,6.3839,6.5436,6.6109,6.6417,6.6417,6.6763,6.7013,6.709,6.709,6.7436,6.8321,6.8052,6.7628,6.7128,6.7552,6.7263,6.5974,6.5897,6.5897,6.5897,6.5897,6.607,6.6417,6.8129,6.9225,6.9706,7.0514,7.0898,7.0898,7.0898,7.0898,7.0898,7.0898,7.0898,7.0898,7.0898,7.0898,7.0898,7.0898,7.0898,7.0898,7.0898,7.0898,7.0898,7.0898,7.0898,7.0898,7.0898,7.0898,7.0898,7.0898,7.0898,7.0898,7.0898,7.0898,7.0898,7.0898,7.0898,7.0898,7.0898,7.0898,7.0898,7.0898,7.0898,7.0898,7.0898,7.0898,7.0824,7.0593,7.0416,7.0269,7.0219,6.9923,6.9606,6.9407,6.9219,6.8952,6.8535,6.8481,6.8481,6.8481,6.8481,6.8481,6.8481,6.8481,6.8481,6.8481,6.8481,6.8481,6.8481,6.8481,6.8481,6.8481,6.8597,6.8626,6.8716,6.8838,6.8911,6.0742,6.1524,6.2159,6.2389,6.2954,6.3462,6.3462,6.3378,6.307,6.2274,6.2005,6.2166,6.2993,6.3243,6.407,6.6378,6.6859,6.6936,6.6936,6.759,6.7802,6.7032,6.6936,6.7244,6.7994,6.7378,6.6936,6.6936,6.6936,6.6628,6.5936,6.5897,6.5897,6.5897,6.5994,6.6378,6.709,6.8821,6.9706,6.9706,7.0514,7.0898,7.0898,7.0898,7.0898,7.0898,7.0898,7.0898,7.0898,7.0898,7.0898,7.0898,7.0898,7.0898,7.0898,7.0898,7.0898,7.0898,7.0898,7.0898,7.0898,7.0898,7.0898,7.0898,7.0898,7.0898,7.0898,7.0898,7.0898,7.0898,7.0898,7.0898,7.0898,7.0898,7.0898,7.0898,7.0898,7.0898,7.0898,7.0898,7.0871,7.0838,7.0885,7.0578,7.0416,7.0762,7.0219,6.974,6.9625,6.9304,6.8952,6.8535,6.8481,6.8481,6.8481,6.8481,6.8481,6.8481,6.8481,6.8481,6.8481,6.8481,6.8481,6.8481,6.8481,6.8481,6.8481,6.8481,6.8554,6.8668,6.8692,6.8763,6.1639,6.1985,6.2428,6.382,6.4262,6.4378,6.4378,6.382,6.307,6.2274,6.1543,6.1281,6.2147,6.2858,6.3685,6.4839,6.5628,6.6109,6.6109,6.6244,6.6282,6.6128,6.6109,6.6167,6.632,6.6205,6.6109,6.6109,6.6109,6.6051,6.5897,6.5897,6.5897,6.5897,6.6551,6.6955,6.709,6.8821,6.9706,6.9706,7.0514,7.0898,7.0898,7.0898,7.0898,7.0898,7.0898,7.0898,7.0898,7.0898,7.0898,7.0898,7.0898,7.0898,7.0898,7.0898,7.0898,7.0898,7.0898,7.0898,7.0898,7.0898,7.0898,7.0898,7.0898,7.0898,7.0898,7.0898,7.0898,7.0898,7.0898,7.0898,7.0898,7.0898,7.0898,7.0898,7.0898,7.0898,7.0898,7.0898,7.0622,7.0513,7.0838,7.0578,7.0318,7.0385,7.0304,6.9959,6.9284,6.9134,6.8952,6.8535,6.8481,6.8481,6.8481,6.8481,6.8481,6.8481,6.8481,6.8481,6.8481,6.8481,6.8481,6.8481,6.8481,6.8481,6.8481,6.8481,6.8506,6.8548,6.8668,6.8716,6.0762,6.1704,6.2916,6.3724,6.4609,6.5032,6.4128,6.3608,6.2935,6.1685,6.1089,6.1069,6.1947,6.2416,6.2954,6.3801,6.5032,6.5743,6.5282,6.5974,6.6359,6.5955,6.5897,6.5897,6.5897,6.5897,6.5897,6.5897,6.5897,6.5897,6.5897,6.5897,6.5897,6.5897,6.6263,6.6667,6.709,6.8379,6.9244,6.9706,7.0514,7.0898,7.0898,7.0898,7.0898,7.0898,7.0898,7.0898,7.0898,7.0898,7.0898,7.0898,7.0898,7.0898,7.0898,7.0898,7.0898,7.0898,7.0898,7.0898,7.0898,7.0898,7.0898,7.0898,7.0898,7.0898,7.0898,7.0898,7.0898,7.0898,7.0898,7.0898,7.0898,7.0898,7.0898,7.0898,7.0898,7.0898,7.0898,7.0898,7.0578,7.0369,7.0543,7.0252,6.9977,6.9977,6.9814,6.9548,6.9155,6.8908,6.8712,6.853,6.8481,6.8481,6.8481,6.8481,6.8481,6.8481,6.8481,6.8481,6.8481,6.8481,6.8481,6.8481,6.8481,6.8481,6.8481,6.8481,6.8481,6.8481,6.8573,6.8597,6.0115,6.1512,6.3089,6.3262,6.4474,6.5166,6.3435,6.3185,6.282,6.1146,6.08,6.1069,6.1947,6.1947,6.2147,6.3147,6.4301,6.4974,6.4647,6.5724,6.6397,6.5955,6.5897,6.5897,6.5897,6.5897,6.5897,6.5897,6.5897,6.5897,6.5897,6.5897,6.5897,6.5897,6.607,6.6378,6.684,6.8071,6.8936,6.9436,7.0437,7.0898,7.0898,7.0898,7.0898,7.0898,7.0898,7.0898,7.0898,7.0898,7.0898,7.0898,7.0898,7.0898,7.0898,7.0898,7.0898,7.0898,7.0898,7.0898,7.0898,7.0898,7.0898,7.0898,7.0898,7.0898,7.0898,7.0898,7.0898,7.0898,7.0898,7.0898,7.0898,7.0898,7.0898,7.0898,7.0898,7.0898,7.0865,7.0796,7.0451,7.0203,7.0285,6.9887,6.9587,6.9683,6.9366,6.9066,6.8978,6.8707,6.8481,6.8481,6.8481,6.8481,6.8481,6.8481,6.8481,6.8481,6.8481,6.8481,6.8481,6.8481,6.8481,6.8481,6.8481,6.8481,6.8481,6.8481,6.8481,6.8481,6.8481,6.8481,6.1423,6.2043,6.2377,6.3128,6.4032,6.4282,6.2601,6.2781,6.282,6.1146,6.08,6.1069,6.1947,6.1447,6.1435,6.3051,6.282,6.2935,6.4397,6.4724,6.5109,6.5801,6.5897,6.5897,6.5897,6.5897,6.5897,6.5897,6.5897,6.5897,6.5897,6.5897,6.5897,6.5897,6.6609,6.6667,6.6013,6.8379,6.9225,6.8552,7.0148,7.0898,7.0898,7.0898,7.0898,7.0898,7.0898,7.0898,7.0898,7.0898,7.0898,7.0898,7.0898,7.0898,7.0898,7.0898,7.0898,7.0898,7.0898,7.0898,7.0898,7.0898,7.0898,7.0898,7.0898,7.0898,7.0898,7.0898,7.0898,7.0898,7.0898,7.0898,7.0898,7.0898,7.0898,7.0898,7.0898,7.0898,7.0777,7.0435,7.003,6.9869,7.0236,6.9645,6.9284,6.9645,6.9366,6.8975,6.8589,6.853,6.8481,6.8481,6.8481,6.8481,6.8481,6.8481,6.8481,6.8481,6.8481,6.8481,6.8481,6.8481,6.8481,6.8481,6.8481,6.8481,6.8481,6.8481,6.8481,6.8481,6.8481,6.8481,5.9672,6.0892,6.2178,6.2493,6.3608,6.4166,6.2486,6.2724,6.282,6.1146,6.08,6.0916,6.1243,6.1031,6.1012,6.1685,6.2377,6.3243,6.4436,6.5474,6.6224,6.6571,6.6609,6.6417,6.5955,6.5897,6.5897,6.5897,6.5897,6.5897,6.5897,6.5897,6.5897,6.5897,6.6205,6.6455,6.6609,6.8148,6.9013,6.9206,7.036,7.0898,7.0898,7.0898,7.0898,7.0898,7.0898,7.0898,7.0898,7.0898,7.0898,7.0898,7.0898,7.0898,7.0898,7.0898,7.0898,7.0898,7.0898,7.0898,7.0898,7.0898,7.0898,7.0898,7.0898,7.0898,7.0898,7.0898,7.0898,7.0898,7.0898,7.0898,7.0898,7.0898,7.0898,7.0898,7.0898,7.0898,7.0777,7.0385,6.9977,6.9664,6.9587,6.9112,6.8786,6.8952,6.8836,6.8665,6.853,6.8481,6.8481,6.8481,6.8481,6.8481,6.8481,6.8481,6.8481,6.8481,6.8481,6.8481,6.8481,6.8481,6.8481,6.8481,6.8481,6.8481,6.8481,6.8481,6.8481,6.8481,6.8481,6.8481,5.8525,5.9883,6.1353,6.1623,6.2769,6.3474,6.2043,6.2339,6.2454,6.0762,6.0608,6.0723,6.0454,6.0627,6.08,6.08,6.1781,6.2858,6.3743,6.5301,6.6359,6.6359,6.6801,6.6782,6.5974,6.5897,6.5897,6.5897,6.5897,6.5897,6.5897,6.6128,6.6147,6.5897,6.6128,6.6532,6.709,6.8225,6.909,6.9706,7.0514,7.0898,7.0898,7.0898,7.0898,7.0898,7.0898,7.0898,7.0898,7.0898,7.0898,7.0898,7.0898,7.0898,7.0898,7.0898,7.0898,7.0898,7.0898,7.0898,7.0898,7.0898,7.0898,7.0898,7.0898,7.0898,7.0898,7.0898,7.0898,7.0898,7.0898,7.0898,7.0898,7.0898,7.0898,7.0898,7.0898,7.081,7.0593,7.0203,6.9796,6.9428,6.9155,6.8763,6.8554,6.866,6.8583,6.8481,6.8481,6.8481,6.8481,6.8481,6.8481,6.8481,6.8481,6.8481,6.8481,6.8481,6.8481,6.8481,6.8481,6.8481,6.8481,6.8481,6.8481,6.8481,6.8481,6.8481,6.8481,6.8481,6.8481,6.8481,5.8827,5.935,5.9629,6.0505,6.1438,6.1908,6.1012,6.1493,6.162,5.9877,6.0204,6.0531,5.9665,6.0223,6.08,6.08,6.08,6.1127,6.2005,6.357,6.4628,6.4628,6.609,6.6782,6.5974,6.5897,6.5897,6.5897,6.5897,6.5897,6.5897,6.6647,6.6724,6.5917,6.6667,6.709,6.709,6.8821,6.9687,6.9706,7.0514,7.0898,7.0898,7.0898,7.0898,7.0898,7.0898,7.0898,7.0898,7.0898,7.0898,7.0898,7.0898,7.0898,7.0898,7.0898,7.0898,7.0898,7.0898,7.0898,7.0898,7.0898,7.0898,7.0898,7.0898,7.0898,7.0898,7.0898,7.0898,7.0898,7.0898,7.0898,7.0898,7.0898,7.0898,7.0898,7.0898,7.0593,7.0186,6.9777,6.9387,6.9091,6.9091,6.8763,6.8636,6.9022,6.874,6.8481,6.8481,6.8481,6.8481,6.8481,6.8481,6.8481,6.8481,6.8481,6.8481,6.8481,6.8481,6.8481,6.8481,6.8481,6.8481,6.8481,6.8481,6.8481,6.8481,6.8481,6.8481,6.8481,6.8481,6.8481,5.7379,5.8003,5.8582,5.8906,5.9634,6.0061,5.9269,5.9723,6.0012,5.8915,5.8896,5.9184,5.9454,5.9723,6.0108,6.0704,6.08,6.13,6.2724,6.4397,6.5493,6.5493,6.5955,6.6186,6.5917,6.5897,6.5897,6.5897,6.5897,6.5897,6.5897,6.6647,6.6974,6.6724,6.7552,6.8263,6.8879,6.9417,6.9975,7.0514,7.0783,7.0898,7.0898,7.0898,7.0898,7.0898,7.0898,7.0898,7.086,7.0302,7.0071,7.0014,6.9417,6.9186,6.9186,6.9186,6.9186,6.9186,6.9186,6.9186,6.9186,6.9186,6.9186,6.9302,6.9898,7.0456,7.0898,7.0898,7.0898,7.0898,7.0898,7.0898,7.0898,7.0898,7.0898,7.0824,7.0563,7.0385,7.0099,6.9408,6.9198,6.9,6.8735,6.8583,6.8535,6.8684,6.8583,6.8481,6.8481,6.8481,6.8481,6.8481,6.8481,6.8481,6.8481,6.8481,6.8481,6.8481,6.8481,6.8481,6.8481,6.8481,6.8481,6.8481,6.8481,6.8481,6.8481,6.8481,6.8481,6.8481,6.8481,6.8481,5.6588,5.7117,5.7658,5.8064,5.8549,5.8834,5.8393,5.8684,5.8819,5.7973,5.8069,5.8454,5.8954,5.93,5.9781,6.0666,6.08,6.1166,6.2204,6.3839,6.5166,6.582,6.5897,6.5897,6.5897,6.5897,6.5897,6.5897,6.5897,6.6032,6.634,6.6821,6.7244,6.7571,6.8436,6.9148,6.9687,6.9994,7.0398,7.0898,7.0591,7.0456,7.0437,7.011,6.9956,6.9956,6.9956,6.9956,0.0,6.9417,6.9206,6.9167,6.8609,6.8385,6.8385,6.8385,6.8385,6.8385,6.8385,6.8385,6.8385,6.8385,6.8385,6.85,6.9052,6.9994,7.0898,7.0898,7.0898,7.0898,7.0898,7.0898,7.0852,7.07,7.0671,7.0563,7.0169,6.9959,6.9702,6.9198,6.8997,6.8809,6.8535,6.8481,6.8481,6.8481,6.8481,6.8481,6.8481,6.8481,6.8481,6.8481,6.8481,6.8481,6.8481,6.8481,6.8481,6.8481,6.8481,6.8481,6.8481,6.8481,6.8481,6.8481,6.8481,6.8481,6.8481,6.8481,6.8481,6.8481,6.8481,6.8481,0.0,5.6563,5.6817,5.7697,5.7968,5.8027,5.8104,5.8127,0.0,5.708,5.755,5.8146,5.828,5.8915,5.9723,6.0646,6.08,6.08,6.08,6.2243,6.3974,6.5763,6.5936,6.5917,6.5974,6.5936,6.5897,6.5897,6.5897,6.6224,6.6974,6.7071,6.7475,6.8282,6.9148,6.961,6.961,7.036,7.0725,7.0706,6.9956,6.961,6.959,6.8783,6.8385,6.8385,6.8385,6.8385,6.8385,6.834,6.8321,6.8302,6.8244,6.8225,6.8225,6.8225,6.8225,6.8225,6.8225,6.8225,6.8225,6.8225,6.8263,6.8288,6.8275,6.9423,7.0725,7.0725,7.0764,7.0802,7.0802,7.0846,7.0762,7.0385,7.0269,7.0152,6.974,6.9366,6.9091,6.9047,6.8758,6.8481,6.8481,6.8481,6.8481,6.8481,6.8481,6.8481,6.8481,6.8481,6.8481,6.8481,6.8481,6.8481,6.8481,6.8481,6.8481,6.8481,6.8481,6.8481,6.8481,6.8481,6.8481,6.8481,6.8481,6.8481,6.8481,6.8481,6.8481,6.8481,6.8481,6.8481,5.5632,0.0,5.5779,5.6036,5.6129,5.6165,0.0,5.6299,5.6242,5.6049,5.6165,5.6722,5.805,5.8454,5.9069,6.055,6.08,6.08,6.08,6.2243,6.4185,6.6532,6.6263,6.6128,6.6763,6.6263,6.5897,6.5897,6.5897,6.5974,6.6167,6.6763,6.7186,6.7398,6.8244,6.8725,6.8725,6.8898,6.8994,6.8994,6.8802,6.8725,6.8706,6.8494,6.8385,6.8385,6.8385,6.8385,6.8359,6.7686,6.7398,6.734,6.6724,6.6494,6.6494,6.6494,6.6494,6.6494,6.6494,6.6494,6.6494,6.6494,6.6898,6.7358,6.7099,6.7932,6.8994,6.8994,6.9475,6.9975,6.9975,7.0211,7.0416,7.0318,7.0064,6.974,6.9325,6.9176,6.9,6.8688,6.856,6.8481,6.8481,6.8481,6.8481,6.8481,6.8481,6.8481,6.8481,6.8481,6.8481,6.8481,6.8481,6.8481,6.8481,6.8481,6.8481,6.8481,6.8481,6.8481,6.8481,6.8481,6.8481,6.8481,6.8481,6.8481,6.8481,6.8481,6.8481,6.8481,6.8481,6.8481,5.5403,5.5403,5.5409,5.5488,5.5504,5.5539,5.5662,5.5703,5.5703,5.5703,5.5703,5.6222,5.7992,5.83,5.8858,6.0531,6.1127,6.1559,6.2028,6.3469,6.4889,6.5921,6.628,6.6474,6.6532,6.6147,6.5897,6.5897,6.5897,6.6051,6.6417,6.6513,6.6724,6.709,6.7205,6.7628,6.8385,6.8385,6.8385,6.8385,6.7994,6.7802,6.7782,6.7417,6.7244,6.7244,6.7244,6.7244,6.7225,6.6744,6.6551,6.6513,6.607,6.5897,6.5897,6.5897,6.5897,6.5897,6.5897,6.5897,6.5885,6.5696,6.5923,6.6212,6.5824,6.618,6.6873,6.7657,6.8353,6.8886,6.91,6.9325,6.9519,6.9701,6.9587,6.9304,6.8908,6.8813,6.8763,6.8535,6.8481,6.8481,6.8481,6.8481,6.8481,6.8481,6.8481,6.8481,6.8481,6.8481,6.8481,6.8481,6.8481,6.8481,6.8481,6.8481,6.8481,6.8481,6.8481,6.8481,6.8481,6.8481,6.8481,6.8481,6.8481,6.8481,6.8481,6.8481,6.8481,6.8481,6.8481,6.8481,5.5403,5.5403,5.5409,5.5476,5.5492,5.5527,5.5671,5.5684,5.5703,5.5703,5.5703,5.6261,5.8146,5.8492,5.9088,6.0896,6.18,6.2575,6.3437,6.4791,6.5522,6.503,6.6128,6.6686,6.6128,6.5974,6.5897,6.5897,6.5897,6.6205,6.6878,6.6263,6.6205,6.6898,6.6263,6.6571,6.8013,6.8032,6.8032,6.8013,6.7263,6.6917,6.6878,6.6205,6.5897,6.5897,6.5897,6.5897,6.5897,6.5897,6.5897,6.5897,6.5897,6.5897,6.5897,6.5897,6.5897,6.5897,6.5897,6.5853,6.5755,6.5407,6.5268,6.514,6.4734,6.4664,6.4984,6.6351,6.7113,6.7616,6.803,6.8186,6.8337,6.8821,6.8878,6.8758,6.8565,6.8481,6.8481,6.8481,6.8481,6.8481,6.8481,6.8481,6.8444,6.8333,6.8314,6.8283,6.8153,6.811,6.811,6.811,6.811,6.811,6.811,6.811,6.811,6.811,6.8376,6.8481,6.8481,6.8481,6.8481,6.8481,6.8481,6.8481,6.8481,6.8481,6.8481,6.8481,6.8481,6.8481,5.5403,5.5403,5.5396,5.5415,5.5456,5.5516,5.5596,5.5651,5.5703,5.5703,5.5703,5.6434,5.8877,5.9319,6.0108,6.2531,6.3031,6.3178,6.331,6.4191,6.5025,6.5671,6.5942,6.6301,6.6859,6.6301,6.5897,6.5897,6.5897,6.5955,6.607,6.5974,6.5955,6.607,6.5955,6.6013,6.6282,6.6282,6.6282,6.6282,6.6147,6.607,6.607,6.5955,6.5897,6.5897,6.5897,6.5897,6.5897,6.5897,6.5897,6.5897,6.5897,6.5897,6.5897,6.5897,6.5897,6.5897,6.5897,6.5682,6.5378,6.5314,6.5073,6.4735,6.4388,6.4483,6.4631,6.4262,6.5195,6.6285,6.6384,6.6692,6.7168,6.7912,6.7808,6.7765,6.8357,6.8481,6.8481,6.8481,6.8481,6.8481,6.8481,6.8481,6.8283,6.7595,6.7484,6.7243,6.6574,6.6481,6.6481,6.6481,6.6481,6.6481,6.6481,6.6481,6.6481,6.6481,6.7763,6.8481,6.8481,6.8481,6.8481,6.8481,6.8481,6.8481,6.8481,6.8481,6.8481,6.8481,6.8481,6.8481,5.5403,5.5403,5.5498,5.5938,5.5752,5.5468,5.5527,5.5573,5.5596,5.5629,5.6025,5.6997,5.9096,5.9492,6.0339,6.2897,6.3288,6.3657,6.4682,6.5464,6.5967,6.5994,6.6331,6.6513,6.6455,6.6109,6.5897,6.5897,6.5897,6.5897,6.5897,6.5897,6.5897,6.5897,6.5897,6.5897,6.5897,6.5897,6.5897,6.5897,6.5897,6.5897,6.5897,6.5897,6.5897,6.5897,6.5897,6.5897,6.5897,6.5897,6.5897,6.5897,6.5897,6.5897,6.5897,6.5897,6.5897,6.5885,6.5649,6.5456,6.5238,6.4843,6.4575,6.4369,6.3984,6.3965,6.4029,6.3695,6.4306,6.5066,6.5298,6.5502,6.5892,6.6732,6.7109,6.741,6.7781,6.8184,6.8481,6.8481,6.8153,6.7855,6.7855,6.7503,6.7094,6.6722,6.6648,6.6537,6.6165,6.6109,6.6109,6.6109,6.6109,6.6109,6.6109,6.6109,6.6109,6.6109,6.6797,6.7205,6.7205,6.7205,6.7428,6.7855,6.7855,6.8054,6.8481,6.8481,6.8481,6.8481,6.8481,6.8481,5.5403,5.5403,5.5556,5.6167,5.6008,5.5765,5.6024,5.6106,5.611,5.6176,5.6871,5.8031,5.9807,6.0476,6.1315,6.3076,6.351,6.4111,6.5539,6.6379,6.655,6.584,6.6386,6.6494,6.5686,6.5782,6.5897,6.5897,6.5897,6.5897,6.5897,6.5897,6.5897,6.5897,6.5897,6.5897,6.5897,6.5897,6.5897,6.5897,6.5897,6.5897,6.5897,6.5897,6.5897,6.5897,6.5897,6.5897,6.5897,6.5897,6.5897,6.5897,6.5897,6.5897,6.5897,6.5781,6.5768,6.5709,6.5299,6.5109,6.4962,6.4388,6.4149,6.3984,6.3695,6.3602,6.3602,6.3602,6.383,6.4133,6.4454,6.4508,6.4735,6.5589,6.6277,6.6778,6.6982,6.767,6.8147,6.7986,6.7595,6.7243,6.7057,6.6518,6.6035,6.5831,6.5812,6.5738,6.5552,6.5515,6.5515,6.5515,6.5515,6.5515,6.5515,6.5515,6.5515,6.5515,6.5887,6.6109,6.6109,6.6109,6.6407,6.702,6.7038,6.7335,6.7948,6.7948,6.7948,6.7948,6.7948,6.7948,5.5403,5.5403,5.5422,5.5479,5.6046,5.6805,5.7641,5.787,5.792,5.792,5.8614,5.9788,6.1657,6.3331,6.4231,6.3661,6.4097,6.4551,6.4691,6.5448,6.5679,6.4806,6.5467,6.5647,6.4782,6.5436,6.5897,6.5897,6.5897,6.5897,6.5897,6.5897,6.5897,6.5897,6.5897,6.5897,6.5897,6.5897,6.5897,6.5897,6.5897,6.5897,6.5897,6.5897,6.5897,6.5897,6.5897,6.5897,6.5897,6.5897,6.5897,6.5897,6.5897,6.5897,6.5853,6.5485,6.5329,6.5284,6.489,6.4538,6.427,6.421,6.3939,6.3647,6.3602,6.3602,6.3602,6.3602,6.3624,6.3665,6.3676,6.3695,6.3876,6.4693,6.4935,6.5195,6.6017,6.6834,6.7187,6.6425,6.6834,6.7075,6.6332,6.6147,6.5831,6.5009,6.4879,6.4619,6.3899,6.3788,6.3788,6.3788,6.3788,6.3788,6.3788,6.3788,6.3788,6.3788,6.5255,6.6109,6.6109,6.6109,6.6128,6.6202,6.6202,6.6221,6.6277,6.6277,6.6277,6.6277,6.6277,6.6277,5.5403,5.5766,5.6301,5.6925,5.7337,5.7522,5.7342,5.7824,5.8289,5.8351,5.8982,6.0093,6.193,6.3143,6.3825,6.3642,6.3301,6.3224,6.3724,6.4089,6.4166,6.3839,6.4089,6.4147,6.382,6.4089,6.4512,6.5051,6.5089,6.532,6.5859,6.5897,6.5897,6.5897,6.5897,6.5897,6.5897,6.5897,6.5897,6.5897,6.5897,6.5897,6.5897,6.5897,6.5897,6.5897,6.5897,6.5897,6.5897,6.5897,6.5897,6.5885,6.5622,6.5532,6.5485,6.5073,6.4923,6.4873,6.452,6.431,6.4169,6.3897,6.3717,6.3602,6.3602,6.3602,6.3602,6.3602,6.3602,6.3602,6.3602,6.3602,6.3672,6.3969,6.4433,6.473,6.4586,6.5181,6.5515,6.4716,6.4791,6.4902,6.4605,6.4549,6.4438,6.4081,6.4043,6.3955,6.3657,6.3602,6.3602,6.3602,6.3602,6.3602,6.3602,6.3602,6.3602,6.3602,6.4196,6.4549,6.4549,6.4549,6.4791,6.5292,6.5292,6.5571,6.6109,6.6109,6.6109,6.6109,6.6109,6.6109,5.5403,5.5995,5.6773,5.752,5.815,5.8446,5.7963,5.8112,5.8452,5.8781,5.9969,6.1243,6.2196,6.2965,6.331,6.2859,6.2395,6.2281,6.2839,6.3147,6.3224,6.2954,6.3147,6.3192,6.2954,6.3147,6.3551,6.4147,6.4185,6.4455,6.5051,6.507,6.5205,6.5474,6.5493,6.5609,6.5897,6.5897,6.5897,6.5897,6.5897,6.5897,6.5897,6.5897,6.5897,6.5897,6.5897,6.5827,6.5709,6.5709,6.5635,6.5499,6.5219,6.5105,6.5057,6.4682,6.4538,6.4482,6.413,6.4023,6.396,6.3673,6.3602,6.3602,6.3602,6.3602,6.3602,6.3602,6.3602,6.3602,6.3602,6.3602,6.3602,6.3602,6.3821,6.3876,6.3342,6.3635,6.3783,6.3007,6.3063,6.323,6.323,6.323,6.3323,6.3565,6.3602,6.3602,6.3602,6.3602,6.3602,6.3602,6.3602,6.3602,6.3602,6.3602,6.3602,6.3602,6.3602,6.3602,6.3602,6.3602,6.3858,6.4396,6.4438,6.4716,6.5311,6.5311,6.5311,6.5311,6.5311,6.5311,5.5422,5.5995,5.6671,5.6879,5.8269,5.9659,5.9856,5.908,5.8566,5.9424,6.1879,6.3592,6.2663,6.3194,6.3169,6.1329,6.1612,6.2082,6.2101,6.2762,6.2974,6.2178,6.2781,6.2954,6.2159,6.282,6.3269,6.3288,6.3288,6.3288,6.3288,6.3288,6.3705,6.457,6.4589,6.5013,6.5878,6.5878,6.5878,6.5897,6.5897,6.5897,6.5897,6.5897,6.5897,6.5897,6.5897,6.5682,6.5284,6.5284,6.5057,6.4699,6.4699,6.4699,6.4646,6.433,6.419,6.4149,6.3739,6.3602,6.3602,6.3602,6.3602,6.3602,6.3602,6.3602,6.3602,6.3602,6.3602,6.3602,6.3579,6.3579,6.3579,6.3579,6.297,6.2394,6.2394,6.2394,6.2153,6.1336,6.1837,6.2394,6.2394,6.2394,6.2673,6.3472,6.3602,6.3602,6.3602,6.3602,6.3602,6.3602,6.3602,6.3602,6.3602,6.3602,6.3602,6.3602,6.3602,6.3602,6.3602,6.3602,6.3602,6.3602,6.3602,6.3602,6.3602,6.3602,6.3602,6.3602,6.3602,6.3602,5.6243,5.7275,5.8438,5.8737,5.9192,5.9679,5.9964,5.9786,5.9464,5.9107,6.1143,6.2743,6.1929,6.24,6.2706,6.2156,6.1648,6.1297,6.1189,6.1396,6.1454,6.1204,6.1396,6.1454,6.1204,6.1396,6.18,6.2397,6.2454,6.2704,6.3281,6.3288,6.3423,6.3685,6.3685,6.4109,6.4974,6.4993,6.5282,6.5897,6.5897,6.5897,6.5897,6.5897,6.5755,6.547,6.547,6.5253,6.489,6.489,6.4803,6.4681,6.4445,6.435,6.4291,6.3918,6.3783,6.3761,6.3647,6.3602,6.3602,6.3602,6.3602,6.3602,6.3602,6.3602,6.3602,6.3602,6.3602,6.3472,6.2914,6.2766,6.2766,6.2766,6.2153,6.1391,6.0778,6.0627,6.0407,5.9608,6.0091,6.0627,6.0627,6.1633,6.2487,6.2729,6.3249,6.3602,6.3602,6.3602,6.3602,6.3602,6.3602,6.3602,6.3602,6.3602,6.3602,6.3602,6.3602,6.3602,6.3602,6.3602,6.3602,6.3602,6.3602,6.3602,6.3602,6.3602,6.3602,6.3602,6.3602,6.3602,5.6587,5.7876,5.9281,5.9545,5.9891,6.017,6.0114,6.0125,5.9996,5.9489,6.1167,6.2466,6.1656,6.2116,6.2458,6.1974,6.1412,6.0944,6.0816,6.08,6.08,6.08,6.08,6.08,6.08,6.08,6.1012,6.1543,6.1581,6.18,6.2281,6.232,6.2474,6.282,6.282,6.3224,6.4089,6.4436,6.4859,6.5397,6.5569,6.5649,6.5649,6.5649,6.5532,6.5284,6.4995,6.4719,6.4482,6.4331,6.4273,6.4233,6.4027,6.396,6.3939,6.3673,6.3602,6.3602,6.3602,6.3602,6.3602,6.3602,6.3602,6.3602,6.3602,6.3602,6.3602,6.3602,6.3379,6.3026,6.2543,6.1911,6.1503,6.1856,6.1298,6.0555,6.0017,5.9643,5.9292,5.8791,5.9107,5.9534,5.9828,6.0741,6.1633,6.2301,6.3082,6.3602,6.3602,6.3602,6.3602,6.3602,6.3602,6.3602,6.3602,6.3602,6.3602,6.3602,6.3602,6.3602,6.3602,6.3602,6.3602,6.3602,6.3602,6.3602,6.3602,6.3602,6.3602,6.3602,6.3602,6.3602,5.6702,5.8023,5.9446,5.9674,6.0422,6.0971,6.0369,6.0274,6.03,6.0195,6.1569,6.2501,6.1571,6.2108,6.2335,6.1208,6.103,6.0974,6.0827,6.08,6.08,6.08,6.08,6.08,6.08,6.08,6.08,6.08,6.08,6.08,6.08,6.08,6.1146,6.1966,6.1985,6.2358,6.3185,6.3974,6.4423,6.4552,6.4973,6.5207,6.5253,6.5253,6.5238,6.5156,6.4445,6.4149,6.4128,6.3761,6.3602,6.3602,6.3602,6.3602,6.3602,6.3602,6.3602,6.3602,6.3602,6.3602,6.3602,6.3602,6.3602,6.3602,6.3602,6.3602,6.3583,6.3527,6.297,6.2376,6.2209,6.1035,6.007,6.0797,6.037,5.9794,5.9794,5.9237,5.8716,5.8716,5.8716,5.8939,5.9664,5.9868,6.0481,6.2153,6.3026,6.3527,6.3579,6.3602,6.3602,6.3602,6.3602,6.3602,6.3602,6.3602,6.3602,6.3602,6.3602,6.3602,6.3602,6.3602,6.3602,6.3602,6.3602,6.3602,6.3602,6.3602,6.3602,6.3602,6.3602,6.3602,5.7428,5.8483,5.96,6.0426,6.0979,6.1306,6.116,6.1162,6.0859,5.9552,6.0672,6.1621,6.0782,6.1351,6.1771,6.1245,6.1155,6.107,6.0831,6.08,6.08,6.08,6.08,6.08,6.08,6.08,6.08,6.08,6.08,6.08,6.08,6.08,6.0877,6.1069,6.1069,6.1493,6.2339,6.2543,6.313,6.4126,6.4225,6.4473,6.482,6.482,6.4701,6.4407,6.3939,6.3717,6.3717,6.3647,6.3602,6.3602,6.3602,6.3602,6.3602,6.3602,6.3602,6.3602,6.3602,6.3602,6.3602,6.3602,6.3602,6.3602,6.3602,6.3602,6.3472,6.284,6.2543,6.2116,6.0797,6.0163,5.9794,5.9348,5.9107,5.8977,5.8977,5.8828,5.8716,5.8716,5.8716,5.8754,5.8939,5.9497,6.0481,6.2153,6.2562,6.2896,6.3527,6.3602,6.3602,6.3602,6.3602,6.3602,6.3602,6.3602,6.3602,6.3602,6.3602,6.3602,6.3602,6.3602,6.3602,6.3602,6.3602,6.3602,6.3602,6.3602,6.3602,6.3602,6.3602,6.3602,5.7657,5.8636,5.9661,6.0731,6.1203,6.1393,6.1393,6.146,6.1242,6.0375,6.0945,6.1472,6.1091,6.1345,6.1517,6.1246,6.1147,6.1028,6.0839,6.08,6.08,6.08,6.08,6.08,6.08,6.08,6.08,6.08,6.08,6.08,6.08,6.08,6.08,6.08,6.08,6.1125,6.1812,6.2227,6.2868,6.3756,6.3989,6.4104,6.4193,6.4369,6.4252,6.3897,6.3673,6.3602,6.3602,6.3602,6.3602,6.3602,6.3602,6.3602,6.3602,6.3602,6.3602,6.3602,6.3602,6.3602,6.3602,6.3602,6.3602,6.3546,6.3156,6.3044,6.2859,6.206,6.1521,6.1001,6.0147,5.9627,5.9237,5.8809,5.8716,5.8716,5.8716,5.8716,5.8716,5.8716,5.8716,5.8716,5.8716,5.9385,6.0202,6.1076,6.1577,6.1986,6.2413,6.2803,6.3044,6.3044,6.3379,6.3602,6.3602,6.3602,6.3602,6.3602,6.3602,6.3602,6.3602,6.3602,6.3602,6.3602,6.3602,6.3602,6.3602,6.3602,6.3602,6.3602,6.3602,6.3447,5.7447,5.8521,5.9673,6.078,6.12,6.1344,6.1344,6.1383,6.1445,6.1461,6.1532,6.1595,6.166,6.1549,6.139,6.1192,6.1062,6.0944,6.0816,6.08,6.08,6.08,6.08,6.08,6.08,6.08,6.08,6.08,6.08,6.08,6.08,6.08,6.0846,6.0921,6.0921,6.1147,6.1624,6.233,6.2921,6.3401,6.3875,6.3918,6.3602,6.3939,6.3918,6.3602,6.3602,6.3602,6.3602,6.3602,6.3602,6.3602,6.3602,6.3602,6.3602,6.3602,6.3602,6.3602,6.3602,6.3602,6.3583,6.3453,6.3397,6.3249,6.245,6.219,6.2023,6.1224,6.0463,5.9865,5.9738,5.9218,5.8716,5.8716,5.8716,5.8716,5.8716,5.8716,5.8716,5.8716,5.8716,5.8716,5.8716,5.9255,5.9735,5.9887,6.0518,6.1038,6.1187,6.1781,6.219,6.219,6.2803,6.3193,6.3193,6.3193,6.3193,6.3193,6.3323,6.3397,6.3397,6.3546,6.3602,6.3602,6.3602,6.3602,6.3602,6.3602,6.3602,6.3598,6.3492,6.3181,5.6549,5.8062,5.965,6.0659,6.1041,6.1148,6.1148,6.1145,6.1194,6.1297,6.1429,6.1524,6.1528,6.1365,6.1192,6.1055,6.102,6.0944,6.0816,6.08,6.08,6.08,6.08,6.08,6.08,6.08,6.08,6.08,6.08,6.08,6.08,6.08,6.098,6.1387,6.1406,6.1629,6.2098,6.2231,6.2515,6.299,6.3462,6.3647,6.3602,6.3669,6.3647,6.3602,6.3602,6.3602,6.3602,6.3602,6.3602,6.3602,6.3602,6.3602,6.3602,6.3602,6.3602,6.3602,6.3602,6.3602,6.349,6.2803,6.2562,6.2413,6.1596,6.1373,6.1187,6.0333,5.9977,5.9735,5.9051,5.8791,5.8716,5.8716,5.8716,5.8716,5.8716,5.8716,5.8716,5.8716,5.8716,5.8716,5.8716,5.8791,5.9107,5.9791,6.0017,6.0351,6.1113,6.1298,6.1373,6.1373,6.1466,6.1521,6.1521,6.1521,6.1521,6.1521,6.2171,6.2562,6.2562,6.3249,6.3602,6.3602,6.3602,6.3602,6.3602,6.3602,6.3602,6.3579,6.3068,6.2788,5.6377,5.7966,5.9518,5.9946,6.0524,6.0993,6.0993,6.1021,6.1057,6.1117,6.1112,6.1155,6.1298,6.1604,6.1643,6.1089,6.1349,6.1426,6.0881,6.08,6.08,6.08,6.08,6.08,6.08,6.08,6.08,6.08,6.1243,6.1543,6.1543,6.1301,6.1521,6.2209,6.1572,6.1662,6.2579,6.2598,6.2821,6.3291,6.3505,6.3602,6.3602,6.3602,6.3602,6.3602,6.3602,6.3602,6.3602,6.3602,6.3602,6.3602,6.3602,6.3602,6.3565,6.31,6.2933,6.2859,6.2413,6.2264,6.2209,6.1837,6.1744,6.1577,6.0741,6.0481,6.0314,5.9478,5.9237,5.9162,5.8791,5.8716,5.8716,5.8716,5.8716,5.8716,5.8716,5.8716,5.8716,5.8716,5.8716,5.8716,5.8716,5.8716,5.8828,5.9181,5.9237,5.9385,5.9757,6.0202,6.0481,6.0481,6.0908,6.1391,6.1837,6.1874,6.206,6.2524,6.2896,6.3082,6.3082,6.3416,6.3602,6.3602,6.3602,6.3602,6.3602,6.3602,6.3424,6.3091,6.2837,6.2347,5.6377,5.7621,5.8788,5.9229,5.9931,6.0578,6.079,6.0862,6.0905,6.0915,6.0822,6.0803,6.1025,6.1514,6.1754,6.134,6.1753,6.1947,6.1493,6.1262,6.1127,6.1127,6.1127,6.1031,6.0819,6.1185,6.1358,6.1146,6.1836,6.2279,6.2279,6.1898,6.2022,6.2804,6.1953,6.1995,6.3069,6.3087,6.3238,6.3602,6.3602,6.3602,6.3602,6.3602,6.3602,6.3602,6.3602,6.3602,6.3602,6.3602,6.3602,6.3602,6.3602,6.3602,6.3546,6.2933,6.271,6.2636,6.2023,6.1689,6.1484,6.128,6.1057,6.0723,5.9868,5.9608,5.9457,5.8884,5.8716,5.8716,5.8716,5.8716,5.8716,5.8716,5.8716,5.8716,5.8716,5.8716,5.8716,5.8716,5.8716,5.8716,5.8716,5.8716,5.8716,5.8716,5.8716,5.8716,5.8716,5.9237,5.9682,5.9887,6.0481,6.1206,6.2041,6.2116,6.2357,6.2952,6.3193,6.3305,6.3305,6.349,6.3602,6.3602,6.3447,6.3382,6.3382,6.3382,6.3068,6.2493,6.2321,6.1806,5.6377,5.6677,5.7129,5.8721,5.93,5.9691,6.0441,6.0613,6.0638,6.0696,6.061,6.0559,6.069,6.0772,6.106,6.192,6.2062,6.2339,6.307,6.2512,6.2043,6.2043,6.2043,6.1716,6.0877,6.2243,6.2858,6.2101,6.25,6.2753,6.2753,6.2379,6.2384,6.2878,6.282,6.305,6.355,6.355,6.3587,6.3602,6.3602,6.3602,6.3602,6.3602,6.3602,6.3602,6.3602,6.3602,6.3602,6.3602,6.3602,6.3602,6.3602,6.3602,6.3579,6.3565,6.3546,6.3546,6.349,6.2989,6.2209,6.1447,6.0648,5.9831,5.9014,5.8772,5.8754,5.8716,5.8716,5.8716,5.8716,5.8716,5.8716,5.8716,5.8716,5.8716,5.8716,5.8716,5.8716,5.8716,5.8716,5.8716,5.8716,5.8716,5.8716,5.8716,5.8716,5.8716,5.8716,5.8754,5.9051,5.9831,5.9942,6.0333,6.1187,6.1261,6.128,6.1317,6.2041,6.2469,6.2469,6.3193,6.3602,6.3602,6.3044,6.2745,6.2745,6.2745,6.2468,6.1924,6.1336,6.1063,5.5366,5.6014,5.674,5.7351,5.7972,5.8521,5.8808,5.9268,5.9632,5.9677,6.0083,6.0472,6.0546,6.1096,6.1478,6.13,6.2166,6.2781,6.2551,6.2724,6.2878,6.2878,6.2878,6.2743,6.2435,6.2954,6.3185,6.2897,6.3297,6.3565,6.3565,6.2978,6.2974,6.3721,6.2986,6.292,6.3602,6.3602,6.3602,6.3602,6.3602,6.3602,6.3602,6.3602,6.3602,6.3602,6.3602,6.3602,6.3602,6.3602,6.3602,6.3602,6.3602,6.3602,6.3546,6.3026,6.284,6.2766,6.2246,6.1874,6.1503,6.0648,6.0165,5.9735,5.8939,5.8716,5.8716,5.8716,5.8716,5.8716,5.8716,5.8716,5.8716,5.8716,5.8716,5.8716,5.8716,5.8716,5.8716,5.8716,5.8716,5.8716,5.8716,5.8716,5.8716,5.8716,5.8716,5.8716,5.8716,5.9162,5.9589,5.9865,6.0407,6.1076,6.1911,6.1986,6.1986,6.1986,6.2246,6.2171,6.1651,6.1583,6.155,6.155,6.0957,6.1332,6.2695,6.2339,6.1833,6.1127,6.0909,6.0551,5.4639,5.5298,5.6071,5.6357,5.6941,5.7542,5.7829,5.8517,5.9095,5.9095,5.9797,6.0417,6.0485,6.1057,6.1435,6.1233,6.2154,6.2801,6.2531,6.2954,6.3288,6.3288,6.357,6.3628,6.3339,6.3713,6.384,6.3552,6.3871,6.4056,6.4056,6.3464,6.3404,6.3984,6.3218,6.3063,6.3579,6.3557,6.3557,6.3602,6.3511,6.3488,6.3534,6.3488,6.3465,6.3465,6.3465,6.3511,6.3602,6.3602,6.3602,6.3602,6.3602,6.3602,6.3546,6.3007,6.2803,6.2747,6.219,6.1837,6.1466,6.0611,6.0147,5.9735,5.8939,5.8716,5.8716,5.8716,5.8716,5.8716,5.8716,5.8716,5.8716,5.8716,5.8716,5.8716,5.8716,5.8716,5.8716,5.8716,5.8716,5.8716,5.8716,5.8716,5.8716,5.8716,5.8716,5.8809,5.9069,5.9403,5.9741,6.0037,6.0402,6.0932,6.1666,6.1528,6.1505,6.1721,6.1546,6.1195,6.0642,6.0298,6.0084,6.0041,5.9426,5.9799,6.1196,6.0883,6.0357,5.965,5.9602,5.9296,0.0,0.0,0.0,5.5849,5.6293,5.6765,5.763,5.8432,5.9005,5.9048,5.9764,6.0365,6.0453,6.0499,6.082,6.1812,6.2021,6.2377,6.3154,6.3269,6.3288,6.3288,6.407,6.425,6.3404,6.4536,6.494,6.4084,6.4122,6.419,6.419,6.3808,6.3602,6.3602,6.3602,6.3602,6.3579,6.3488,6.347,6.3598,6.3307,6.326,6.34,6.326,6.3213,6.3213,6.3213,6.3331,6.3579,6.3579,6.3579,6.3579,6.3579,6.3579,6.3579,6.3579,6.3579,6.3579,6.3602,6.31,6.2301,6.1503,6.0667,5.9831,5.8995,5.8754,5.8735,5.8716,5.8716,5.8716,5.8716,5.8716,5.8716,5.8716,5.8696,5.8696,5.8696,5.8656,5.8656,5.8656,5.8696,5.8696,5.8696,5.8656,5.8656,5.8677,5.8656,5.8935,5.9733,5.9388,5.9381,6.0254,5.9841,5.9739,6.0316,5.9848,5.9754,6.0303,5.9787,5.945,5.9432,5.9406,5.9353,5.923,5.8619,5.8236,5.8107,5.8289,5.8095,5.7594,5.7384,5.7303,5.387,0.0,0.0,0.0,0.0,0.0,5.5972,5.6328,5.6835,5.7991,5.8678,5.9281,5.987,6.0261,6.0589,6.0878,6.1499,6.203,6.226,6.2836,6.3226,6.3226,6.4045,6.4398,6.3862,6.4713,6.5077,6.4548,6.4313,6.419,6.419,6.3808,6.3602,6.3602,6.3602,6.3557,6.3447,6.3424,6.3377,6.3307,6.3237,6.3213,6.326,6.3213,6.3213,6.3213,6.3213,6.3237,6.3307,6.3307,6.3307,6.3307,6.3307,6.3307,6.3307,6.3424,6.3447,6.347,6.3557,6.3453,6.3156,6.2339,6.1911,6.1447,6.0017,5.9571,5.9459,5.8865,5.8716,5.8716,5.8716,5.8716,5.8716,5.8716,5.8406,5.8105,5.8105,5.7812,5.7671,5.806,5.8105,5.8105,5.8105,5.7812,5.7677,5.806,5.7789,5.7607,5.7868,5.8257,5.8612,5.8856,5.9255,5.9574,5.9729,5.96,5.932,5.8928,5.8722,5.8373,5.7786,5.7244,5.6957,5.6902,5.6264,5.5919,5.5889,5.7022,5.7458,5.7161,5.6999,5.6952,0.0,0.0,0.0,5.4052,0.0,0.0,5.488,5.5254,5.5853,5.7132,5.7644,5.8096,5.891,5.9011,5.9068,5.9395,5.9916,6.0478,6.1028,6.1996,6.2605,6.2426,6.3201,6.3791,6.3936,6.4125,6.4323,6.4482,6.4151,6.3939,6.3878,6.3587,6.3442,6.3442,6.3442,6.3419,6.3331,6.3242,6.3218,6.3213,6.3093,6.3051,6.3099,6.3069,6.3026,6.3026,6.3026,6.3026,6.3026,6.3026,6.3093,6.3213,6.3213,6.3213,6.3213,6.3354,6.34,6.3424,6.3557,6.3602,6.3472,6.2673,6.2413,6.2171,6.0853,6.0202,5.977,5.9057,5.8452,5.8082,5.8319,5.8213,5.8037,5.8037,5.7789,5.7558,5.7558,5.7315,5.7191,5.751,5.7558,5.7558,5.7558,5.7315,5.7216,5.751,5.7315,5.7224,5.755,5.7778,5.7935,5.798,5.816,5.8249,5.8169,5.7963,5.7729,5.7485,5.7182,5.6804,5.633,5.5841,5.5572,5.5484,5.5126,5.4886,5.4776,5.5772,5.6143,5.5951,5.5872,5.5839,0.0,0.0,0.0,5.3643,5.3907,0.0,5.4289,5.4794,5.5505,5.6405,5.659,5.685,5.7639,5.7262,5.7034,5.7749,5.7937,5.8452,5.9732,6.0886,6.1487,6.113,6.1799,6.2614,6.341,6.2956,6.2999,6.3902,6.3708,6.3511,6.3377,6.326,6.3213,6.3213,6.3213,6.3189,6.3189,6.3051,6.3051,6.3165,6.2904,6.2855,6.2978,6.2855,6.278,6.278,6.278,6.278,6.278,6.278,6.2929,6.3165,6.3165,6.3165,6.3165,6.3307,6.3354,6.3377,6.3534,6.3579,6.3468,6.2744,6.2543,6.2372,6.1493,6.0692,5.9915,5.92,5.816,5.7325,5.7713,5.7462,5.7116,5.7116,5.7047,5.7015,5.7015,5.6964,5.6938,5.6938,5.6964,5.7015,5.7015,5.6964,5.6938,5.7015,5.6964,5.7191,5.7921,5.7513,5.7199,5.729,5.6811,5.6429,5.6217,5.5775,5.5706,5.6146,5.5549,5.5199,5.5169,5.5035,5.4917,5.478,5.4797,5.4686,5.4512,5.4686,5.4686,5.4512,5.4512,5.4512,5.2563,5.2915,5.3314,5.3314,5.3357,0.0,5.423,5.399,5.4066,5.5523,5.5572,5.5603,5.6403,5.6687,5.6846,5.7015,5.758,5.833,5.9247,5.9614,5.9777,5.969,6.0495,6.1009,6.0867,6.1349,6.1871,6.2376,6.2942,6.326,6.3237,6.3213,6.3213,6.3213,6.3213,6.3165,6.3051,6.3026,6.2953,6.2898,6.2823,6.2805,6.283,6.2805,6.278,6.278,6.278,6.278,6.278,6.278,6.2848,6.2898,6.2898,6.2898,6.288,6.3026,6.3075,6.3123,6.3354,6.3447,6.3428,6.3371,6.3379,6.3121,6.1821,6.1316,6.0816,5.896,5.8279,5.7931,5.7404,5.7191,5.7116,5.7116,5.6757,5.6456,5.6456,5.6108,5.5804,5.5804,5.6164,5.6456,5.6456,5.6108,5.5957,5.6375,5.608,5.5875,5.6016,5.5947,5.5877,5.5877,5.5777,5.5695,5.5654,5.5566,5.549,5.542,5.5271,5.5139,5.5035,5.4917,5.4811,5.4797,5.4637,5.4543,5.4512,5.4543,5.4543,5.4512,5.4512,5.4512,5.2012,5.2197,5.2408,5.2408,5.2408,0.0,0.0,5.2899,5.3152,5.436,5.4332,5.4351,5.5163,5.5143,5.5133,5.5542,5.5951,5.649,5.7288,5.8465,5.9178,5.897,5.9383,5.9756,6.0026,6.0248,6.0685,6.1352,6.1708,6.2085,6.249,6.2437,6.2597,6.3002,6.2996,6.2953,6.2904,6.2904,6.2855,6.278,6.278,6.278,6.278,6.278,6.278,6.278,6.278,6.278,6.278,6.278,6.278,6.278,6.278,6.278,6.2823,6.2953,6.3002,6.3026,6.3237,6.3354,6.3359,6.3128,6.311,6.297,6.1985,6.123,6.0394,5.919,5.8179,5.7509,5.7783,5.7074,5.6401,5.6775,5.6347,5.5918,5.5918,5.5695,5.5507,5.5507,5.5706,5.5918,5.5918,5.5695,5.5578,5.5861,5.5666,5.5507,5.5507,5.5507,5.5507,5.5507,5.5401,5.5354,5.5354,5.5312,5.5221,5.5126,5.5053,5.4961,5.4886,5.4731,5.4655,5.4655,5.4543,5.4512,5.4512,5.4512,5.4512,5.4512,5.4512,5.4512,5.1442,5.1518,5.1601,5.1601,5.1601,5.1601,0.0,0.0,0.0,5.3062,5.3045,5.3091,5.3752,5.3328,5.3098,5.3679,5.4049,5.4459,5.506,5.708,5.8404,5.806,5.8037,5.8373,5.9292,5.9376,5.9693,6.043,6.0522,6.0843,6.1482,6.1551,6.1906,6.2567,6.2707,6.278,6.278,6.278,6.278,6.278,6.278,6.278,6.278,6.278,6.278,6.278,6.278,6.278,6.278,6.278,6.273,6.2636,6.2755,6.278,6.2805,6.2929,6.2886,6.2812,6.2935,6.2965,6.288,6.2468,6.2365,6.2295,6.1851,6.0841,5.9775,5.9426,5.8245,5.7279,5.8196,5.7182,5.6104,5.6684,5.6262,5.5718,5.5718,5.5613,5.5507,5.5507,5.5507,5.5507,5.5507,5.5507,5.5507,5.5507,5.5507,5.5507,5.5507,5.5478,5.5431,5.5431,5.5277,5.5169,5.5169,5.5066,5.4992,5.4961,5.4873,5.478,5.4749,5.4592,5.4512,5.4512,5.4512,5.4512,5.4512,5.4512,5.4512,5.4512,5.4512,5.4512,5.0884,5.1236,5.1601,5.1601,5.1601,5.1601,5.1601,0.0,5.1712,5.1826,0.0,5.1811,5.19,0.0,0.0,5.1574,5.2753,5.364,5.3491,5.4948,5.5984,5.5959,5.5937,5.625,5.7077,5.841,5.9286,5.936,6.0039,6.0461,6.0553,6.1208,6.163,6.1722,6.2438,6.278,6.278,6.278,6.278,6.278,6.278,6.278,6.278,6.278,6.278,6.278,6.278,6.278,6.278,6.278,6.2464,6.2077,6.2585,6.278,6.2805,6.2823,6.249,6.2032,6.2166,6.1842,6.14,6.1614,6.1454,6.1163,6.1122,6.0608,5.9917,5.9241,5.8884,5.8597,5.804,5.7728,5.7561,5.7649,5.7052,5.6473,5.6473,5.5964,5.5507,5.5507,5.5507,5.5507,5.5507,5.5507,5.5507,5.5507,5.5507,5.5507,5.5507,5.5354,5.5229,5.5229,5.5096,5.5005,5.5005,5.5022,5.4948,5.4842,5.4828,5.4717,5.4543,5.4512,5.4512,5.4512,5.4512,5.4512,5.4512,5.4512,5.4512,5.4512,5.4512,5.4512,5.0869,5.1126,5.1304,5.1304,5.1304,5.1199,5.0789,5.091,5.1131,5.1131,0.0,0.0,0.0,0.0,0.0,0.0,5.1993,5.2414,5.228,5.3126,5.42,5.5442,5.5614,5.5904,5.673,5.6987,5.7299,5.7776,5.8125,5.851,5.8988,5.9777,6.0419,6.0896,6.1227,6.163,6.2108,6.2108,6.2346,6.278,6.278,6.278,6.278,6.278,6.261,6.2308,6.2636,6.2368,6.1733,6.2112,6.1906,6.1322,6.1594,6.1705,6.1733,6.2139,6.1879,6.134,6.1379,6.1275,6.1084,6.0974,6.0669,6.0303,6.0303,6.0213,6.0036,5.9721,5.9334,5.9036,5.9106,5.8394,5.774,5.8213,5.7293,5.6322,5.6322,5.5746,5.5221,5.5221,5.5221,5.5221,5.5221,5.5264,5.5324,5.5324,5.5264,5.5221,5.5221,5.5144,5.5096,5.5096,5.4961,5.4886,5.4886,5.4793,5.47,5.4637,5.4623,5.4575,5.4512,5.4512,5.4512,5.4512,5.4512,5.4512,5.4512,5.4512,5.4512,5.4512,5.4512,5.4512,5.1269,5.1269,5.1166,5.1343,5.1114,5.0718,5.039,5.0459,5.0575,5.0575,5.0884,0.0,0.0,0.0,5.1139,5.1063,0.0,5.1371,5.129,5.1796,5.2801,5.4505,5.5049,5.55,5.6088,5.5812,5.5831,5.6436,5.6473,5.6822,5.7629,5.8437,5.9245,6.0052,6.0291,6.0676,6.1263,6.1263,6.1557,6.2144,6.2144,6.2155,6.223,6.223,6.2089,6.1924,6.2166,6.186,6.1207,6.1482,6.1254,6.0676,6.0838,6.0688,6.0494,6.1311,6.1225,6.0646,6.0646,6.0646,6.0555,6.0286,5.9972,5.9748,5.9748,5.9864,5.9978,6.0025,5.9639,5.9359,5.9966,5.912,5.8293,5.887,5.7852,5.668,5.6471,5.5844,5.5235,5.5026,5.4992,5.4992,5.4992,5.5096,5.5139,5.5139,5.5066,5.4992,5.4992,5.4961,5.4948,5.4948,5.4811,5.4717,5.4717,5.4575,5.4512,5.4512,5.4512,5.4512,5.4512,5.4512,5.4512,5.4512,5.4512,5.4512,5.4512,5.4512,5.4512,5.4512,5.4512,5.4512,5.2153,5.1636,5.1287,5.1981,5.1097,5.0235,5.0925,5.0528,5.004,5.004,5.0022,5.0051,5.0051,5.0051,0.0,0.0,5.0311,0.0,0.0,5.1119,5.1842,5.2434,5.3638,5.4454,5.4473,5.5152,5.5614,5.5629,5.5629,5.5978,5.6804,5.7593,5.8419,5.9203,5.9997,6.0419,6.0438,6.0438,6.0456,6.0493,6.0493,6.0589,6.0774,6.0774,6.1172,6.1851,6.1236,6.1293,6.1824,6.1178,6.0572,6.0097,6.0676,6.017,5.9216,6.0463,6.0542,6.0051,6.0051,5.9746,5.9369,5.9335,5.9453,5.9621,5.9621,5.9603,5.9636,5.9781,5.9779,5.9844,6.004,5.9908,5.9726,5.9761,5.9038,5.8142,5.7428,5.6628,5.5862,5.5131,5.4992,5.4992,5.4992,5.4992,5.5022,5.5022,5.4992,5.4992,5.4992,5.4886,5.4828,5.4828,5.4637,5.4512,5.4512,5.4512,5.4512,5.4512,5.4512,5.4512,5.4512,5.4512,5.4512,5.4512,5.4512,5.4512,5.4512,5.4512,5.4512,5.4512,5.4512,5.4512,5.2856,5.2822,5.2684,5.2942,5.2235,5.1407,5.1166,5.0545,5.0011,5.0011,5.0011,5.0011,5.0011,5.0011,0.0,0.0,0.0,5.0244,0.0,5.0672,5.1262,5.1817,5.289,5.383,5.4344,5.4161,5.4234,5.4766,5.4803,5.5152,5.5959,5.6767,5.7574,5.8382,5.8676,5.9079,5.9588,5.9606,5.97,5.9863,5.9863,5.9714,5.939,5.939,5.9567,5.9935,6.0107,6.0093,5.9998,6.0219,5.992,5.935,5.958,5.9399,5.9098,5.9984,5.9888,5.9317,5.9317,5.9233,5.9081,5.9081,5.9234,5.9386,5.9386,5.9504,5.9603,5.9652,5.9652,5.9685,5.9768,5.9619,5.9469,5.9469,5.8746,5.7868,5.7125,5.6329,5.5551,5.4807,5.4652,5.4652,5.4652,5.4652,5.4731,5.4855,5.4762,5.4652,5.4652,5.4637,5.4606,5.4606,5.4543,5.4512,5.4512,5.4512,5.4512,5.4512,5.4512,5.4512,5.4512,5.4512,5.4512,5.4512,5.4512,5.4512,5.4512,5.4512,5.4512,5.4512,5.4512,5.4512,5.3649,5.3598,5.346,5.3736,5.2994,5.2136,5.1977,5.1338,5.0787,5.0787,5.058,5.039,5.039,5.0183,5.0011,0.0,0.0,0.0,0.0,5.0453,5.0937,5.1288,5.2084,5.2831,5.334,5.294,5.2917,5.3642,5.3701,5.4243,5.5519,5.6088,5.6877,5.796,5.7997,5.8253,5.8786,5.856,5.8555,5.8691,5.8509,5.8258,5.7928,5.7928,5.8107,5.8488,5.8668,5.8798,5.9001,5.9182,5.914,5.9012,5.9012,5.9012,5.9047,5.9483,5.935,5.9012,5.9012,5.9012,5.9012,5.9012,5.9081,5.92,5.92,5.9268,5.9386,5.947,5.9504,5.9504,5.957,5.947,5.9319,5.9319,5.8596,5.7702,5.696,5.6167,5.5391,5.4649,5.4512,5.4512,5.4512,5.4512,5.4543,5.4686,5.4575,5.4512,5.4512,5.4512,5.4512,5.4512,5.4512,5.4512,5.4512,5.4512,5.4512,5.4512,5.4512,5.4512,5.4512,5.4512,5.4632,5.4908,5.4632,5.4632,5.4908,5.4632,5.4512,5.4512,5.4512,5.4512]}]]